     2              OBSERVATION DATA    GPS                 RINEX VERSION / TYPE
teqc 2000Feb29 Duncan Agnew 20031030 00:42:01UTC            PGM / RUN BY / DATE
                                                            COMMENT
L2: 1 -> 1; 150 -> 5; 250 -> 9                              COMMENT
L2: 1 -> 1; 150 -> 5; 250 -> 9                              COMMENT
L2: 1 -> 1; 150 -> 5; 250 -> 9                              COMMENT
L2: 1 -> 1; 150 -> 5; 250 -> 9                              COMMENT
L2: 1 -> 1; 150 -> 5; 250 -> 9                              COMMENT
Original Marker Name: KELL                                  COMMENT
Campaign Name: CSUSB 2002-2003                              COMMENT
4-Character Station Name: KELL                              COMMENT
6-Character Antenna Code: DMRCHT                            COMMENT
Vertical Measurement Point: BCR                             COMMENT
Vertical Offset to Rinex Ref. Point: 0.0348                 COMMENT
Radial Measurement Point: ECF                               COMMENT
Radial Offset to Rinex Ref. Point: 0.1897                   COMMENT
Antenna Height from Field Measurement: 1.2100 m             COMMENT
Additional Antenna Identification Info.:                    COMMENT
Turborogue and Ashtech Choke Ring                           COMMENT
Original XYZ: -2402521.0200 -4705157.2100 3565785.9800      COMMENT
New XYZ position is based on association with SCEC monument COMMENT
E1D0T0M9+0011. Position of that monument is believed to be  COMMENT
valid to within 1 m horizontally; vertical accuracy         COMMENT
should be no worse than 3-times this value.                 COMMENT
                                                            COMMENT
Revised Rinex header created by UCSD GPS archive for        COMMENT
GSAC on 09-Nov-2004 (2004:314) 22:44:15 GMT                 COMMENT
For assistance contact dagnew@ucsd.edu                      COMMENT
or anderson@python.ucsd.edu                                 COMMENT
                                                            COMMENT
KELLERS PEAK                                                MARKER NAME
___ CAL STATE SAN BERNARDINO                                OBSERVER / AGENCY
1602 ASHTECH Z-X ZB00                                       REC # / TYPE / VERS
1403 DORNE-MARGOL. TYPE T                                   ANT # / TYPE
 -2402515.0000 -4705146.0000  3565771.0000                  APPROX POSITION XYZ
        1.1602        0.0000        0.0000                  ANTENNA: DELTA H/E/N
     1     1     0                                          WAVELENGTH FACT L1/2
     7    C1    L1    L2    P1    P2    S1    S2            # / TYPES OF OBSERV
     0                                                      INTERVAL
  2002     7    11    16     0   20.000000                  TIME OF FIRST OBS
  2002     7    12     0     2    0.000000                  TIME OF LAST OBS
                                                            END OF HEADER
 02  7 11 16  0 20.0000000  0  8G23G22G21G18G 6G30G29G26
  21431039.766     9975307.18753   7764037.07552  21431040.680    21431039.806
        56.000          49.000
  23568467.273     9840314.63853   7668175.74852  23568467.896    23568468.095
        47.000          41.000
  23736474.757     9699665.60053   7565045.08252  23736475.446    23736478.528
        48.000          42.000
  21198296.943     9731797.33454   7588035.56552  21198298.031    21198294.485
        57.000          48.000
  20448407.442     9921736.88454   7727129.59752  20448408.972    20448406.571
        57.000          50.000
  24683147.028     -989660.34653   -786121.43352  24683148.553    24683149.398
        47.000          39.000
  22537551.878     9873180.15953   7692411.96852  22537553.300    22537552.855
        50.000          44.000
  21812650.338     9833064.98453   7662602.04252  21812652.825    21812649.828
        51.000          44.000
 02  7 11 16  0 40.0000000  0  8G23G22G21G18G 6G30G29G26
  21438480.540    10014408.47643   7794505.59042  21438481.631    21438480.302
        56.000          49.000
  23567350.113     9834450.39443   7663606.18542  23567350.840    23567351.579
        47.000          41.000
  23726063.331     9644960.49643   7522417.76242  23726065.037    23726069.020
        47.000          41.000
  21190755.061     9692164.57943   7557152.92942  21190756.361    21190753.492
        56.000          49.000
  20452570.403     9943613.19344   7744176.02842  20452571.835    20452569.270
        57.000          50.000
  24695853.260     -922886.60943   -734090.10842  24695855.038    24695854.139
        47.000          38.000
  22538611.221     9878743.79943   7696747.24942  22538613.400    22538612.092
        51.000          45.000
  21811050.612     9824655.73843   7656049.37042  21811052.500    21811049.033
        52.000          44.000
 02  7 11 16  1  0.0000000  0  8G23G22G21G18G 6G30G29G26
  21445946.229    10053640.61343   7825076.06042  21445947.607    21445946.060
        56.000          49.000
  23566280.532     9828822.44643   7659220.74742  23566279.981    23566281.125
        47.000          41.000
  23715671.549     9590354.71243   7479867.83142  23715670.652    23715677.868
        46.000          40.000
  21183247.841     9652715.06443   7526413.05842  21183249.095    21183247.566
        55.000          49.000
  20456774.783     9965708.31044   7761392.95942  20456776.416    20456774.158
        57.000          50.000
  24708551.236     -856156.15743   -682092.50642  24708554.952    24708548.939
        46.000          37.000
  22539716.375     9884549.37543   7701271.04742  22539717.838    22539716.250
        51.000          45.000
  21809503.315     9816526.82043   7649715.14942  21809505.622    21809502.450
        53.000          45.000
 02  7 11 16  1 20.0000000  0  8G23G22G21G18G 6G30G29G26
  21453436.886    10093004.17043   7855748.93542  21453437.869    21453436.408
        56.000          49.000
  23565254.403     9823431.72343   7655020.13942  23565254.544    23565255.240
        47.000          42.000
  23705298.265     9535849.90443   7437396.56742  23705300.221    23705304.081
        45.000          39.000
  21175775.751     9613450.15843   7495817.02942  21175776.960    21175775.829
        55.000          49.000
  20461021.346     9988023.46143   7778781.35442  20461022.914    20461020.980
        56.000          50.000
  24721241.700     -789468.45343   -630128.19742  24721243.383    24721240.425
        46.000          37.000
  22540867.743     9890598.17843   7705984.36542  22540868.726    22540868.364
        51.000          45.000
  21808009.095     9808679.81043   7643600.57342  21808011.045    21808010.703
        52.000          45.000
 02  7 11 16  1 40.0000000  0  8G23G22G21G18G 6G30G29G26
  21460951.403    10132492.88343   7886519.34442  21460952.830    21460951.071
        56.000          49.000
  23564272.938     9818272.53843   7650999.96442  23564271.561    23564274.471
        47.000          41.000
  23694945.448     9481440.66443   7394999.78042  23694945.904    23694950.702
        45.000          39.000
  21168337.152     9574364.47443   7465360.64242  21168338.697    21168337.525
        54.000          49.000
  20465307.656    10010552.94243   7796336.75942  20465309.448    20465308.468
        56.000          50.000
  24733922.043     -722829.96243   -578202.24242  24733923.982    24733923.505
        45.000          36.000
  22542063.543     9896884.49543   7710882.76342  22542065.487    22542064.811
        51.000          45.000
  21806569.079     9801109.34743   7637701.49042  21806570.845    21806569.231
        53.000          45.000
 02  7 11 16  2  0.0000000  0  8G23G22G21G18G 6G30G29G26
  21468489.792    10172110.15943   7917389.93242  21468491.615    21468490.092
        56.000          49.000
  23563335.551     9813348.89643   7647163.31942  23563335.904    23563336.670
        48.000          42.000
  23684612.229     9427131.16743   7352680.73542  23684611.837    23684615.042
        46.000          39.000
  21160934.937     9535462.28343   7435047.22442  21160936.438    21160934.686
        55.000          49.000
  20469636.439    10033300.88643   7814062.39542  20469637.875    20469637.461
        56.000          50.000
  24746592.423     -656237.26843   -526311.93142  24746594.689    24746597.432
        43.000          36.000
  22543305.010     9903412.54843   7715969.53042  22543307.860    22543307.007
        50.000          44.000
  21805182.047     9793819.69343   7632021.23042  21805184.233    21805181.507
        53.000          45.000
 02  7 11 16  2 20.0000000  0  9G23G22G21G18G 6G17G30G29G26
  21476054.299    10211860.99143   7948364.57342  21476055.587    21476054.370
        56.000          49.000
  23562445.732     9808666.39943   7643514.57842  23562444.782    23562445.657
        48.000          42.000
  23674298.382     9372927.41043   7310444.10142  23674297.501    23674300.149
        47.000          39.000
  21153568.627     9496749.40643   7404881.34442  21153569.653    21153567.898
        56.000          49.000
  20474008.017    10056272.93843   7831962.66442  20474009.464    20474008.990
        56.000          50.000
  20912149.990    -1238184.38653   -963299.53952  20912151.110    20912147.611
        46.000          39.000
  24759256.135     -589685.59743   -474453.58042  24759256.503    24759263.348
        43.000          37.000
  22544593.958     9910187.95743   7721249.03342  22544595.989    22544595.805
        49.000          44.000
  21803850.002     9786817.01743   7626564.58742  21803852.067    21803849.931
        53.000          45.000
 02  7 11 16  2 40.0000000  0  9G23G22G21G18G 6G17G30G29G26
  21483641.897    10251736.00543   7979435.98142  21483643.067    21483642.218
        55.000          48.000
  23561598.405     9804216.05543   7640046.72642  23561598.612    23561599.300
        48.000          42.000
  23664001.533     9318820.97143   7268283.30642  23664002.018    23664003.215
        48.000          40.000
  21146236.089     9458217.39543   7374856.40442  21146237.636    21146235.052
        56.000          50.000
  20478420.574    10079460.35144   7850030.74542  20478421.796    20478421.269
        57.000          51.000
  20909267.648    -1253323.92843   -975096.59442  20909269.630    20909266.504
        46.000          39.000
  24771911.348     -523184.23543   -422634.43042  24771913.701    24771918.060
        43.000          37.000
  22545929.085     9917202.02143   7726714.52942  22545930.057    22545930.840
        48.000          43.000
  21802570.224     9780092.82143   7621324.94442  21802572.805    21802569.674
        53.000          45.000
 02  7 11 16  3  0.0000000  0  9G23G22G21G18G 6G17G30G29G26
  21491253.874    10291738.08443   8010606.40642  21491255.190    21491254.387
        55.000          48.000
  23560796.760     9800001.38943   7636762.52942  23560796.716    23560797.585
        48.000          42.000
  23653724.319     9264815.74243   7226201.37942  23653724.136    23653727.340
        48.000          41.000
  21138938.777     9419869.90044   7344975.25342  21138940.058    21138937.679
        57.000          50.000
  20482875.051    10102866.56844   7868269.31642  20482876.143    20482875.292
        57.000          51.000
  20906399.433    -1268395.98943   -986841.05742  20906401.651    20906399.466
        46.000          39.000
  24784558.098     -456730.39043   -370852.30742  24784558.313    24784564.471
        44.000          38.000
  22547309.494     9924458.45843   7732368.87442  22547311.887    22547310.390
        49.000          43.000
  21801343.577     9773651.00443   7616305.33442  21801345.812    21801344.420
        52.000          45.000
 02  7 11 16  3 20.0000000  0  9G23G22G21G18G 6G17G30G29G26
  21498890.249    10331865.97043   8041874.86142  21498891.160    21498890.368
        55.000          48.000
  23560039.293     9796021.66843   7633661.38942  23560040.305    23560039.772
        48.000          41.000
  23643466.230     9210911.45343   7184198.09942  23643467.726    23643469.961
        48.000          41.000
  21131675.962     9381706.55744   7315237.59942  21131677.507    21131674.963
        57.000          49.000
  20487370.902    10126490.82844   7886677.78042  20487372.003    20487371.042
        57.000          51.000
  20903543.917    -1283401.03243   -998533.30942  20903545.275    20903544.589
        46.000          39.000
  24797195.262     -390325.46143   -319108.29742  24797194.882    24797202.027
        44.000          38.000
  22548736.095     9931956.38943   7738211.38942  22548738.136    22548737.796
        48.000          43.000
  21800171.129     9767491.06943   7611505.35742  21800172.864    21800172.996
        52.000          45.000
 02  7 11 16  3 40.0000000  0 10G23G22G21G18G 6G17G15G30G29G26
  21506550.780    10372120.64043   8073242.11142  21506552.124    21506550.614
        55.000          48.000
  23559327.534     9792278.34143   7630744.44842  23559326.499    23559326.667
        47.000          41.000
  23633228.287     9157109.89743   7142274.87642  23633230.693    23633231.192
        48.000          41.000
  21124449.342     9343729.35044   7285644.99142  21124450.681    21124447.928
        57.000          49.000
  20491908.175    10150334.73144   7905257.39742  20491909.316    20491908.363
        57.000          51.000
  20900700.746    -1298337.32843  -1010171.98842  20900702.897    20900702.244
        45.000          39.000
  21135731.380    -1273780.23453   -990118.50052  21135733.747    21135733.164
        39.000          37.000
  24809822.274     -323968.50443   -267401.67242  24809824.428    24809829.338
        45.000          38.000
  22550209.466     9939697.67343   7744243.52942  22550211.147    22550212.070
        48.000          43.000
  21799053.133     9761615.09543   7606926.64242  21799054.750    21799055.158
        52.000          45.000
 02  7 11 16  4  0.0000000  0 10G23G22G21G18G 6G17G15G30G29G26
  21514234.553    10412495.15643   8104702.75242  21514235.570    21514233.769
        56.000          48.000
  23558658.556     9788764.93143   7628006.68242  23558656.288    23558659.054
        48.000          41.000
  23623007.543     9103405.13943   7100427.06242  23623008.498    23623011.669
        48.000          41.000
  21117256.850     9305932.06344   7256192.58542  21117258.471    21117255.557
        57.000          49.000
  20496485.776    10174391.99943   7924003.28142  20496487.424    20496486.520
        56.000          51.000
  20897871.198    -1313211.19643  -1021762.03942  20897871.978    20897870.851
        46.000          39.000
  21130829.604    -1299544.64243  -1010194.69442  21130829.396    21130830.763
        38.000          36.000
  24822438.792     -257666.73143   -215738.04342  24822441.467    24822445.844
        44.000          38.000
  22551727.553     9947675.83643   7750460.24342  22551729.822    22551729.564
        48.000          43.000
  21797988.288     9756017.02043   7602564.48842  21797989.390    21797990.489
        52.000          45.000
 02  7 11 16  4 20.0000000  0 10G23G22G21G18G 6G17G15G30G29G26
  21521942.303    10453000.18743   8136265.09842  21521943.250    21521941.440
        56.000          48.000
  23558035.864     9785492.69043   7625456.83242  23558034.979    23558034.381
        47.000          40.000
  23612809.103     9049808.80943   7058663.75142  23612808.999    23612812.572
        47.000          41.000
  21110101.136     9268326.23844   7226889.37242  21110102.274    21110099.677
        57.000          48.000
  20501106.643    10198673.78943   7942924.12642  20501107.772    20501107.391
        56.000          50.000
  20895055.228    -1328011.30243  -1033294.62342  20895056.543    20895054.309
        47.000          39.000
  21125943.121    -1325225.46153  -1030205.70052  21125943.842    21125944.145
        37.000          35.000
  24835047.685     -191409.29843   -164108.97142  24835049.005    24835053.104
        45.000          37.000
  22553293.561     9955902.32743   7756870.45742  22553295.364    22553295.399
        48.000          43.000
  21796978.174     9750708.29243   7598427.78742  21796979.293    21796980.418
        52.000          45.000
 02  7 11 16  4 40.0000000  0  8G23G22G21G18G 6G17G29G26
  21529674.687    10493636.44943   8167929.70042  21529676.337    21529674.409
        56.000          48.000
  23557459.407     9782462.85243   7623095.86442  23557458.470    23557460.495
        47.000          40.000
  23602630.020     8996322.46343   7016986.12142  23602630.542    23602634.174
        47.000          41.000
  21102981.558     9230913.39243   7197736.53642  21102982.897    21102980.297
        56.000          48.000
  20505770.187    10223181.45843   7962020.98942  20505771.463    20505770.735
        56.000          50.000
  20892252.630    -1342736.25843  -1044768.64042  20892254.795    20892253.504
        46.000          39.000
  22554906.641     9964378.43943   7763475.19142  22554908.808    22554908.412
        49.000          44.000
  21796023.631     9745690.62543   7594517.89742  21796024.715    21796025.162
        52.000          45.000
 02  7 11 16  5  0.0000000  0  8G23G22G21G18G 6G17G29G26
  21537427.533    10534379.85543   8199677.78742  21537429.572    21537427.732
        56.000          48.000
  23556923.925     9779651.70543   7620905.32242  23556924.142    23556924.878
        46.000          40.000
  23592468.595     8942922.76143   6975376.01442  23592470.533    23592472.887
        48.000          41.000
  21095894.224     9193670.24143   7168715.92342  21095895.117    21095893.200
        55.000          48.000
  20510472.587    10247891.55743   7981275.58942  20510473.932    20510472.810
        56.000          50.000
  20889459.853    -1357409.36143  -1056202.23542  20889460.986    20889460.151
        46.000          39.000
  22556563.511     9973080.70043   7770256.14742  22556565.424    22556564.899
        50.000          44.000
  21795119.889     9740940.88443   7590816.78142  21795121.355    21795120.569
        53.000          45.000
 02  7 11 16  5 20.0000000  0  8G23G22G21G18G 6G17G29G26
  21545204.680    10575248.87043   8231523.74742  21545206.049    21545205.103
        55.000          48.000
  23556433.812     9777078.39443   7618900.06542  23556432.111    23556435.189
        46.000          40.000
  23582328.657     8889629.14043   6933848.57142  23582330.474    23582332.576
        48.000          41.000
  21088841.881     9156616.18043   7139842.63642  21088843.589    21088842.575
        54.000          48.000
  20515217.289    10272823.02443   8000702.67642  20515218.500    20515216.956
        56.000          50.000
  20886681.485    -1372011.42243  -1067580.49042  20886681.974    20886681.014
        45.000          38.000
  22558266.162     9982028.25343   7777228.25342  22558267.286    22558267.954
        50.000          44.000
  21794270.570     9736478.34343   7587339.47342  21794272.297    21794272.342
        53.000          46.000
 02  7 11 16  5 40.0000000  0  8G23G22G21G18G 6G17G29G26
  21553004.719    10616239.21343   8263464.22842  21553006.150    21553004.905
        55.000          48.000
  23555988.725     9774738.96843   7617077.09342  23555988.457    23555989.063
        46.000          40.000
  23572206.677     8836438.56443   6892401.44342  23572207.184    23572210.144
        48.000          42.000
  21081826.315     9119747.71043   7111113.95742  21081827.200    21081826.219
        54.000          48.000
  20520002.746    10297972.14644   8020299.36142  20520004.259    20520002.307
        57.000          50.000
  20883913.117    -1386546.00343  -1078906.15542  20883913.779    20883915.239
        43.000          38.000
  22560013.944     9991217.30243   7784388.53042  22560015.420    22560015.566
        50.000          44.000
  21793474.877     9732299.64543   7584083.33442  21793477.326    21793476.831
        53.000          46.000
 02  7 11 16  6  0.0000000  0  8G23G22G21G18G 6G17G29G26
  21560828.467    10657351.88143   8295500.03442  21560829.073    21560828.448
        55.000          48.000
  23555587.191     9772634.87943   7615437.50142  23555588.071    23555589.110
        45.000          40.000
  23562104.608     8783352.65143   6851035.85242  23562105.401    23562108.337
        49.000          42.000
  21074846.459     9083066.60643   7082531.26642  21074847.464    21074846.524
        54.000          48.000
  20524830.335    10323340.48544   8040066.85642  20524832.232    20524829.763
        57.000          50.000
  20881161.753    -1401011.60343  -1090178.09242  20881161.764    20881164.938
        45.000          38.000
  22561808.613    10000649.49443   7791738.27042  22561810.808    22561810.159
        50.000          44.000
  21792734.341     9728406.63843   7581049.81242  21792736.125    21792736.384
        53.000          46.000
 02  7 11 16  6 20.0000000  0  8G23G22G21G18G 6G17G29G26
  21568674.743    10698583.33543   8327628.39642  21568676.081    21568674.582
        55.000          48.000
  23555231.593     9770763.06043   7613978.88642  23555232.150    23555232.326
        46.000          40.000
  23552020.872     8730368.68743   6809749.70542  23552022.983    23552025.638
        48.000          42.000
  21067901.548     9046570.07143   7054092.40242  21067902.505    21067901.360
        54.000          49.000
  20529699.118    10348925.02944   8060002.81442  20529700.826    20529698.445
        57.000          50.000
  20878423.196    -1415410.88943  -1101398.32942  20878423.480    20878424.581
        43.000          37.000
  22563648.894    10010321.88243   7799275.17642  22563651.814    22563651.021
        49.000          44.000
  21792046.638     9724796.66843   7578236.84442  21792048.812    21792048.130
        53.000          46.000
 02  7 11 16  6 40.0000000  0  8G23G22G21G18G 6G17G29G26
  21576543.832    10739935.19143   8359850.58242  21576545.023    21576543.841
        55.000          48.000
  23554921.253     9769125.60243   7612702.88542  23554922.058    23554920.120
        46.000          40.000
  23541958.668     8677489.43743   6768545.15342  23541959.217    23541963.034
        48.000          42.000
  21060992.458     9010260.64343   7025799.34642  21060993.224    21060991.866
        55.000          49.000
  20534609.243    10374727.95144   8080108.93742  20534610.653    20534608.606
        57.000          50.000
  20875698.408    -1429741.62343  -1112565.15542  20875697.570    20875695.811
        42.000          37.000
  22565535.827    10020236.69543   7807000.97242  22565537.931    22565538.519
        49.000          44.000
  21791413.790     9721472.16243   7575646.30842  21791415.920    21791416.267
        53.000          46.000
 02  7 11 16  7  0.0000000  0  8G23G22G21G18G 6G17G29G26
  21584435.560    10781408.71543   8392167.57042  21584436.747    21584435.516
        55.000          48.000
  23554654.950     9767724.42743   7611611.01042  23554654.207    23554655.424
        47.000          40.000
  23531915.857     8624717.24143   6727424.02742  23531916.760    23531920.724
        47.000          41.000
  21054118.421     8974140.43543   6997653.74242  21054119.696    21054118.850
        56.000          50.000
  20539561.374    10400751.15744   8100386.71942  20539562.764    20539561.242
        57.000          50.000
  20872984.664    -1444001.65043  -1123676.90942  20872984.936    20872984.466
        43.000          37.000
  22567469.670    10030395.90743   7814917.20842  22567470.636    22567471.493
        49.000          44.000
  21790836.587     9718435.39043   7573279.97342  21790837.496    21790838.037
        52.000          45.000
 02  7 11 16  7 20.0000000  0  8G23G22G21G18G 6G17G29G26
  21592349.905    10822998.22043   8424574.93442  21592350.769    21592350.087
        55.000          47.000
  23554431.046     9766554.20043   7610699.11142  23554430.866    23554432.800
        46.000          40.000
  23521892.088     8572047.35343   6686382.60442  23521892.585    23521897.324
        46.000          40.000
  21047281.152     8938204.70244   6969651.88842  21047281.946    21047280.524
        57.000          50.000
  20544554.503    10426989.59644   8120832.20942  20544555.711    20544554.194
        57.000          50.000
  20870283.403    -1458195.97743  -1134737.45442  20870282.265    20870283.892
        42.000          37.000
  22569449.246    10040794.42943   7823019.92042  22569449.837    22569450.643
        50.000          44.000
  21790313.098     9715681.54543   7571134.09542  21790314.455    21790313.830
        53.000          45.000
 02  7 11 16  7 40.0000000  0  8G23G22G21G18G 6G17G29G26
  21600286.419    10864705.29843   8457073.90542  21600287.678    21600286.648
        54.000          47.000
  23554253.402     9765617.01143   7609968.78542  23554253.022    23554253.983
        47.000          40.000
  23511891.867     8519482.03743   6645422.67842  23511889.571    23511894.768
        46.000          40.000
  21040478.321     8902455.83944   6941795.64242  21040479.406    21040477.913
        57.000          50.000
  20549588.908    10453445.38044   8141447.05842  20549590.416    20549588.381
        57.000          50.000
  20867595.737    -1472322.34743  -1145745.04842  20867594.238    20867592.508
        41.000          37.000
  22571473.506    10051434.44443   7831310.81242  22571475.431    22571475.482
        50.000          44.000
  21789843.372     9713213.04843   7569210.56842  21789844.912    21789843.913
        53.000          45.000
 02  7 11 16  8  0.0000000  0  8G23G22G21G18G 6G17G29G26
  21608245.228    10906528.31643   8489663.22142  21608246.614    21608245.669
        55.000          47.000
  23554119.154     9764911.51643   7609419.00142  23554118.759    23554119.651
        47.000          40.000
  23501908.209     8467020.53243   6604543.64242  23501907.452    23501910.708
        46.000          40.000
  21033710.564     8866892.90544   6914084.27842  21033711.569    21033709.930
        57.000          50.000
  20554664.468    10480117.34644   8162230.36642  20554665.762    20554663.924
        57.000          50.000
  20864920.134    -1486381.65243  -1156700.35942  20864919.129    20864917.748
        41.000          37.000
  22573544.109    10062314.90443   7839789.07042  22573546.679    22573545.016
        50.000          44.000
  21789427.913     9711029.08543   7567508.75442  21789429.702    21789428.418
        53.000          45.000
 02  7 11 16  8 20.0000000  0  8G23G22G21G18G 6G17G29G26
  21616226.223    10948465.36743   8522341.39842  21616227.104    21616226.086
        55.000          47.000
  23554028.127     9764436.61443   7609048.91842  23554027.912    23554029.109
        46.000          40.000
  23491945.029     8414662.03843   6563744.86442  23491945.534    23491948.601
        47.000          41.000
  21026978.329     8831514.84944   6886516.97542  21026979.511    21026977.643
        57.000          50.000
  20559780.545    10507004.21844   8183181.13242  20559781.932    20559780.831
        57.000          50.000
  20862257.351    -1500375.09743  -1167604.34642  20862257.800    20862254.434
        41.000          37.000
  22575659.631    10073434.42343   7848453.60942  22575661.308    22575661.143
        50.000          44.000
  21789066.544     9709128.58743   7566027.82942  21789068.014    21789067.107
        53.000          45.000
 02  7 11 16  8 40.0000000  0  8G23G22G21G18G 6G17G29G26
  21624229.327    10990520.77043   8555111.80542  21624230.302    21624229.061
        55.000          48.000
  23553983.557     9764196.76943   7608861.97442  23553982.402    23553982.238
        47.000          40.000
  23482002.726     8362411.47943   6523030.19442  23482003.095    23482004.825
        48.000          41.000
  21020281.765     8796326.75543   6859097.70042  21020282.979    21020281.521
        56.000          50.000
  20564938.450    10534110.79943   8204303.10242  20564939.887    20564939.130
        56.000          50.000
  20859609.267    -1514297.61443  -1178453.07842  20859609.733    20859608.092
        40.000          37.000
  22577820.965    10084797.96743   7857308.29642  22577823.595    22577823.626
        49.000          43.000
  21788759.733     9707516.68843   7564771.78342  21788760.991    21788760.218
        53.000          45.000
 02  7 11 16  9  0.0000000  0  8G23G22G21G18G 6G17G29G26
  21632253.588    11032690.26543   8587971.11042  21632255.062    21632253.581
        55.000          48.000
  23553981.562     9764188.25243   7608855.28742  23553981.940    23553982.450
        47.000          40.000
  23472078.876     8310265.97543   6482397.38442  23472079.515    23472082.430
        49.000          42.000
  21013621.871     8761325.15043   6831823.73642  21013622.763    21013620.839
        56.000          49.000
  20570137.984    10561433.32643   8225593.34942  20570139.148    20570138.273
        56.000          50.000
  20856969.991    -1528152.70543  -1189249.24942  20856971.799    20856971.514
        40.000          36.000
  22580028.824    10096401.82643   7866350.24442  22580031.700    22580032.361
        49.000          43.000
  21788507.280     9706190.00943   7563737.99042  21788508.916    21788508.350
        53.000          46.000
 02  7 11 16  9 20.0000000  0  8G23G22G21G18G 6G17G29G26
  21640300.057    11074973.03143   8620918.68942  21640301.237    21640299.794
        56.000          48.000
  23554024.524     9764410.65843   7609028.54342  23554025.166    23554024.063
        47.000          40.000
  23462175.622     8258225.29043   6441846.25442  23462176.674    23462179.785
        49.000          43.000
  21006996.680     8726509.96543   6804695.03742  21006997.761    21006996.513
        56.000          49.000
  20575377.938    10588971.48843   8247051.63742  20575379.315    20575378.756
        56.000          50.000
  20854346.828    -1541940.64853  -1199993.12252  20854346.947    20854345.120
        38.000          36.000
  22582282.899    10108245.61943   7875579.14342  22582284.406    22582285.641
        48.000          43.000
  21788308.830     9705148.40243   7562926.32742  21788310.655    21788310.970
        52.000          46.000
 02  7 11 16  9 40.0000000  0  8G23G22G21G18G 6G17G29G26
  21648367.819    11117370.54743   8653955.68342  21648369.325    21648368.181
        56.000          48.000
  23554110.512     9764865.85543   7609383.18842  23554111.989    23554111.819
        47.000          40.000
  23452294.357     8206291.82943   6401378.67942  23452294.777    23452298.089
        50.000          43.000
  21000407.907     8691883.60343   6777713.47142  21000408.770    21000406.757
        55.000          49.000
  20580660.378    10616727.31043   8268679.51442  20580661.494    20580660.424
        56.000          50.000
  20851740.096    -1555659.07843  -1210682.83442  20851737.975    20851734.674
        39.000          36.000
  22584582.894    10120331.50943   7884996.69342  22584584.813    22584584.740
        48.000          43.000
  21788164.515     9704394.28543   7562338.68642  21788166.599    21788166.258
        52.000          46.000
 02  7 11 16 10  0.0000000  0  8G23G22G21G18G 6G17G29G26
  21656457.483    11159884.49443   8687083.39842  21656458.965    21656458.452
        56.000          48.000
  23554242.347     9765555.96343   7609920.88442  23554241.369    23554243.082
        47.000          40.000
  23442432.103     8154468.07943   6360996.59242  23442433.780    23442435.708
        51.000          43.000
  20993854.651     8657448.54743   6750880.97242  20993855.560    20993853.738
        55.000          48.000
  20585983.934    10644702.91443   8290478.65442  20585985.488    20585984.092
        56.000          50.000
  20849144.132    -1569305.84943  -1221316.69542  20849144.818    20849137.951
        42.000          36.000
  22586929.588    10132661.69943   7894604.62242  22586932.208    22586931.394
        49.000          43.000
  21788075.810     9703930.14343   7561976.99942  21788077.852    21788078.024
        52.000          46.000
 02  7 11 16 10 20.0000000  0  8G23G22G21G18G 6G17G29G26
  21664568.090    11202506.04343   8720294.95542  21664569.694    21664569.540
        55.000          48.000
  23554416.382     9766472.54243   7610635.05342  23554416.170    23554418.053
        47.000          40.000
  23432589.911     8102746.37243   6320694.01742  23432591.813    23432594.382
        50.000          43.000
  20987335.831     8623196.73843   6724191.25942  20987336.956    20987335.943
        53.000          48.000
  20591348.342    10672890.06744   8312442.62642  20591349.420    20591348.127
        57.000          50.000
  20846558.314    -1582888.82143  -1231900.85042  20846558.732    20846556.262
        40.000          36.000
  22589320.667    10145227.93643   7904396.47842  22589322.412    22589322.309
        49.000          43.000
  21788041.793     9703747.91243   7561834.98442  21788043.716    21788042.762
        52.000          46.000
 02  7 11 16 10 40.0000000  0  8G23G22G21G18G 6G17G29G26
  21672700.786    11245242.27243   8753595.87242  21672702.158    21672702.083
        55.000          48.000
  23554635.898     9767623.20543   7611531.60242  23554634.879    23554634.561
        48.000          40.000
  23422766.952     8051134.50143   6280477.02442  23422769.528    23422771.882
        50.000          43.000
  20980854.239     8589135.92843   6697650.36442  20980855.668    20980854.245
        54.000          48.000
  20596753.410    10701296.34044   8334577.34142  20596754.916    20596753.923
        57.000          50.000
  20843985.274    -1596400.15843  -1242429.14442  20843987.321    20843984.403
        40.000          36.000
  22591759.007    10158037.77243   7914378.15042  22591760.747    22591760.605
        49.000          43.000
  21788061.889     9703855.40843   7561918.73942  21788064.452    21788063.384
        51.000          46.000
 02  7 11 16 11  0.0000000  0  8G23G22G21G18G 6G17G29G26
  21680853.865    11288088.45243   8786982.47142  21680856.047    21680855.888
        55.000          49.000
  23554896.798     9769003.53043   7612607.14042  23554896.072    23554899.035
        47.000          41.000
  23412965.199     7999628.35943   6240342.40542  23412967.408    23412970.889
        48.000          42.000
  20974409.011     8555262.15343   6671255.21742  20974410.257    20974409.068
        55.000          49.000
  20602199.357    10729917.56743   8356879.55942  20602200.905    20602200.639
        56.000          50.000
  20841428.990    -1609844.05343  -1252904.90142  20841425.298    20841424.087
        39.000          36.000
  22594243.004    10171087.10043   7924546.43842  22594244.067    22594242.605
        49.000          44.000
  21788137.382     9704248.80843   7562225.27742  21788139.874    21788137.711
        52.000          46.000
 02  7 11 16 11 20.0000000  0  7G23G22G21G18G 6G29G26
  21689024.656    11331025.75243   8820440.06842  21689026.083    21689026.367
        55.000          49.000
  23555200.484     9770595.12543   7613847.28142  23555200.525    23555202.093
        47.000          41.000
  23403179.952     7948210.39043   6200276.45842  23403178.858    23403185.945
        46.000          41.000
  20967995.471     8521557.36143   6644991.74442  20967997.137    20967995.145
        56.000          49.000
  20607683.764    10758735.44044   8379335.00242  20607685.015    20607684.435
        57.000          50.000
  22596768.280    10184357.59343   7934887.07642  22596769.372    22596769.365
        49.000          44.000
  21788262.959     9704910.08043   7562740.55542  21788264.931    21788264.295
        52.000          46.000
 02  7 11 16 11 40.0000000  0  7G23G22G21G18G 6G29G26
  21697220.783    11374094.80743   8854000.33742  21697221.935    21697222.521
        56.000          49.000
  23555551.835     9772439.05443   7615284.06142  23555551.490    23555554.238
        47.000          41.000
  23393419.920     7896921.87943   6160311.40342  23393420.043    23393425.943
        46.000          41.000
  20961622.223     8488063.05544   6618892.31042  20961623.276    20961621.175
        57.000          50.000
  20613212.879    10787791.00844   8401975.66742  20613214.316    20613213.847
        57.000          50.000
  22599342.966    10197890.42443   7945432.12242  22599345.091    22599344.201
        49.000          44.000
  21788447.376     9705880.47743   7563496.69742  21788450.121    21788448.599
        52.000          46.000
 02  7 11 16 12  0.0000000  0  7G23G22G21G18G 6G29G26
  21705437.273    11417272.14843   8887644.99142  21705438.294    21705438.369
        56.000          49.000
  23555945.876     9774512.22143   7616899.48042  23555946.165    23555948.066
        46.000          41.000
  23383681.766     7845740.34143   6120429.70042  23383681.786    23383687.604
        47.000          42.000
  20955283.838     8454756.53244   6592939.19742  20955285.134    20955283.302
        57.000          50.000
  20618783.196    10817061.30544   8424783.64342  20618784.584    20618783.957
        57.000          50.000
  22601964.517    10211662.72743   7956163.75342  22601966.787    22601965.128
        50.000          44.000
  21788686.552     9707137.42943   7564476.12942  21788688.635    21788688.075
        52.000          46.000
 02  7 11 16 12 20.0000000  0  7G23G22G21G18G 6G29G26
  21713673.754    11460554.17743   8921371.21842  21713674.877    21713674.626
        56.000          49.000
  23556384.228     9776811.34043   7618690.95742  23556382.643    23556386.092
        46.000          41.000
  23373963.006     7794663.02043   6080629.21542  23373962.367    23373966.844
        48.000          42.000
  20948981.195     8421634.84644   6567130.12042  20948982.164    20948980.004
        58.000          50.000
  20624393.559    10846543.17844   8447756.47642  20624394.912    20624393.933
        58.000          50.000
  22604630.554    10225671.23543   7967079.47242  22604632.122    22604631.171
        50.000          44.000
  21788979.960     9708678.07343   7565676.62742  21788981.572    21788981.421
        52.000          46.000
 02  7 11 16 12 40.0000000  0  7G23G22G21G18G 6G29G26
  21721930.365    11503944.11443   8955181.53842  21721931.703    21721931.199
        55.000          49.000
  23556863.355     9779340.09443   7620661.39442  23556862.670    23556867.520
        44.000          40.000
  23364264.488     7743693.91243   6040913.06342  23364264.771    23364267.990
        49.000          42.000
  20942713.667     8388702.10244   6541468.27142  20942715.012    20942712.831
        58.000          50.000
  20630044.681    10876240.49244   8470897.18942  20630046.041    20630045.105
        57.000          50.000
  22607342.133    10239919.83243   7978182.27042  22607342.919    22607341.516
        50.000          44.000
  21789328.312     9710506.38443   7567101.27142  21789330.118    21789329.819
        52.000          46.000
 02  7 11 16 13  0.0000000  0  7G23G22G21G18G 6G29G26
  21730207.739    11547441.99843   8989075.97442  21730208.878    21730208.425
        55.000          49.000
  23557390.044     9782098.97543   7622811.13842  23557388.607    23557390.818
        45.000          40.000
  23354585.593     7692833.84443   6001281.89142  23354585.830    23354589.147
        50.000          42.000
  20936483.320     8355959.01444   6515954.19942  20936484.060    20936482.052
        57.000          50.000
  20635736.864    10906153.57743   8494206.04342  20635738.358    20635737.429
        56.000          50.000
  22610099.370    10254408.95743   7989472.48142  22610101.008    22610099.806
        50.000          44.000
  21789731.333     9712623.07043   7568750.63142  21789733.280    21789733.332
        53.000          46.000
 02  7 11 16 13 20.0000000  0  7G23G22G21G18G 6G29G26
  21738505.079    11591045.43943   9023052.65942  21738506.284    21738505.943
        55.000          49.000
  23557958.212     9785085.88743   7625138.58642  23557957.920    23557959.686
        44.000          40.000
  23344926.684     7642081.79343   5961734.89942  23344928.434    23344931.125
        50.000          42.000
  20930288.120     8323404.14644   6490586.78642  20930289.187    20930287.188
        57.000          50.000
  20641469.188    10936280.70643   8517681.69342  20641470.605    20641470.575
        56.000          50.000
  22612901.414    10269136.92843   8000948.80842  22612903.625    22612902.134
        50.000          44.000
  21790189.445     9715026.63243   7570623.52542  21790191.309    21790191.221
        53.000          46.000
 02  7 11 16 13 40.0000000  0  7G23G22G21G18G 6G29G26
  21746822.846    11634754.89643   9057111.95542  21746824.288    21746823.547
        55.000          48.000
  23558569.967     9788301.73843   7627644.40442  23558569.820    23558571.032
        44.000          40.000
  23335290.326     7591438.98643   5922273.02742  23335291.921    23335292.664
        50.000          41.000
  20924128.562     8291038.68743   6465366.95342  20924130.306    20924128.021
        56.000          50.000
  20647243.091    10966622.83243   8541324.88342  20647244.456    20647244.571
        55.000          50.000
  22615748.265    10284104.71843   8012611.99342  22615752.361    22615750.647
        49.000          44.000
  21790701.370     9717718.26343   7572720.91242  21790704.139    21790702.983
        53.000          46.000
 02  7 11 16 14  0.0000000  0  7G23G22G21G18G 6G29G26
  21755160.768    11678571.22143   9091254.53142  21755161.977    21755161.210
        56.000          49.000
  23559226.759     9791747.73043   7630329.56142  23559226.967    23559228.123
        45.000          41.000
  23325673.793     7540906.83843   5882897.38642  23325676.056    23325677.181
        49.000          41.000
  20918005.735     8258864.02843   6440295.79842  20918006.964    20918005.015
        55.000          49.000
  20653058.202    10997181.19643   8565136.56742  20653059.729    20653059.760
        55.000          50.000
  22618643.514    10299313.68743   8024463.12042  22618645.648    22618646.021
        50.000          44.000
  21791268.121     9720699.50543   7575043.96342  21791270.847    21791269.643
        53.000          46.000
 02  7 11 16 14 20.0000000  0  8G23G22G21G18G 6G15G29G26
  21763518.655    11722491.27343   9125477.94142  21763519.739    21763519.161
        55.000          48.000
  23559926.467     9795421.04243   7633191.83442  23559926.339    23559926.542
        46.000          41.000
  23316077.820     7490483.22043   5843606.30242  23316079.536    23316081.753
        49.000          41.000
  20911918.740     8226877.94743   6415371.58742  20911919.805    20911918.492
        54.000          49.000
  20658913.915    11027953.06643   8589114.61442  20658915.662    20658914.915
        56.000          50.000
  20986192.579
        41.000
  22621582.910    10314761.00943   8036499.97242  22621585.182    22621585.113
        50.000          44.000
  21791889.893     9723967.98343   7577590.83942  21791891.468    21791890.711
        52.000          46.000
 02  7 11 16 14 40.0000000  0  8G23G22G21G18G 6G15G29G26
  21771897.255    11766520.72243   9159786.57442  21771898.143    21771897.913
        55.000          48.000
  23560671.047     9799327.82343   7636236.03242  23560670.967    23560670.204
        48.000          41.000
  23306504.753     7440174.86743   5804405.02942  23306506.747    23306508.317
        49.000          42.000
  20905868.800     8195086.83143   6390599.28142  20905869.852    20905868.693
        53.000          48.000
  20664812.199    11058944.64244   8613263.84842  20664813.455    20664812.304
        57.000          50.000
  20981763.436
        43.000
  22624568.925    10330453.05143   8048727.50742  22624570.935    22624570.845
        50.000          44.000
  21792566.636     9727530.00243   7580366.44742  21792569.176    21792568.701
        51.000          45.000
 02  7 11 16 15  0.0000000  0  8G23G22G21G18G 6G15G29G26
  21780295.291    11810653.71343   9194175.89042  21780296.579    21780296.017
        55.000          48.000
  23561457.317     9803462.40943   7639457.73242  23561457.473    23561456.739
        49.000          42.000
  23296952.700     7389976.57943   5765289.50742  23296954.611    23296956.519
        49.000          42.000
  20899854.956     8163485.45743   6365974.81542  20899856.644    20899855.070
        53.000          48.000
  20670750.477    11090150.51044   8637580.05742  20670752.017    20670750.481
        57.000          50.000
  20977350.906
        43.000
  22627601.100    10346384.18543   8061141.35942  22627602.853    22627602.064
        50.000          44.000
  21793299.878     9731380.42943   7583366.78942  21793301.149    21793300.641
        51.000          45.000
 02  7 11 16 15 20.0000000  0  8G23G22G21G18G 6G15G29G26
  21788712.832    11854886.03243   9228642.60742  21788713.949    21788712.894
        55.000          48.000
  23562286.646     9807821.03443   7642854.00542  23562286.986    23562286.577
        48.000          42.000
  23287421.108     7339885.15143   5726257.26342  23287422.069    23287425.228
        49.000          43.000
  20893878.443     8132070.55143   6341495.66742  20893879.022    20893877.097
        54.000          48.000
  20676729.003    11121566.97044   8662060.36542  20676730.260    20676728.665
        57.000          50.000
  20972954.120    -1383816.92253  -1062419.42652  20972955.706    20972953.682
        44.000          38.000
  22630677.965    10362550.90043   8073738.77842  22630679.377    22630679.164
        51.000          45.000
  21794086.209     9735515.86043   7586589.21142  21794087.420    21794089.271
        51.000          45.000
 02  7 11 16 15 40.0000000  0  8G23G22G21G18G 6G15G29G26
  21797148.977    11899218.69443   9263187.52842  21797150.008    21797149.730
        55.000          48.000
  23563158.685     9812405.04643   7646425.90842  23563157.721    23563158.971
        48.000          42.000
  23277909.684     7289902.25443   5687309.59742  23277910.734    23277913.891
        50.000          43.000
  20887936.384     8100843.67043   6317163.05842  20887937.439    20887934.763
        56.000          49.000
  20682747.445    11153195.39844   8686705.84842  20682748.892    20682748.132
        57.000          50.000
  20968572.055    -1406843.33343  -1080362.09242  20968573.498    20968572.194
        45.000          38.000
  22633798.641    10378954.53643   8086520.82842  22633800.583    22633799.714
        50.000          44.000
  21794928.193     9739937.89243   7590034.95342  21794929.300    21794929.694
        51.000          45.000
 02  7 11 16 16  0.0000000  0  8G23G22G21G18G 6G15G29G26
  21805604.078    11943651.69743   9297810.61842  21805605.434    21805604.513
        55.000          48.000
  23564073.907     9817214.81043   7650173.72442  23564073.254    23564073.986
        48.000          42.000
  23268419.281     7240029.16343   5648447.47942  23268419.878    23268423.166
        50.000          43.000
  20882030.595     8069805.69644   6292977.65542  20882031.452    20882028.511
        57.000          49.000
  20688806.590    11185036.25344   8711516.85942  20688808.158    20688806.968
        57.000          50.000
  20964204.372    -1429791.13843  -1098243.51842  20964205.776    20964205.818
        45.000          39.000
  22636965.546    10395595.68443   8099487.94342  22636967.431    22636966.081
        50.000          44.000
  21795824.877     9744647.24543   7593704.57742  21795826.779    21795826.070
        52.000          45.000
 02  7 11 16 16 20.0000000  0  8G23G22G21G18G 6G15G29G26
  21814079.215    11988189.59643   9332515.44542  21814080.548    21814079.952
        55.000          48.000
  23565032.631     9822255.19043   7654101.23942  23565031.754    23565036.150
        47.000          42.000
  23258950.745     7190270.88543   5609674.84042  23258951.862    23258953.702
        50.000          43.000
  20876160.505     8038961.86544   6268943.53542  20876161.631    20876158.247
        57.000          49.000
  20694907.480    11217094.60144   8736497.34842  20694908.449    20694907.442
        57.000          50.000
  20959853.903    -1452655.16343  -1116059.63842  20959854.872    20959854.494
        46.000          39.000
  22640178.365    10412479.20643   8112643.92342  22640181.119    22640180.045
        50.000          44.000
  21796776.915     9749649.20643   7597602.20042  21796778.391    21796778.688
        52.000          45.000
 02  7 11 16 16 40.0000000  0  8G23G22G21G18G 6G15G29G26
  21822572.382    12032822.65943   9367294.42542  21822573.976    21822573.744
        54.000          48.000
  23566034.262     9827516.71343   7658201.08842  23566033.409    23566036.148
        47.000          41.000
  23249501.759     7140618.55243   5570984.74942  23249503.886    23249505.791
        50.000          43.000
  20870326.171     8008303.07844   6245053.61042  20870327.638    20870324.118
        57.000          49.000
  20701047.387    11249361.13344   8761640.05042  20701048.928    20701047.940
        57.000          50.000
  20955514.371    -1475444.29943  -1133817.42042  20955515.548    20955517.771
        44.000          39.000
  22643435.644    10429595.95143   8125981.65042  22643437.369    22643435.826
        50.000          43.000
  21797784.122     9754934.67943   7601720.75542  21797784.680    21797784.786
        53.000          45.000
 02  7 11 16 17  0.0000000  0  8G23G22G21G18G 6G15G29G26
  21831085.822    12077558.05043   9402153.13242  21831086.756    21831085.969
        55.000          48.000
  23567077.377     9833006.76343   7662479.00842  23567076.763    23567079.713
        46.000          40.000
  23240073.632     7091079.98543   5532383.29342  23240077.155    23240079.317
        50.000          43.000
  20864529.033     7977837.15144   6221313.95642  20864530.126    20864526.598
        58.000          49.000
  20707228.727    11281843.37444   8786950.84242  20707230.164    20707228.732
        57.000          50.000
  20951194.211    -1498150.79843  -1151510.82842  20951196.729    20951195.735
        46.000          39.000
  22646739.139    10446953.33343   8139506.86442  22646740.979    22646738.782
        50.000          43.000
  21798844.776     9760511.37443   7606066.23142  21798846.298    21798845.267
        53.000          45.000
 02  7 11 16 17 20.0000000  0  8G23G22G21G18G 6G15G29G26
  21839617.010    12122391.40743   9437088.18442  21839618.375    21839617.063
        55.000          48.000
  23568165.274     9838721.53143   7666932.02842  23568163.916    23568166.185
        45.000          40.000
  23230668.941     7041651.89243   5493867.93442  23230670.509    23230671.249
        49.000          43.000
  20858767.081     7947560.55144   6197721.82942  20858768.668    20858765.407
        57.000          50.000
  20713449.913    11314537.50744   8812426.73542  20713451.910    20713450.218
        57.000          50.000
  20946890.815    -1520778.24943  -1169142.64542  20946891.360    20946889.983
        45.000          39.000
  22650086.879    10464547.65143   8153216.72742  22650088.962    22650088.147
        50.000          43.000
  21799960.185     9766375.78443   7610635.90042  21799962.340    21799961.988
        54.000          45.000
 02  7 11 16 17 40.0000000  0  9G23G22G21G18G 6G17G15G29G26
  21848167.661    12167323.37943   9472100.07442  21848168.932    21848167.315
        55.000          48.000
  23569296.557     9844661.77543   7671560.73142  23569296.295    23569297.813
        46.000          39.000
  23221283.554     6992335.82443   5455439.86142  23221285.916    23221286.524
        49.000          42.000
  20853042.169     7917474.55344   6174278.22442  20853043.543    20853041.148
        57.000          50.000
  20719712.276    11347444.51244   8838068.50242  20719713.692    20719712.355
        57.000          50.000
  20793025.459
        45.000
  20942598.691    -1543325.28843  -1186711.73842  20942599.862    20942599.406
        46.000          38.000
  22653479.980    10482379.98043   8167112.03742  22653481.504    22653480.826
        50.000          43.000
  21801130.830     9772529.10443   7615430.69242  21801133.143    21801132.648
        53.000          45.000
 02  7 11 16 18  0.0000000  0  9G23G22G21G18G 6G17G15G29G26
  21856736.538    12212355.00843   9507189.62542  21856738.217    21856737.019
        55.000          48.000
  23570469.424     9850829.00643   7676366.31042  23570469.333    23570470.742
        46.000          40.000
  23211920.514     6943133.57543   5417100.49842  23211921.343    23211922.326
        49.000          42.000
  20847353.261     7887581.10143   6150984.64542  20847354.577    20847353.024
        56.000          50.000
  20726015.208    11380565.89244   8863877.32042  20726016.844    20726015.549
        57.000          50.000
  20790744.524    -1339433.07953  -1041039.54452  20790745.933    20790747.274
        44.000          38.000
  20938323.380    -1565790.19143  -1204216.82642  20938325.401    20938322.424
        46.000          38.000
  22656918.550    10500451.65643   8181193.85942  22656921.629    22656920.229
        50.000          43.000
  21802356.439     9778972.91043   7620451.82742  21802358.385    21802358.759
        53.000          45.000
 02  7 11 16 18 20.0000000  0 10G23G 2G22G21G18G 6G17G15G29G26
  21865324.067    12257478.68443   9542350.90242  21865325.215    21865323.255
        55.000          48.000
  25162120.987    -2271440.28253  -1569541.48052  25162119.191    25162125.860
        42.000          34.000
  23571684.817     9857215.79243   7681342.98642  23571684.820    23571687.821
        46.000          40.000
  23202578.097     6894038.20543   5378844.40142  23202580.190    23202580.804
        49.000          41.000
  20841699.428     7857873.31243   6127835.73442  20841700.745    20841699.972
        55.000          50.000
  20732357.162    11413894.40743   8889847.55142  20732358.788    20732358.083
        56.000          50.000
  20788476.767    -1351346.82343  -1050323.02442  20788478.408    20788479.200
        43.000          38.000
  20934064.591    -1588179.75143  -1221663.23742  20934064.390    20934063.239
        45.000          38.000
  22660401.448    10518755.59643   8195456.64742  22660403.382    22660403.190
        50.000          44.000
  21803636.756     9785700.43243   7625694.05442  21803638.001    21803637.884
        53.000          45.000
 02  7 11 16 18 40.0000000  0 10G23G 2G22G21G18G 6G17G15G29G26
  21873929.836    12302701.56343   9577589.48142  21873930.883    21873929.821
        55.000          48.000
  25157361.253    -2296452.75843  -1589031.75442  25157363.730    25157362.686
        44.000          34.000
  23572944.923     9863829.66443   7686496.59342  23572943.886    23572946.282
        47.000          40.000
  23193257.651     6845057.83843   5340677.93342  23193259.751    23193260.663
        50.000          41.000
  20836082.324     7828358.85243   6104837.46242  20836083.910    20836083.854
        54.000          49.000
  20738739.749    11447437.67643   8915985.12542  20738741.573    20738741.028
        56.000          50.000
  20786224.747    -1363187.01143  -1059549.15742  20786225.853    20786225.507
        44.000          38.000
  20929820.648    -1610486.03643  -1239044.74642  20929821.843    20929819.121
        47.000          37.000
  22663929.705    10537299.37643   8209906.32742  22663931.623    22663932.782
        50.000          44.000
  21804972.761     9792719.34343   7631163.33142  21804973.956    21804974.246
        53.000          45.000
 02  7 11 16 19  0.0000000  0 10G23G 2G22G21G18G 6G17G15G29G26
  21882553.554    12348019.84743   9612902.41342  21882554.906    21882553.503
        55.000          48.000
  25152635.425    -2321281.09543  -1608378.54442  25152637.132    25152641.684
        42.000          34.000
  23574245.598     9870667.04943   7691824.37542  23574246.064    23574247.578
        47.000          41.000
  23183958.602     6796189.24243   5302598.56442  23183960.464    23183962.403
        50.000          42.000
  20830502.065     7799034.58443   6081987.36142  20830503.262    20830503.260
        54.000          49.000
  20745162.959    11481192.38043   8942287.45242  20745164.571    20745164.791
        55.000          50.000
  20783983.566    -1374956.36843  -1068720.04342  20783985.947    20783987.052
        43.000          38.000
  20925588.788    -1632712.05743  -1256363.75142  20925592.186    20925589.388
        45.000          38.000
  22667503.458    10556079.68643   8224540.31642  22667504.495    22667505.317
        49.000          44.000
  21806363.454     9800026.48343   7636857.20742  21806364.321    21806363.288
        53.000          44.000
 02  7 11 16 19 20.0000000  0 10G23G 2G22G21G18G 6G17G15G29G26
  21891195.169    12393431.29643   9648287.92942  21891196.278    21891195.709
        55.000          49.000
  25147944.965    -2345926.79043  -1627582.97642  25147948.626    25147946.175
        42.000          33.000
  23575589.207     9877726.12543   7697324.88942  23575588.810    23575589.726
        48.000          41.000
  23174680.519     6747431.11443   5264605.27642  23174682.451    23174684.445
        51.000          42.000
  20824958.828     7769898.95843   6059284.27642  20824959.916    20824958.492
        54.000          49.000
  20751625.925    11515156.50943   8968752.97542  20751627.640    20751627.851
        55.000          49.000
  20781755.876    -1386656.67043  -1077837.18042  20781758.927    20781758.601
        40.000          36.000
  20921373.708    -1654859.55843  -1273621.52742  20921375.782    20921376.924
        45.000          38.000
  22671123.694    10575094.41843   8239356.97442  22671123.668    22671125.091
        50.000          44.000
  21807808.928     9807620.21143   7642774.40242  21807809.533    21807808.132
        53.000          44.000
 02  7 11 16 19 40.0000000  0 10G23G 2G22G21G18G 6G17G15G29G26
  21899854.413    12438935.98843   9683746.11042  21899855.766    21899854.737
        55.000          49.000
  25143290.178    -2370388.91943  -1646644.44742  25143290.226    25143293.440
        41.000          33.000
  23576975.142     9885007.03943   7702998.26842  23576975.146    23576976.427
        48.000          41.000
  23165422.333     6698784.52843   5226698.90642  23165423.969    23165426.772
        50.000          42.000
  20819450.877     7740952.91043   6036728.90642  20819451.762    20819451.004
        54.000          49.000
  20758128.977    11549330.57443   8995382.08042  20758131.040    20758130.633
        55.000          49.000
  20779543.384    -1398287.01843  -1086899.77342  20779543.702    20779546.040
        41.000          37.000
  20917176.494    -1676927.55043  -1290817.39342  20917176.519    20917175.469
        46.000          39.000
  22674787.520    10594344.36743   8254356.92842  22674789.443    22674787.699
        51.000          44.000
  21809308.168     9815501.24243   7648915.48042  21809310.118    21809309.466
        52.000          44.000
 02  7 11 16 20  0.0000000  0 10G23G 2G22G21G18G 6G17G15G29G26
  21908532.182    12484537.98143   9719280.11442  21908533.631    21908532.438
        55.000          49.000
  25138672.146    -2394662.55743  -1665558.95942  25138673.102    25138673.836
        42.000          33.000
  23578402.735     9892514.21943   7708847.96242  23578403.714    23578403.447
        47.000          41.000
  23156187.341     6650254.49543   5188883.33842  23156188.861    23156191.332
        50.000          42.000
  20813979.825     7712200.99743   6014324.81542  20813981.096    20813979.372
        55.000          49.000
  20764673.472    11583719.02043   9022178.23242  20764674.803    20764674.192
        56.000          49.000
  20777346.302    -1409842.69643  -1095904.15942  20777345.370    20777346.067
        41.000          36.000
  20912992.903    -1698911.34143  -1307947.57142  20912993.803    20912991.728
        46.000          39.000
  22678496.257    10613833.76043   8269543.46742  22678498.276    22678495.474
        51.000          45.000
  21810863.629     9823674.32043   7655284.10442  21810866.650    21810863.807
        53.000          44.000
 02  7 11 16 20 20.0000000  0 10G23G 2G22G21G18G 6G17G15G29G26
  21917228.591    12530236.39243   9754889.24442  21917229.858    21917228.992
        55.000          49.000
  25134089.012
        43.000
  23579874.058     9900247.32243   7714873.71642  23579873.890    23579878.135
        47.000          41.000
  23146974.212     6601840.73243   5151158.39142  23146975.318    23146978.405
        49.000          42.000
  20808545.808     7683643.13143   5992071.92942  20808547.196    20808545.050
        56.000          50.000
  20771258.379    11618321.50643   9049141.16642  20771259.869    20771259.162
        56.000          49.000
  20775161.869    -1421323.55043  -1104850.30742  20775160.796    20775161.208
        40.000          36.000
  20908824.723    -1720810.86243  -1325012.15842  20908826.624    20908824.997
        46.000          39.000
  22682249.577    10633562.45943   8284916.49142  22682252.923    22682250.540
        51.000          44.000
  21812474.130     9832139.18443   7661880.08642  21812475.838    21812475.816
        52.000          45.000
 02  7 11 16 20 40.0000000  0 10G23G 2G22G21G18G 6G17G15G29G26
  21925940.497    12576024.49443   9790568.26642  21925942.575    21925941.992
        55.000          49.000
  25129540.311    -2442650.10343  -1702951.99642  25129538.105    25129544.401
        43.000          33.000
  23581387.388     9908199.60643   7721070.24142  23581385.510    23581391.671
        47.000          41.000
  23137782.810     6553537.22343   5113519.35242  23137783.622    23137784.062
        49.000          42.000
  20803147.489     7655273.19344   5969965.48942  20803148.713    20803146.257
        57.000          50.000
  20777882.748    11653131.63443   9076265.88942  20777884.406    20777882.839
        56.000          49.000
  20772989.022    -1432735.72943  -1113742.94542  20772990.635    20772989.954
        41.000          36.000
  20904673.110    -1742632.12743  -1342015.73942  20904672.886    20904673.299
        44.000          39.000
  22686048.168    10653523.99543   8300470.93742  22686050.857    22686047.319
        51.000          44.000
  21814139.216     9840889.63243   7668698.61542  21814140.545    21814140.666
        52.000          45.000
 02  7 11 16 21  0.0000000  0 10G23G 2G22G21G18G 6G17G15G29G26
  21934671.517    12621904.93043   9826319.22742  21934673.043    21934672.656
        55.000          48.000
  25125027.226    -2466366.55643  -1721432.40742  25125025.506    25125034.691
        44.000          33.000
  23582941.803     9916374.03943   7727439.88842  23582942.238    23582945.658
        46.000          40.000
  23128613.674     6505347.95643   5075969.31942  23128614.211    23128614.060
        49.000          42.000
  20797785.245     7627094.61244   5948008.16542  20797786.883    20797783.955
        57.000          50.000
  20784547.188    11688152.34543   9103554.69942  20784548.724    20784546.986
        56.000          49.000
  20770832.803    -1444075.79143  -1122579.38142  20770832.169    20770825.790
        41.000          35.000
  20900535.279    -1764372.03243  -1358955.92242  20900534.792    20900536.240
        44.000          39.000
  22689890.760    10673721.26443   8316209.07442  22689893.742    22689892.396
        51.000          44.000
  21815858.601     9849928.97043   7675742.23042  21815860.036    21815860.554
        51.000          45.000
 02  7 11 16 21 20.0000000  0 10G23G 2G22G21G18G 6G17G15G29G26
  21943419.546    12667876.27943   9862141.02842  21943420.735    21943420.702
        54.000          48.000
  25120549.875    -2489897.49043  -1739768.22142  25120548.282    25120552.896
        44.000          33.000
  23584540.140     9924769.58843   7733981.83042  23584540.386    23584541.452
        47.000          41.000
  23119464.541     6457272.00743   5038507.59042  23119465.253    23119467.277
        49.000          42.000
  20792459.275     7599106.55744   5926199.30942  20792460.763    20792457.909
        58.000          50.000
  20791251.737    11723382.58744   9131006.77642  20791252.775    20791251.339
        57.000          49.000
  20768686.517    -1455344.49443  -1131360.17842  20768686.311    20768687.091
        39.000          35.000
  20896413.643    -1786031.11443  -1375833.13042  20896414.671    20896413.240
        44.000          39.000
  22693778.007    10694153.42643   8332130.24142  22693781.101    22693778.912
        50.000          44.000
  21817633.505     9859256.34043   7683010.28142  21817634.182    21817636.065
        51.000          45.000
 02  7 11 16 21 40.0000000  0 10G23G 2G22G21G18G 6G17G15G29G26
  21952184.528    12713935.98543   9898031.68142  21952185.781    21952185.481
        54.000          48.000
  25116106.864    -2513244.70843  -1757960.90742  25116107.786    25116113.766
        44.000          33.000
  23586179.749     9933383.90843   7740694.24142  23586179.377    23586181.444
        47.000          41.000
  23110336.758     6409307.89243   5001133.02442  23110339.377    23110340.789
        50.000          43.000
  20787169.059     7571307.28044   5904537.56042  20787170.729    20787167.579
        58.000          50.000
  20797994.753    11758820.22543   9158620.46042  20797996.552    20797995.126
        56.000          49.000
  20766556.081    -1466543.49243  -1140086.68742  20766553.724    20766552.569
        38.000          34.000
  20892309.397    -1807611.21343  -1392648.80242  20892309.456    20892306.549
        44.000          39.000
  22697711.239    10714818.18843   8348232.63442  22697712.964    22697712.145
        50.000          44.000
  21819463.716     9868869.78843   7690501.25642  21819464.446    21819465.303
        51.000          45.000
 02  7 11 16 22  0.0000000  0 10G23G 2G22G21G18G 6G17G15G29G26
  21960966.793    12760088.11143   9933994.34342  21960967.810    21960967.678
        54.000          48.000
  25111700.579    -2536403.33543  -1776006.62842  25111699.462    25111706.806
        44.000          33.000
  23587862.756     9942221.19843   7747580.36642  23587862.118    23587864.295
        48.000          41.000
  23101231.367     6361460.19943   4963849.16342  23101233.120    23101236.477
        50.000          43.000
  20781915.768     7543701.39944   5883026.51142  20781917.476    20781913.743
        58.000          50.000
  20804778.454    11794469.65443   9186399.18942  20804780.135    20804779.322
        55.000          49.000
  20764440.159    -1477668.06053  -1148755.22952  20764439.047    20764433.324
        41.000          34.000
  20888218.348    -1829107.40343  -1409399.09042  20888217.113    20888215.327
        43.000          38.000
  22701688.218    10735720.16543   8364519.87842  22701690.205    22701689.699
        49.000          44.000
  21821350.310     9878773.86943   7698218.68942  21821351.240    21821350.154
        53.000          46.000
 02  7 11 16 22 20.0000000  0 10G23G 2G22G21G18G 6G17G15G29G26
  21969766.109    12806329.52043   9970026.58042  21969767.261    21969767.065
        53.000          47.000
  25107328.246    -2559375.83543  -1793907.31642  25107330.189    25107333.192
        45.000          34.000
  23589586.577     9951278.54043   7754637.97842  23589586.480    23589585.915
        48.000          41.000
  23092148.934     6313726.33243   4926653.97042  23092149.308    23092152.598
        50.000          43.000
  20776698.545     7516286.29144   5861664.11342  20776700.026    20776696.532
        58.000          50.000
  20811601.844    11830328.06643   9214340.76242  20811603.176    20811603.078
        55.000          49.000
  20762336.870    -1488720.74843  -1157367.69142  20762335.833    20762330.659
        40.000          35.000
  20884141.413    -1850522.20743  -1426085.94242  20884142.249    20884141.162
        42.000          38.000
  22705710.946    10756856.33643   8380989.59242  22705712.227    22705713.105
        50.000          44.000
  21823288.859     9888965.88043   7706160.49942  21823291.047    21823289.461
        53.000          46.000
 02  7 11 16 22 40.0000000  0 10G23G 2G22G21G18G 6G17G15G29G26
  21978581.753    12852653.97843  10006123.52742  21978582.370    21978581.934
        53.000          47.000
  25102993.043    -2582167.42943  -1811667.05042  25102990.289    25103000.950
        45.000          33.000
  23591350.744     9960549.95243   7761862.38442  23591350.031    23591350.309
        49.000          41.000
  23083085.719     6266101.20443   4889543.54342  23083086.622    23083090.019
        51.000          43.000
  20771516.915     7489056.54244   5840446.15342  20771518.366    20771514.877
        57.000          49.000
  20818464.237    11866389.58943   9242440.60242  20818465.704    20818465.094
        55.000          49.000
  20760245.639    -1499706.94743  -1165928.37642  20760244.469    20760244.547
        40.000          35.000
  20880082.236    -1871861.11243  -1442713.67142  20880083.383    20880080.956
        43.000          38.000
  22709776.845    10778220.87543   8397637.27342  22709778.731    22709778.907
        50.000          45.000
  21825282.401     9899440.30043   7714322.37042  21825284.229    21825282.672
        54.000          46.000
 02  7 11 16 23  0.0000000  0 10G23G 2G22G21G18G 6G17G15G29G26
  21987414.986    12899073.25743  10042294.35942  21987415.978    21987415.317
        53.000          47.000
  25098691.532    -2604765.58543  -1829276.04242  25098693.721    25098699.686
        45.000          33.000
  23593158.758     9970047.60243   7769263.07742  23593159.000    23593159.648
        49.000          42.000
  23074045.218     6218597.38843   4852527.61742  23074047.231    23074051.186
        51.000          44.000
  20766372.589     7462024.58644   5819382.31742  20766374.181    20766371.253
        57.000          49.000
  20825368.179    11902666.51743   9270708.28742  20825369.217    20825367.833
        56.000          49.000
  20758169.588    -1510613.98643  -1174427.40542  20758169.205    20758170.041
        40.000          35.000
  20876040.169    -1893111.38743  -1459272.30142  20876039.492    20876034.838
        45.000          38.000
  22713888.369    10799826.04643   8414472.45542  22713889.982    22713890.348
        51.000          45.000
  21827331.299     9910209.48743   7722713.93042  21827332.749    21827332.119
        54.000          46.000
 02  7 11 16 23 20.0000000  0 10G23G 2G22G21G18G 6G17G15G29G26
  21996265.044    12945577.20543  10078531.15942  21996266.222    21996264.395
        53.000          47.000
  25094427.246    -2627179.75943  -1846741.73442  25094429.213    25094430.412
        46.000          33.000
  23595006.967     9979761.44343   7776832.24742  23595005.525    23595006.675
        49.000          42.000
  23065027.352     6171205.32743   4815598.77942  23065027.853    23065030.899
        50.000          43.000
  20761264.206     7435180.88743   5798465.16842  20761265.485    20761263.626
        56.000          49.000
  20832310.302    11939148.87943   9299136.05142  20832311.860    20832310.302
        56.000          49.000
  20756108.297    -1521451.56043  -1182872.27942  20756108.944    20756109.442
        43.000          36.000
  20872008.712    -1914282.73243  -1475769.44742  20872010.788    20872009.763
        43.000          38.000
  22718044.229    10821661.95243   8431487.43042  22718045.934    22718045.338
        52.000          45.000
  21829434.412     9921263.66943   7731327.58442  21829436.502    21829435.149
        54.000          46.000
 02  7 11 16 23 40.0000000  0 10G23G 2G22G21G18G 6G17G15G29G26
  22005130.134    12992166.87243  10114834.75842  22005131.804    22005130.272
        54.000          47.000
  25090196.222                    -1864062.59642                  25090203.986
        45.000          33.000
  23596896.702     9989692.71843   7784570.83342  23596897.567    23596896.322
        48.000          41.000
  23056030.320     6123926.96743   4778758.55442  23056032.056    23056033.199
        50.000          43.000
  20756191.791     7408527.25643   5777696.11242  20756193.266    20756190.883
        55.000          48.000
  20839292.536    11975838.14744   9327725.03942  20839293.961    20839292.040
        57.000          49.000
  20754057.873    -1532217.60343  -1191261.41742  20754059.631    20754059.815
        43.000          36.000
  20867997.443    -1935373.20343  -1492203.56542  20867997.707    20867994.202
        44.000          38.000
  22722243.713    10843730.05843   8448683.35142  22722245.512    22722243.933
        52.000          45.000
  21831592.382     9932604.55643   7740164.63642  21831594.369    21831593.002
        54.000          46.000
 02  7 11 16 24  0.0000000  0 10G23G 2G22G21G18G 6G17G15G29G26
  22014013.012    13038844.61343  10151206.98442  22014014.405    22014012.763
        54.000          47.000
  25086003.031                    -1881236.15242                  25085998.567
        45.000          32.000
  23598828.751     9999844.23043   7792481.02542  23598829.242    23598829.959
        47.000          41.000
  23047056.571     6076765.54043   4742009.45842  23047057.809    23047058.714
        50.000          43.000
  20751156.682     7382066.64443   5757077.46742  20751158.272    20751156.010
        54.000          48.000
  20846313.943    12012737.05844   9356477.38442  20846315.772    20846314.090
        57.000          50.000
  20752023.647    -1542909.06043  -1199592.43042  20752023.869    20752024.820
        42.000          36.000
  20864002.499    -1956379.74543  -1508572.28642  20864001.223    20863998.167
        44.000          37.000
  22726487.343    10866033.11343   8466062.33942  22726489.437    22726489.052
        52.000          45.000
  21833805.390     9944235.03943   7749227.34642  21833807.170    21833805.328
        54.000          46.000
 02  7 11 16 24 20.0000000  0 10G23G 2G22G21G18G 6G17G15G29G26
  22022912.087    13085608.19543  10187646.10242  22022912.742    22022912.142
        54.000          47.000
  25081844.754
        45.000
  23600801.728    10010213.61243   7800561.00942  23600800.469    23600804.080
        46.000          41.000
  23038103.763     6029719.53443   4705350.28842  23038103.532    23038105.879
        50.000          43.000
  20746158.374     7355797.32543   5736607.88042  20746159.820    20746157.094
        55.000          49.000
  20853375.187    12049843.61144   9385391.52542  20853376.874    20853375.697
        57.000          50.000
  20750003.316    -1553527.48243  -1207866.54142  20750002.506    20750004.254
        40.000          36.000
  20860015.791    -1977303.83943  -1524876.75742  20860019.021    20860013.724
        43.000          36.000
  22730775.887    10888569.01543   8483622.77342  22730777.805    22730776.806
        51.000          44.000
  21836073.046     9956153.45043   7758514.42642  21836074.441    21836073.804
        53.000          46.000
 02  7 11 16 24 40.0000000  0 10G23G 2G22G21G18G 6G17G15G29G26
  22031826.806    13132454.35743  10224149.55842  22031827.579    22031826.743
        54.000          47.000
  25077722.197
        45.000
  23602814.354    10020798.06443   7808808.58542  23602813.573    23602817.163
        45.000          41.000
  23029171.793     5982786.28543   4668778.97642  23029172.549    23029174.783
        50.000          43.000
  20741195.161     7329716.81843   5716285.42642  20741196.773    20741194.142
        55.000          49.000
  20860475.302    12087154.91944   9414465.21642  20860477.045    20860475.855
        57.000          50.000
  20747997.132    -1564075.35343  -1216085.69942  20747996.158    20747997.119
        44.000          37.000
  20856046.172    -1998147.99153  -1541118.95452  20856048.079    20856047.846
        38.000          34.000
  22735107.812    10911335.04243   8501362.53542  22735110.077    22735108.194
        51.000          44.000
  21838395.896     9968356.88743   7768023.59742  21838397.767    21838397.023
        53.000          46.000
 02  7 11 16 25  0.0000000  0 10G23G 2G22G21G18G 6G17G15G29G26
  22040757.064    13179386.27243  10260719.84942  22040758.457    22040757.767
        54.000          48.000
  25073635.338
        44.000
  23604870.993    10031600.86443   7817226.31242  23604869.233    23604872.108
        45.000          40.000
  23020263.984     5935970.06243   4632298.84642  23020264.325    23020267.250
        50.000          43.000
  20736269.223     7303828.76943   5696112.91842  20736270.480    20736268.365
        56.000          50.000
  20867614.763    12124674.45443   9443701.17042  20867616.358    20867615.547
        56.000          49.000
  20746003.090    -1574548.86843  -1224246.90342  20746004.895    20746003.208
        43.000          36.000
  20852097.638    -2018908.42853  -1557295.96352  20852099.548    20852097.459
        39.000          34.000
  22739484.666    10934334.64143   8519284.29742  22739486.916    22739485.110
        51.000          44.000
  21840773.226     9980849.01043   7777757.72442  21840775.270    21840774.890
        53.000          46.000
 02  7 11 16 25 20.0000000  0 10G23G 2G22G21G18G 6G17G15G29G26
  22049704.621    13226404.47743  10297357.37142  22049705.527    22049705.013
        54.000          48.000
  25069584.097
        44.000
  23606967.863    10042622.66543   7825814.68242  23606967.537    23606969.970
        45.000          40.000
  23011377.506     5889272.08843   4595910.86342  23011378.647    23011381.907
        50.000          43.000
  20731378.789     7278134.29343   5676091.25242  20731380.612    20731379.156
        55.000          50.000
  20874793.645    12162402.99943   9473099.99442  20874795.667    20874794.662
        56.000          49.000
  20744026.121    -1584946.44943  -1232348.89042  20744025.675    20744023.997
        43.000          36.000
  20848165.279    -2039583.77643  -1573406.60442  20848163.211    20848168.164
        38.000          34.000
  22743905.642    10957568.59843   8537388.67542  22743907.776    22743906.734
        51.000          44.000
  21843206.073     9993630.91943   7787717.63942  21843207.297    21843207.025
        54.000          46.000
 02  7 11 16 25 40.0000000  0 10G23G 2G22G21G18G 6G17G15G29G26
  22058667.244    13273504.69043  10334058.79442  22058668.128    22058667.895
        54.000          48.000
  25065568.719
        42.000
  23609105.766    10053859.55743   7834570.65042  23609104.141    23609107.932
        44.000          39.000
  23002512.311     5842688.74643   4559612.20242  23002513.783    23002515.221
        50.000          43.000
  20726525.470     7252629.78943   5656217.61942  20726527.202    20726525.530
        56.000          50.000
  20882012.736    12200336.68143   9502658.65442  20882014.027    20882013.211
        55.000          49.000
  20742061.423    -1595271.90843  -1240394.68642  20742062.120    20742057.225
        44.000          35.000
  20844245.400    -2060177.64043  -1589453.69642  20844246.926    20844245.147
        42.000          36.000
  22748370.585    10981032.94943   8555672.56142  22748372.332    22748372.437
        51.000          44.000
  21845692.179    10006698.80943   7797900.39542  21845694.134    21845694.101
        53.000          46.000
 02  7 11 16 26  0.0000000  0 10G23G 2G22G21G18G 6G17G15G29G26
  22067645.999    13320687.36943  10370824.48542  22067646.978    22067646.480
        54.000          48.000
  25061589.994
        42.000
  23611285.651    10065312.05043   7843494.62442  23611283.083    23611286.304
        44.000          39.000
  22993669.724     5796221.23843   4523403.80942  22993671.039    22993673.570
        50.000          43.000
  20721709.556     7227316.50443   5636492.97942  20721710.511    20721708.816
        56.000          51.000
  20889271.509    12238476.27943   9532377.77542  20889272.486    20889270.926
        56.000          49.000
  20740109.166    -1605523.95443  -1248383.32742  20740112.097    20740109.426
        43.000          35.000
  20840342.872    -2080688.69143  -1605436.33042  20840341.793    20840344.219
        42.000          36.000
  22752880.117    11004728.52043   8574136.62342  22752882.418    22752881.553
        51.000          44.000
  21848234.165    10020053.62843   7808306.73542  21848235.776    21848235.101
        53.000          46.000
 02  7 11 16 26 20.0000000  0 10G23G 2G22G21G18G 6G17G15G29G26
  22076640.356    13367954.48743  10407655.96542  22076641.663    22076641.798
        54.000          48.000
  25057644.448
        40.000
  23613506.791    10076982.45943   7852588.39842  23613505.709    23613507.690
        43.000          39.000
  22984849.760     5749872.36043   4487287.85042  22984851.676    22984854.581
        50.000          43.000
  20716928.857     7202196.87743   5616919.24042  20716930.559    20716928.832
        56.000          51.000
  20896568.356    12276824.13243   9562259.16742  20896569.948    20896568.646
        56.000          49.000
  20738172.828    -1615699.76043  -1256312.57942  20738177.096    20738173.683
        41.000          35.000
  20836455.492    -2101114.24943  -1621352.32242  20836456.004    20836457.114
        42.000          36.000
  22757433.552    11028657.68743   8592782.71542  22757435.974    22757434.628
        51.000          44.000
  21850829.926    10033697.90343   7818938.61642  21850831.852    21850831.893
        53.000          46.000
 02  7 11 16 26 40.0000000  0 10G23G 2G22G21G18G 6G17G15G29G26
  22085650.766    13415302.31243  10444550.34642  22085651.681    22085651.376
        54.000          48.000
  25053736.826
        39.000
  23615765.942    10088867.13243   7861849.14342  23615765.893    23615770.467
        42.000          39.000
  22976051.013     5703639.31543   4451262.18342  22976053.664    22976057.064
        50.000          43.000
  20712184.868     7177267.78844   5597493.97342  20712186.295    20712184.568
        57.000          51.000
  20903904.192    12315376.80243   9592300.15642  20903905.960    20903905.218
        55.000          49.000
  20736251.511    -1625802.29843  -1264184.75442  20736253.653    20736253.533
        41.000          34.000
  20832584.613    -2121457.28143  -1637204.03442  20832585.469    20832583.522
        43.000          36.000
  22762030.400    11052817.01143   8611608.15442  22762031.488    22762031.128
        50.000          44.000
  21853480.331    10047628.36143   7829793.50542  21853483.263    21853482.989
        52.000          45.000
 02  7 11 16 27  0.0000000  0 10G23G 2G22G21G18G 6G17G15G29G26
  22094675.820    13462730.87943  10481507.63342  22094677.057    22094676.994
        54.000          49.000
  25049864.117
        37.000
  23618069.205    10100966.24343   7871276.96642  23618068.701    23618071.210
        42.000          38.000
  22967275.779     5657522.64443   4415327.18742  22967276.804    22967278.827
        50.000          43.000
  20707477.772     7152529.76344   5578217.58842  20707478.725    20707476.837
        57.000          51.000
  20911279.502    12354134.52743   9622500.93142  20911280.728    20911281.016
        55.000          49.000
  20734344.878    -1635831.03843  -1271999.39342  20734348.426    20734339.055
        43.000          34.000
  20828730.632    -2141717.14843  -1652990.93942  20828730.681    20828728.988
        44.000          36.000
  22766671.327    11077206.70243   8630613.07742  22766673.979    22766673.277
        49.000          44.000
  21856186.125    10061845.34843   7840871.66242  21856188.036    21856187.016
        53.000          45.000
 02  7 11 16 27 20.0000000  0 10G23G 2G22G21G18G 6G17G15G29G26
  22103717.124    13510241.68843  10518529.02142  22103717.964    22103718.068
        54.000          48.000
  25046025.567
        36.000
  23620414.424    10113281.47243   7880873.20142  23620412.903    23620415.995
        43.000          38.000
  22958522.886     5611524.52043   4379484.55742  22958522.492    22958525.573
        50.000          43.000
  20702806.913     7127984.92644   5559091.74242  20702808.189    20702806.049
        57.000          51.000
  20918693.901    12393099.05143   9652862.84842  20918695.647    20918695.190
        55.000          49.000
  20732450.983    -1645783.64743  -1279754.66642  20732451.615    20732446.461
        41.000          34.000
  20824889.722    -2161891.67443  -1668711.33242  20824892.026    20824889.885
        44.000          37.000
  22771356.828    11101828.43343   8649798.83242  22771358.310    22771359.212
        48.000          43.000
  21858947.004    10076350.86143   7852174.65542  21858949.057    21858947.242
        53.000          45.000
 02  7 11 16 27 40.0000000  0  9G23G22G21G18G 6G17G15G29G26
  22112771.918    13557824.68143  10555606.64642  22112772.391    22112772.359
        54.000          48.000
  23622797.464    10125802.88043   7890630.09442  23622797.472    23622797.277
        43.000          38.000
  22949790.258     5565635.64343   4343727.03942  22949791.289    22949795.965
        50.000          43.000
  20698171.253     7103623.99644   5540109.20742  20698172.386    20698170.411
        57.000          51.000
  20926147.041    12432260.63043   9683378.31242  20926148.334    20926148.216
        56.000          49.000
  20730570.537    -1655669.33643  -1287457.77142  20730570.534    20730564.667
        42.000          34.000
  20821064.193    -2181990.20143  -1684372.52742  20821065.483    20821066.178
        43.000          38.000
  22776083.687    11126672.50243   8669157.84542  22776086.076    22776085.129
        48.000          43.000
  21861760.197    10091135.27643   7863694.97942  21861762.150    21861761.351
        53.000          46.000
 02  7 11 16 28  0.0000000  0  9G23G22G21G18G 6G17G15G29G26
  22121843.298    13605492.01943  10592749.99142  22121844.014    22121842.726
        54.000          48.000
  23625221.108    10138542.84143   7900557.26342  23625220.706    23625221.733
        44.000          39.000
  22941081.375     5519869.08243   4308064.84042  22941082.342    22941086.836
        50.000          44.000
  20693572.889     7079459.57043   5521279.78442  20693574.042    20693572.126
        56.000          51.000
  20933639.399    12471631.74344   9714057.04642  20933640.905    20933639.797
        57.000          50.000
  20728703.053    -1665475.26943  -1295098.77742  20728701.369    20728697.419
        41.000          34.000
  20817258.896    -2201999.73843  -1699964.38942  20817258.178    20817259.851
        44.000          38.000
  22780855.476    11151751.54143   8688699.91242  22780857.653    22780859.591
        47.000          42.000
  21864628.031    10106211.19343   7875442.43242  21864630.280    21864630.638
        52.000          45.000
 02  7 11 16 28 20.0000000  0  9G23G22G21G18G 6G17G15G29G26
  22130927.595    13653233.31143  10629950.96042  22130928.752    22130927.730
        54.000          48.000
  23627685.993    10151491.11443   7910646.76742  23627686.391    23627686.595
        44.000          39.000
  22932394.784     5474215.45443   4272490.62742  22932395.190    22932398.960
        50.000          44.000
  20689009.665     7055481.88243   5502595.86742  20689011.014    20689009.427
        56.000          50.000
  20941169.401    12511202.34544   9744891.22342  20941171.019    20941170.380
        57.000          50.000
  20726851.250    -1675210.95343  -1302685.01742  20726849.770    20726845.147
        41.000          33.000
  20813464.649    -2221929.89843  -1715494.38542  20813465.369    20813468.179
        44.000          39.000
  22785671.198    11177055.28143   8708417.09442  22785672.451    22785673.775
        48.000          43.000
  21867551.749    10121568.80943   7887409.39542  21867552.891    21867552.842
        52.000          46.000
 02  7 11 16 28 40.0000000  0  9G23G22G21G18G 6G17G15G29G26
  22140027.358    13701054.12143  10667213.89042  22140028.487    22140027.589
        54.000          48.000
  23630190.343    10164653.48443   7920903.11642  23630190.624    23630191.186
        45.000          39.000
  22923730.206     5428680.76543   4237009.09342  22923729.912    22923733.262
        51.000          44.000
  20684483.707     7031697.23043   5484062.36942  20684484.978    20684482.763
        56.000          50.000
  20948738.760    12550978.28044   9775885.40642  20948740.537    20948739.542
        57.000          50.000
  20725012.881    -1684870.10843  -1310211.56842  20725013.919    20725009.899
        41.000          33.000
  20809688.129    -2241774.29143  -1730957.54842  20809689.951    20809690.964
        44.000          39.000
  22790530.787    11202589.69343   8728314.01442  22790533.364    22790531.821
        48.000          43.000
  21870528.873    10137214.08943   7899600.51942  21870530.717    21870529.968
        52.000          46.000
 02  7 11 16 29  0.0000000  0  9G23G22G21G18G 6G17G15G29G26
  22149142.246    13748950.81643  10704535.94742  22149143.715    22149142.363
        54.000          48.000
  23632736.394    10178026.52843   7931323.61142  23632736.259    23632736.395
        46.000          39.000
  22915086.819     5383262.21743   4201618.06942  22915087.495    22915090.591
        52.000          44.000
  20679993.482     7008102.40243   5465676.79442  20679995.247    20679992.422
        55.000          49.000
  20956346.379    12590956.19044   9807036.97242  20956347.842    20956346.962
        57.000          50.000
  20723190.175    -1694455.63843  -1317680.80242  20723191.471    20723186.479
        39.000          33.000
  20805928.631    -2261535.85543  -1746356.16642  20805929.355    20805928.609
        43.000          40.000
  22795434.417    11228351.48743   8748388.11342  22795435.762    22795435.521
        50.000          44.000
  21873559.909    10153143.66743   7912013.17742  21873562.217    21873561.057
        53.000          46.000
 02  7 11 16 29 20.0000000  0  9G23G22G21G18G 6G17G15G29G26
  22158271.665    13796924.86643  10741918.28442  22158273.085    22158271.186
        55.000          48.000
  23635320.104    10191611.61043   7941909.34042  23635321.883    23635322.061
        45.000          40.000
  22906465.715     5337962.11243   4166319.33942  22906468.034    22906470.525
        52.000          45.000
  20675540.306     6984699.44543   5447440.73742  20675541.613    20675538.849
        55.000          48.000
  20963992.312    12631137.78243   9838347.25842  20963993.918    20963993.454
        56.000          50.000
  20721379.245    -1703965.28643  -1325090.95542  20721380.573    20721375.911
        38.000          33.000
  20802185.488    -2281212.49243  -1761688.57542  20802185.576    20802184.690
        44.000          39.000
  22800380.123    11254342.17143   8768640.57242  22800381.830    22800381.845
        50.000          44.000
  21876645.844    10169359.47043   7924648.87042  21876647.754    21876646.940
        52.000          45.000
 02  7 11 16 29 40.0000000  0  8G23G22G21G18G 6G15G29G26
  22167413.326    13844964.28543  10779351.56442  22167414.733    22167413.053
        55.000          48.000
  23637942.882    10205397.10443   7952651.22442  23637943.605    23637944.687
        45.000          40.000
  22897865.732     5292769.17743   4131104.11942  22897867.860    22897869.561
        51.000          44.000
  20671121.122     6961477.06543   5429345.39142  20671122.803    20671119.649
        55.000          48.000
  20971674.860    12671511.28643   9869807.09842  20971676.159    20971676.789
        55.000          49.000
  20798451.621    -2300815.18343  -1776963.37442  20798453.214    20798453.968
        40.000          38.000
  22805366.969    11280550.10843   8789062.32042  22805368.554    22805367.976
        51.000          44.000
  21879782.990    10185849.99343   7937498.63742  21879784.690    21879785.159
        52.000          45.000
 02  7 11 16 30  0.0000000  0  8G23G22G21G18G 6G15G29G26
  22176571.620    13893089.68943  10816851.82742  22176572.549    22176571.318
        55.000          48.000
  23640609.654    10219403.62443   7963565.32842  23640609.193    23640610.512
        45.000          40.000
  22889290.530     5247704.31343   4095988.70742  22889291.107    22889293.026
        51.000          44.000
  20666740.682     6938456.32543   5411407.18242  20666742.097    20666739.162
        55.000          48.000
  20979397.587    12712097.56743   9901432.73242  20979399.565    20979399.375
        55.000          49.000
  20794741.235    -2320322.90943  -1792164.13142  20794742.240    20794741.980
        44.000          37.000
  22810400.278    11306996.18743   8809669.62242  22810401.917    22810400.343
        51.000          44.000
  21882977.433    10202636.14343   7950578.74442  21882979.714    21882978.533
        52.000          45.000
 02  7 11 16 30 20.0000000  0  8G23G22G21G18G 6G15G29G26
  22185743.963    13941290.79943  10854411.08542  22185745.361    22185743.683
        55.000          48.000
  23643314.761    10233621.00343   7974643.75542  23643315.503    23643316.304
        45.000          40.000
  22880736.113     5202758.46543   4060966.03042  22880737.551    22880739.179
        50.000          43.000
  20662396.974     6915627.62543   5393618.61142  20662398.027    20662394.854
        55.000          48.000
  20987159.810    12752886.66943   9933216.40842  20987160.994    20987160.707
        55.000          48.000
  20791047.036    -2339745.00943  -1807298.21242  20791046.320    20791046.197
        40.000          36.000
  22815475.971    11333670.29743   8830454.62542  22815477.197    22815476.739
        51.000          44.000
  21886226.495    10219708.16843   7963881.63442  21886228.409    21886227.472
        52.000          45.000
 02  7 11 16 30 40.0000000  0  8G23G22G21G18G 6G15G29G26
  22194929.600    13989562.07143  10892025.02042  22194931.060    22194929.499
        55.000          48.000
  23646058.988    10248043.83943   7985882.28942  23646058.883    23646061.398
        45.000          40.000
  22872204.307     5157926.39043   4026031.99242  22872207.150    22872207.844
        49.000          42.000
  20658087.703     6892985.87343   5375975.73042  20658089.184    20658086.425
        55.000          49.000
  20994959.336    12793873.27943   9965153.96942  20994960.398    20994960.454
        55.000          48.000
  20787364.646    -2359086.36353  -1822369.39152  20787364.950    20787365.154
        39.000          36.000
  22820593.867    11360567.13743   8851413.17142  22820596.105    22820594.620
        50.000          44.000
  21889527.945    10237060.85943   7977403.20042  21889529.690    21889529.431
        52.000          45.000
 02  7 11 16 31  0.0000000  0  8G23G22G21G18G 6G15G29G26
  22204131.166    14037916.34643  10929703.63342  22204132.021    22204131.294
        54.000          48.000
  23648844.929    10262685.15043   7997291.05342  23648844.262    23648847.579
        45.000          40.000
  22863696.895     5113221.92443   3991197.38542  22863698.233    22863701.254
        48.000          42.000
  20653817.083     6870544.51643   5358488.97742  20653818.461    20653816.491
        55.000          49.000
  21002799.148    12835070.40743   9997255.55742  21002800.522    21002799.504
        55.000          48.000
  20783705.345    -2378333.41443  -1837367.07342  20783702.369    20783701.609
        38.000          36.000
  22825756.483    11387699.86843   8872555.53742  22825758.332    22825758.539
        50.000          44.000
  21892886.079    10254707.33443   7991153.69642  21892887.157    21892888.124
        52.000          45.000
 02  7 11 16 31 20.0000000  0  8G23G22G21G18G 6G15G29G26
  22213344.665    14086336.20243  10967433.35042  22213346.397    22213345.585
        54.000          48.000
  23651670.379    10277527.67743   8008856.59742  23651669.229    23651672.365
        46.000          41.000
  22855213.002     5068628.52343   3956449.32042  22855212.841    22855215.402
        49.000          42.000
  20649581.612     6848286.67543   5341145.21442  20649582.981    20649581.155
        55.000          49.000
  21010675.445    12876460.97643  10029507.87742  21010676.697    21010675.516
        55.000          48.000
  20780057.345    -2397502.77243  -1852304.22342  20780057.014    20780054.396
        40.000          36.000
  22830961.495    11415051.37843   8893868.37342  22830963.088    22830963.508
        50.000          44.000
  21896295.946    10272630.66343   8005119.91442  21896296.905    21896298.755
        51.000          45.000
 02  7 11 16 31 40.0000000  0  8G23G22G21G18G 6G15G29G26
  22222573.056    14134830.68743  11005221.20542  22222574.741    22222573.239
        54.000          48.000
  23654535.366    10292580.38343   8020585.93242  23654534.700    23654536.609
        47.000          41.000
  22846749.496     5024155.76743   3921795.28542  22846749.797    22846751.173
        50.000          43.000
  20645383.470     6826222.02443   5323951.99142  20645384.469    20645382.772
        56.000          50.000
  21018590.036    12918054.28143  10061918.17042  21018591.163    21018591.439
        55.000          48.000
  20776425.100    -2416584.68543  -1867173.26942  20776426.892    20776423.529
        40.000          37.000
  22836209.959    11442630.82043   8915358.83042  22836211.396    22836211.725
        50.000          44.000
  21899761.332    10290840.20143   8019309.14842  21899762.385    21899763.798
        50.000          44.000
 02  7 11 16 32  0.0000000  0  8G23G22G21G18G 6G15G29G26
  22231814.174    14183394.10243  11043062.79142  22231815.329    22231815.152
        54.000          48.000
  23657437.121    10307837.95943   8032474.87842  23657437.464    23657440.736
        47.000          41.000
  22838309.655     4979798.92243   3887231.57642  22838309.720    22838311.404
        51.000          43.000
  20641220.154     6804345.47043   5306905.34642  20641221.546    20641219.695
        56.000          50.000
  21026542.809    12959844.96043  10094482.27642  21026544.305    21026544.685
        55.000          48.000
  20772813.319    -2435583.98243  -1881977.86242  20772813.924    20772808.205
        40.000          37.000
  22841500.816    11470432.97543   8937022.82142  22841502.569    22841502.759
        50.000          44.000
  21903279.468    10309330.83843   8033717.42342  21903280.471    21903282.484
        50.000          44.000
 02  7 11 16 32 20.0000000  0  8G23G22G21G18G 6G15G29G26
  22241069.877    14232032.49543  11080962.80342  22241071.118    22241071.157
        54.000          48.000
  23660381.530    10323306.26143   8044528.04042  23660381.219    23660384.570
        47.000          41.000
  22829892.386     4935564.29043   3852763.09542  22829892.693    22829894.636
        51.000          44.000
  20637094.736     6782663.41443   5290010.24942  20637095.935    20637093.931
        56.000          50.000
  21034534.003    13001839.05443  10127204.89542  21034535.289    21034536.239
        55.000          49.000
  20769215.256    -2454493.97143  -1896712.91042  20769215.276    20769207.207
        39.000          36.000
  22846834.953    11498463.72243   8958864.94942  22846836.405    22846836.200
        50.000          44.000
  21906853.644    10328108.64243   8048349.47642  21906855.462    21906855.412
        50.000          44.000
 02  7 11 16 32 40.0000000  0  8G23G22G21G18G 6G15G29G26
  22250339.008    14280739.91843  11118916.60142  22250340.248    22250339.898
        54.000          48.000
  23663364.978    10338979.54243   8056740.91642  23663364.882    23663366.600
        47.000          41.000
  22821495.780     4891446.76043   3818385.85942  22821496.145    22821498.741
        51.000          44.000
  20633003.883     6761170.66143   5273262.66142  20633005.529    20633004.076
        56.000          50.000
  21042562.988    13044031.01243  10160081.70042  21042564.161    21042565.307
        55.000          49.000
  20765632.047    -2473319.72443  -1911382.35242  20765634.892    20765628.473
        40.000          36.000
  22852211.332    11526717.58643   8980880.93542  22852213.216    22852212.154
        50.000          44.000
  21910482.009    10347168.22643   8063201.10742  21910482.876    21910482.849
        52.000          44.000
 02  7 11 16 33  0.0000000  0  8G23G22G21G18G 6G15G29G26
  22259620.094    14329515.09743  11156923.19842  22259621.746    22259621.663
        54.000          48.000
  23666386.385    10354856.71143   8069112.66742  23666385.367    23666389.657
        47.000          41.000
  22813123.220     4847445.69243   3784099.36542  22813124.020    22813126.169
        51.000          44.000
  20628949.710     6739866.24743   5256661.83342  20628951.151    20628950.120
        55.000          50.000
  21050629.903    13086419.72343  10193111.81842  21050631.147    21050631.671
        56.000          50.000
  20762065.016    -2492062.05843  -1925986.75142  20762068.153    20762062.774
        40.000          35.000
  22857629.930    11555193.33343   9003069.81642  22857632.546    22857631.519
        51.000          44.000
  21914162.937    10366508.42343   8078271.39342  21914163.989    21914163.679
        53.000          45.000
 02  7 11 16 33 20.0000000  0  9G23G 2G22G21G18G 6G15G29G26
  22268914.745    14378357.51243  11194982.18742  22268915.996    22268915.718
        54.000          48.000
  24983137.723
        43.000
  23669444.922    10370937.23843   8081642.88242  23669445.590    23669448.367
        46.000          41.000
  22804771.879     4803561.35243   3749903.83442  22804772.909    22804774.618
        51.000          44.000
  20624931.541     6718750.22143   5240207.79642  20624932.901    20624931.604
        55.000          50.000
  21058733.700    13129004.87243  10226295.00642  21058735.073    21058735.326
        56.000          50.000
  20758507.168    -2510720.45453  -1940525.88152  20758506.911    20758511.066
        38.000          35.000
  22863091.578    11583890.61043   9025431.31442  22863092.965    22863092.399
        51.000          44.000
  21917896.035    10386129.27543   8093560.37242  21917898.054    21917897.783
        53.000          46.000
 02  7 11 16 33 40.0000000  0  9G23G 2G22G21G18G 6G15G29G26
  22278222.480    14427270.15243  11233095.89842  22278223.727    22278223.262
        54.000          48.000
  24979987.722
        44.000
  23672545.358    10387224.09943   8094333.86642  23672544.393    23672546.216
        46.000          41.000
  22796444.282     4759797.43343   3715802.11642  22796445.425    22796448.179
        51.000          44.000
  20620950.211     6697826.01943   5223903.23742  20620951.126    20620949.666
        56.000          50.000
  21066875.541    13171789.62943  10259633.73042  21066876.973    21066876.988
        56.000          50.000
  20754974.574    -2529291.52953  -1954996.91552  20754974.818    20754974.961
        40.000          36.000
  22868594.499    11612812.85843   9047968.11942  22868595.937    22868596.339
        50.000          43.000
  21921683.630    10406033.96843   8109070.50942  21921685.339    21921685.799
        53.000          46.000
 02  7 11 16 34  0.0000000  0  9G23G 2G22G21G18G 6G15G29G26
  22287542.765    14476247.93343  11271260.36242  22287543.911    22287543.174
        54.000          48.000
  24976871.456
        45.000
  23675682.459    10403712.45943   8107181.89042  23675681.148    23675684.520
        46.000          40.000
  22788138.736     4716149.74843   3681790.98342  22788139.445    22788141.508
        51.000          44.000
  20617003.936     6677089.30943   5207744.77842  20617005.051    20617003.616
        56.000          50.000
  21075054.275    13214769.05043  10293124.13642  21075055.966    21075055.965
        56.000          50.000
  20751456.682    -2547779.42243  -1969403.05242  20751456.805    20751458.123
        43.000          37.000
  22874140.046    11641955.10943   9070676.34842  22874141.628    22874142.121
        49.000          43.000
  21925524.143    10426217.82243   8124798.17042  21925526.642    21925526.441
        53.000          46.000
 02  7 11 16 34 20.0000000  0  9G23G 2G22G21G18G 6G15G29G26
  22296876.198    14525296.12143  11309479.69042  22296877.538    22296877.445
        54.000          48.000
  24973793.200
        45.000
  23678859.156    10420407.57343   8120190.99842  23678858.375    23678861.816
        46.000          40.000
  22779856.148     4672624.24143   3647875.05742  22779857.008    22779859.300
        51.000          45.000
  20613094.585     6656545.73243   5191736.81442  20613095.601    20613094.436
        56.000          51.000
  21083270.707    13257948.65943  10326770.53842  21083272.680    21083272.681
        56.000          50.000
  20747956.885    -2566178.29543  -1983739.81342  20747957.046    20747957.690
        45.000          38.000
  22879728.169    11671322.76843   9093560.21242  22879728.745    22879730.755
        49.000          43.000
  21929419.474    10446686.30543   8140747.62742  21929420.576    21929421.268
        53.000          46.000
 02  7 11 16 34 40.0000000  0  9G23G 2G22G21G18G 6G15G29G26
  22306223.306    14574412.95143  11347752.50442  22306224.851    22306223.534
        54.000          47.000
  24970752.001    -1485326.40953  -1121310.25852  24970753.603    24970754.577
        46.000          37.000
  23682074.586    10437307.71543   8133359.87842  23682074.521    23682079.843
        45.000          40.000
  22771596.422     4629219.53343   3614053.26942  22771598.082    22771600.009
        51.000          45.000
  20609221.952     6636194.01443   5175878.35642  20609223.176    20609221.621
        56.000          51.000
  21091525.728    13301326.89643  10360571.71142  21091526.996    21091526.610
        56.000          49.000
  20744473.108    -2584489.08743  -1998007.95542  20744474.617    20744473.784
        45.000          37.000
  22885359.565    11700914.24643   9116618.47842  22885360.756    22885361.558
        49.000          43.000
  21933367.364    10467438.01043   8156917.77242  21933370.065    21933370.491
        52.000          46.000
 02  7 11 16 35  0.0000000  0  9G23G 2G22G21G18G 6G15G29G26
  22315581.651    14623594.38343  11386075.65142  22315583.651    22315582.797
        54.000          48.000
  24967746.073    -1501122.77743  -1133619.16142  24967746.772    24967751.157
        46.000          37.000
  23685329.607    10454408.99243   8146685.49142  23685329.951    23685333.611
        45.000          40.000
  22763359.027     4585932.65443   3580323.27942  22763360.952    22763362.065
        52.000          44.000
  20605384.863     6616030.68343   5160166.67642  20605386.280    20605384.482
        56.000          51.000
  21099816.950    13344900.01743  10394524.73542  21099818.459    21099818.252
        55.000          48.000
  20741002.821    -2602714.86943  -2012209.87442  20741005.681    20741004.700
        44.000          37.000
  22891032.227    11730725.72243   9139848.17542  22891033.048    22891034.679
        49.000          43.000
  21937368.912    10488469.32043   8173305.78142  21937371.042    21937371.671
        52.000          46.000
 02  7 11 16 35 20.0000000  0  9G23G 2G22G21G18G 6G15G29G26
  22324953.857    14672843.53143  11424451.57542  22324955.102    22324954.638
        54.000          47.000
  24964776.973    -1516726.61343  -1145778.05842  24964778.658    24964780.824
        46.000          37.000
  23688622.388    10471714.45343   8160170.20542  23688621.383    23688626.474
        45.000          40.000
  22755143.616     4542767.32243   3546688.00642  22755145.307    22755147.706
        51.000          44.000
  20601584.751     6596059.30443   5144604.57942  20601585.668    20601584.217
        56.000          51.000
  21108146.800    13388671.25143  10428632.12842  21108148.009    21108146.803
        56.000          48.000
  20737551.161    -2620851.92943  -2026342.65942  20737553.409    20737554.407
        46.000          37.000
  22896747.285    11760760.45143   9163251.84042  22896749.862    22896751.281
        49.000          44.000
  21941425.809    10509783.51243   8189914.23142  21941426.837    21941427.908
        52.000          45.000
 02  7 11 16 35 40.0000000  0  9G23G 2G22G21G18G 6G15G29G26
  22334337.530    14722155.74243  11462876.64142  22334338.773    22334338.622
        54.000          47.000
  24961843.905    -1532142.03343  -1157790.13742  24961844.414    24961847.584
        47.000          37.000
  23691953.931    10489219.55943   8173810.48542  23691954.382    23691956.517
        44.000          39.000
  22746950.946     4499719.43843   3513144.25142  22746951.211    22746955.387
        50.000          44.000
  20597819.845     6576275.75543   5129188.84042  20597821.082    20597819.267
        56.000          51.000
  21116512.505    13432636.15443  10462890.41642  21116514.165    21116512.388
        55.000          47.000
  20734116.669    -2638904.27443  -2040409.43542  20734117.592    20734116.841
        47.000          39.000
  22902504.387    11791013.98843   9186826.00942  22902506.295    22902508.175
        48.000          44.000
  21945535.500    10531376.07743   8206739.59942  21945537.471    21945536.003
        52.000          45.000
 02  7 11 16 36  0.0000000  0  9G23G 2G22G21G18G 6G15G29G26
  22343733.556    14771531.82843  11501351.47242  22343734.488    22343735.035
        53.000          47.000
  24958946.358    -1547367.60043  -1169654.26542  24958948.235    24958950.670
        47.000          38.000
  23695324.149    10506925.09043   8187606.93442  23695323.488    23695323.607
        45.000          39.000
  22738782.550     4456790.44443   3479693.13442  22738783.570    22738787.298
        50.000          44.000
  20594091.325     6556681.40743   5113920.53142  20594092.649    20594090.518
        56.000          51.000
  21124915.969    13476795.59843  10497300.28642  21124917.471    21124916.442
        55.000          47.000
  20730697.893    -2656870.30843  -2054408.91142  20730699.908    20730697.942
        47.000          39.000
  22908303.730    11821487.15543   9210571.30242  22908305.035    22908307.624
        49.000          44.000
  21949697.289    10553248.21943   8223782.82742  21949699.336    21949697.053
        52.000          45.000
 02  7 11 16 36 20.0000000  0  9G23G 2G22G21G18G 6G15G29G26
  22353141.722    14820974.72543  11539878.37342  22353143.059    22353143.870
        53.000          47.000
  24956085.073    -1562399.61743  -1181367.57842  24956087.140    24956088.328
        46.000          37.000
  23698731.895    10524834.06743   8201561.91742  23698732.481    23698732.498
        44.000          39.000
  22730637.387     4413983.86043   3446337.40442  22730637.880    22730640.979
        51.000          44.000
  20590399.458     6537279.54743   5098802.21842  20590400.634    20590398.267
        56.000          51.000
  21133356.928    13521152.79043  10531864.25842  21133357.958    21133358.063
        54.000          47.000
  20727295.891    -2674746.37043  -2068338.30942  20727297.720    20727295.990
        47.000          40.000
  22914144.877    11852183.10643   9234490.19242  22914146.632    22914148.868
        49.000          43.000
  21953912.791    10575403.09043   8241046.36842  21953915.296    21953912.735
        52.000          45.000
 02  7 11 16 36 40.0000000  0  9G23G 2G22G21G18G 6G15G29G26
  22362563.082    14870481.95543  11578455.39842  22362563.910    22362564.698
        53.000          47.000
  24953260.458    -1577240.06743  -1192931.61442  24953261.631    24953265.731
        45.000          37.000
  23702177.540    10542944.14043   8215673.59642  23702177.421    23702180.240
        44.000          38.000
  22722515.406     4371297.96043   3413075.73742  22722516.740    22722515.668
        52.000          44.000
  20586743.192     6518068.09143   5083832.27142  20586744.479    20586742.611
        56.000          50.000
  21141834.362    13565705.38343  10566580.50042  21141835.775    21141836.902
        54.000          47.000
  20723913.021    -2692534.20443  -2082198.94842  20723914.047    20723912.435
        48.000          40.000
  22920029.460    11883099.70943   9258581.02542  22920030.614    22920030.735
        49.000          43.000
  21958182.177    10597838.59543   8258528.57842  21958183.729    21958183.530
        52.000          45.000
 02  7 11 16 37  0.0000000  0  9G23G 2G22G21G18G 6G15G29G26
  22371995.103    14920050.04443  11617079.85242  22371996.116    22371997.004
        53.000          47.000
  24950474.402    -1591891.76843  -1204348.59642  24950474.408    24950478.928
        46.000          37.000
  23705660.404    10561251.66243   8229939.14442  23705661.867    23705664.388
        43.000          38.000
  22714415.237     4328729.98143   3379905.96742  22714416.384    22714417.479
        53.000          44.000
  20583122.841     6499044.33043   5069008.57642  20583124.375    20583122.762
        55.000          50.000
  21150348.514    13610450.02243  10601446.39842  21150350.040    21150351.920
        54.000          48.000
  20720543.834    -2710236.52943  -2095992.97142  20720546.349    20720544.257
        48.000          40.000
  22925952.685    11914233.54543   9282841.13242  22925954.224    22925956.337
        48.000          43.000
  21962504.913    10620551.49643   8276226.93242  21962506.645    21962505.848
        52.000          45.000
 02  7 11 16 37 20.0000000  0  9G23G 2G22G21G18G 6G15G29G26
  22381440.465    14969683.24743  11655755.04342  22381441.896    22381442.277
        53.000          47.000
  24947722.328    -1606349.94043  -1215614.77742  24947723.737    24947726.426
        46.000          37.000
  23709183.722    10579761.07443   8244362.00642  23709184.040    23709186.868
        44.000          38.000
  22706338.109     4286284.75343   3346831.83342  22706340.139    22706340.661
        53.000          45.000
  20579539.989     6480212.83143   5054334.69042  20579540.838    20579539.448
        55.000          50.000
  21158901.637    13655391.18543  10636465.43942  21158902.471    21158904.090
        54.000          48.000
  20717192.484    -2727848.32343  -2109716.43942  20717194.154    20717192.333
        48.000          40.000
  22931919.711    11945588.91943   9307273.87442  22931921.842    22931921.930
        48.000          42.000
  21966879.943    10643546.15743   8294144.82742  21966882.354    21966882.351
        52.000          46.000
 02  7 11 16 37 40.0000000  0  9G23G 2G22G21G18G 6G15G29G26
  22390896.287    15019373.15443  11694474.41942  22390897.227    22390897.522
        53.000          47.000
  24945006.225    -1620622.34443  -1226736.21142  24945008.147    24945010.334
        45.000          36.000
  23712743.211    10598463.97243   8258935.62842  23712742.861    23712745.319
        45.000          38.000
  22698282.029     4243954.54343   3313847.32542  22698283.836    22698284.753
        53.000          45.000
  20575991.311     6461565.61143   5039804.40142  20575992.583    20575990.781
        55.000          50.000
  21167489.762    13700520.62243  10671631.18942  21167490.668    21167492.221
        55.000          49.000
  20713855.935    -2745377.25443  -2123375.35442  20713857.464    20713857.815
        46.000          40.000
  22937927.262    11977157.69243   9331872.88342  22937928.496    22937928.500
        49.000          42.000
  21971307.665    10666814.50743   8312275.99442  21971310.318    21971309.672
        52.000          46.000
 02  7 11 16 38  0.0000000  0  9G23G 2G22G21G18G 6G15G29G26
  22400363.556    15069126.66043  11733243.35342  22400365.336    22400365.776
        53.000          47.000
  24942326.661    -1634701.38943  -1237706.96242  24942326.829    24942333.353
        45.000          37.000
  23716339.714    10617367.32043   8273665.44342  23716340.584    23716341.352
        45.000          39.000
  22690250.363     4201747.33543   3280958.64542  22690251.623    22690253.547
        52.000          45.000
  20572479.268     6443110.20343   5025423.57542  20572480.831    20572478.593
        55.000          50.000
  21176115.052    13745845.43043  10706949.16842  21176116.489    21176117.208
        56.000          49.000
  20710536.956    -2762815.69043  -2136963.71842  20710537.185    20710540.514
        45.000          39.000
  22943976.994    12008946.73943   9356643.54942  22943978.507    22943978.258
        49.000          42.000
  21975788.427    10690363.76643   8330626.03742  21975790.859    21975791.301
        51.000          46.000
 02  7 11 16 38 20.0000000  0  9G23G 2G22G21G18G 6G15G29G26
  22409844.189    15118942.47243  11772060.83242  22409844.987    22409844.938
        53.000          47.000
  24939684.833    -1648587.90043  -1248527.69042  24939683.429    24939686.469
        46.000          36.000
  23719975.596    10636469.65343   8288550.29642  23719974.827    23719976.236
        45.000          39.000
  22682241.776     4159662.15943   3248165.04442  22682242.995    22682245.436
        52.000          45.000
  20569003.701     6424845.77043   5011191.55842  20569005.054    20569003.093
        55.000          50.000
  21184777.424    13791364.46043  10742418.48642  21184779.172    21184779.050
        56.000          50.000
  20707237.480    -2780164.26743  -2150482.09742  20707238.040    20707239.168
        44.000          39.000
  22950067.819    12040955.06343   9381585.07942  22950070.101    22950069.052
        50.000          42.000
  21980324.097    10714192.77943   8349194.07442  21980325.629    21980325.801
        52.000          45.000
 02  7 11 16 38 40.0000000  0  9G23G 2G22G21G18G 6G15G29G26
  22419334.611    15168815.11843  11810922.59742  22419335.734    22419335.011
        53.000          47.000
  24937078.485    -1662286.85143  -1259202.29242  24937080.179    24937083.477
        46.000          37.000
  23723648.350    10655765.57443   8303586.00342  23723646.970    23723649.090
        46.000          39.000
  22674254.927     4117693.93643   3215462.57542  22674256.825    22674258.336
        52.000          45.000
  20565563.244     6406767.20543   4997104.36942  20565564.324    20565562.857
        55.000          49.000
  21193476.428    13837072.28144  10778034.90742  21193477.886    21193477.283
        57.000          50.000
  20703949.935    -2797427.76543  -2163934.15642  20703950.948    20703953.583
        44.000          39.000
  22956199.707    12073177.21143   9406693.22042  22956201.503    22956200.689
        50.000          42.000
  21984910.816    10738296.20543   8367975.95642  21984912.765    21984912.390
        52.000          45.000
 02  7 11 16 39  0.0000000  0  9G23G 2G22G21G18G 6G15G29G26
  22428836.277    15218748.70243  11849831.85042  22428837.393    22428836.761
        53.000          47.000
  24934507.926    -1675793.53643  -1269727.04342  24934508.273    24934509.023
        46.000          37.000
  23727356.345    10675259.15043   8318775.73642  23727356.726    23727358.729
        46.000          40.000
  22666292.211     4075847.63743   3182855.11042  22666293.638    22666296.381
        52.000          46.000
  20562159.071     6388879.12943   4983165.61542  20562160.615    20562158.956
        55.000          49.000
  21202210.658    13882973.16744  10813801.76742  21202212.755    21202212.025
        57.000          50.000
  20700685.366    -2814601.16443  -2177316.02442  20700684.692    20700685.905
        44.000          38.000
  22962373.074    12105617.44043   9431971.30042  22962374.525    22962373.676
        50.000          42.000
  21989550.564    10762678.40443   8386975.06542  21989552.313    21989551.665
        52.000          45.000
 02  7 11 16 39 20.0000000  0  9G23G 2G22G21G18G 6G15G29G26
  22438350.262    15268742.63243  11888788.12242  22438350.849    22438351.499
        52.000          47.000
  24931974.474    -1689107.90343  -1280101.93342  24931976.898    24931977.150
        45.000          37.000
  23731103.289    10694949.81343   8334119.02342  23731102.936    23731106.882
        46.000          39.000
  22658351.884     4034123.13943   3150342.56042  22658353.339    22658356.495
        52.000          46.000
  20558791.635     6371181.33143   4969375.12942  20558792.658    20558791.282
        55.000          49.000
  21210981.555    13929066.64643  10849718.69942  21210983.233    21210983.137
        56.000          49.000
  20697434.404    -2831684.37943  -2190627.61542  20697434.988    20697434.942
        44.000          38.000
  22968586.986    12138275.18043   9457418.86142  22968589.285    22968589.088
        50.000          43.000
  21994242.635    10787338.99443   8406191.09742  21994244.723    21994244.513
        51.000          45.000
 02  7 11 16 39 40.0000000  0  9G23G 2G22G21G18G 6G15G29G26
  22447874.515    15318794.84543  11927789.81142  22447875.698    22447875.187
        52.000          46.000
  24929477.302    -1702231.47243  -1290328.16042  24929477.216    24929480.364
        44.000          37.000
  23734888.136    10714835.68843   8349614.43142  23734887.138    23734889.961
        46.000          39.000
  22650435.163     3992519.32443   3117924.05542  22650436.438    22650438.412
        52.000          46.000
  20555459.847     6353672.25343   4955731.70442  20555460.898    20555459.725
        55.000          49.000
  21219788.295    13975350.81643  10885784.23442  21219790.300    21219790.784
        54.000          48.000
  20694198.795    -2848678.88943  -2203870.08842  20694198.715    20694200.152
        43.000          38.000
  22974843.524    12171148.60243   9483034.50042  22974844.403    22974845.257
        50.000          43.000
  21998988.418    10812276.12743   8425622.61142  21998990.543    21998990.068
        51.000          45.000
 02  7 11 16 40  0.0000000  0  9G23G 2G22G21G18G 6G15G29G26
  22457409.570    15368904.30043  11966836.11142  22457410.507    22457410.954
        52.000          46.000
  24927014.577    -1715164.65543  -1300406.01442  24927015.209    24927020.508
        42.000          37.000
  23738708.615    10734915.53743   8365261.00042  23738707.554    23738711.702
        46.000          40.000
  22642540.630     3951035.74943   3085599.23442  22642541.337    22642544.813
        52.000          45.000
  20552163.196     6336351.47843   4942235.00542  20552165.015    20552163.616
        55.000          49.000
  21228631.334    14021824.75843  10921997.65442  21228633.062    21228634.745
        54.000          48.000
  20690981.708    -2865585.02843  -2217043.71942  20690981.885    20690981.045
        42.000          38.000
  22981139.754    12204236.68043   9508817.39742  22981141.410    22981141.545
        50.000          43.000
  22003787.401    10837489.10043   8445269.05842  22003789.029    22003788.115
        52.000          46.000
 02  7 11 16 40 20.0000000  0  9G23G 2G22G21G18G 6G15G29G26
  22466956.018    15419067.96343  12005924.65342  22466957.783    22466956.486
        52.000          46.000
  24924589.625    -1727909.97543  -1310337.50942  24924589.017    24924594.842
        42.000          37.000
  23742565.935    10755186.41343   8381056.42142  23742564.589    23742569.544
        46.000          40.000
  22634668.311     3909670.07043   3053366.29042  22634669.854    22634673.173
        51.000          45.000
  20548902.858     6319216.33443   4928882.95742  20548904.026    20548902.928
        56.000          50.000
  21237510.309    14068485.60543  10958356.71642  21237512.356    21237513.211
        54.000          47.000
  20687782.173    -2882404.96743  -2230150.15642  20687782.753    20687781.608
        42.000          38.000
  22987476.896    12237536.68043   9534765.43742  22987478.151    22987479.265
        51.000          44.000
  22008637.053    10862974.91643   8465128.11442  22008639.431    22008638.011
        53.000          46.000
 02  7 11 16 40 40.0000000  0 10G23G 2G22G21G18G 6G15G 3G29G26
  22476514.093    15469298.27843  12045065.13142  22476515.574    22476515.508
        51.000          46.000
  24922202.627    -1740454.49043  -1320112.51842  24922205.002    24922206.740
        42.000          37.000
  23746463.315    10775660.71543   8397010.31942  23746462.589    23746465.850
        46.000          40.000
  22626821.925     3868435.30843   3021235.35242  22626822.665    22626826.053
        51.000          45.000
  20545680.326     6302279.61544   4915685.52942  20545681.671    20545679.677
        57.000          50.000
  21246428.797    14115345.84943  10994871.12842  21246429.565    21246429.953
        55.000          47.000
  20684601.258    -2899125.55643  -2243179.18542  20684601.016    20684598.909
        43.000          39.000
  24619383.933    -2971633.13653  -2269967.16852  24619384.979    24619386.639
        47.000          40.000
  22993856.403    12271060.96243   9560888.22742  22993858.056    22993857.918
        50.000          44.000
  22013541.065    10888746.30143   8485209.68742  22013543.764    22013542.483
        53.000          46.000
 02  7 11 16 41  0.0000000  0 10G23G 2G22G21G18G 6G15G 3G29G26
  22486081.734    15519575.79743  12084242.38742  22486083.016    22486083.141
        51.000          46.000
  24919850.251    -1752817.14843  -1329745.81742  24919852.129    24919855.463
        41.000          37.000
  23750394.867    10796318.93643   8413107.56342  23750393.438    23750396.539
        47.000          40.000
  22618997.994     3827312.75743   2989191.87542  22618998.615    22619000.529
        52.000          45.000
  20542491.647     6285522.30844   4902627.90342  20542492.896    20542490.255
        57.000          50.000
  21255380.494    14162386.17343  11031525.83842  21255382.041    21255380.973
        55.000          47.000
  20681433.072    -2915765.33543  -2256145.25642  20681434.074    20681433.916
        42.000          38.000
  24606608.362    -3038765.34643  -2322277.96142  24606609.677    24606609.796
        47.000          40.000
  23000274.961    12304790.30443   9587170.80542  23000276.214    23000277.480
        50.000          44.000
  22018495.514    10914783.88443   8505498.69642  22018498.159    22018496.352
        53.000          46.000
 02  7 11 16 41 20.0000000  0 10G23G 2G22G21G18G 6G15G 3G29G26
  22495660.101    15569910.92143  12123464.53842  22495661.679    22495661.916
        51.000          46.000
  24917533.423    -1764986.96143  -1339228.83342  24917535.302    24917539.699
        38.000          36.000
  23754362.365    10817171.38643   8429356.14842  23754362.382    23754364.813
        46.000          40.000
  22611195.553     3786312.86343   2957243.98442  22611196.710    22611197.780
        53.000          44.000
  20539338.932     6268955.21344   4889718.50142  20539340.052    20539337.626
        57.000          50.000
  21264368.239    14209617.08643  11068329.05342  21264369.720    21264368.665
        55.000          47.000
  20678285.192    -2932313.29843  -2269039.82242  20678282.877    20678284.313
        42.000          38.000
  24593845.126    -3105837.16643  -2374541.69542  24593847.885    24593847.142
        46.000          40.000
  23006734.137    12338735.13443   9613621.29942  23006735.439    23006737.790
        50.000          43.000
  22023502.510    10941098.19343   8526003.33342  22023504.670    22023504.289
        52.000          46.000
 02  7 11 16 41 40.0000000  0 10G23G 2G22G21G18G 6G15G 3G29G26
  22505249.328    15620300.02443  12162728.73742  22505250.304    22505250.348
        52.000          46.000
  24915253.655    -1776967.02943  -1348563.97942  24915255.838    24915261.566
        39.000          36.000
  23758367.168    10838214.51843   8445753.31342  23758366.654    23758368.612
        46.000          41.000
  22603416.787     3745432.89043   2925389.54042  22603417.431    22603416.029
        53.000          44.000
  20536221.752     6252575.21944   4876954.89342  20536223.115    20536220.600
        57.000          50.000
  21273391.920    14257035.15143  11105278.10142  21273393.074    21273392.052
        55.000          48.000
  20675151.501    -2948772.33843  -2281864.98542  20675150.942    20675153.644
        42.000          38.000
  24581093.012    -3172850.90443  -2426760.17442  24581094.604    24581097.126
        45.000          40.000
  23013233.869    12372891.89243   9640236.92442  23013236.989    23013237.414
        50.000          43.000
  22028562.223    10967685.89543   8546721.00742  22028563.456    22028563.590
        52.000          45.000
 02  7 11 16 42  0.0000000  0 10G23G 2G22G21G18G 6G15G 3G29G26
  22514848.034    15670741.50543  12202033.74842  22514849.413    22514849.283
        52.000          46.000
  24913011.341    -1788758.31253  -1357752.02452  24913010.999    24913016.229
        40.000          37.000
  23762407.435    10859446.58043   8462297.71342  23762407.142    23762409.701
        46.000          41.000
  22595659.768     3704672.26543   2893628.07242  22595660.887    22595661.198
        53.000          45.000
  20533140.134     6236381.16044   4864336.16342  20533141.259    20533138.727
        57.000          50.000
  21282450.519    14304638.87043  11142371.83542  21282451.550    21282451.386
        55.000          48.000
  20672035.020    -2965143.28343  -2294621.53242  20672035.828    20672035.272
        40.000          38.000
  24568351.482    -3239806.91343  -2478933.66642  24568353.375    24568354.480
        46.000          40.000
  23019774.301    12407259.04843   9667016.50842  23019775.523    23019776.482
        50.000          43.000
  22033672.757    10994545.50243   8567650.55942  22033675.002    22033674.650
        52.000          45.000
 02  7 11 16 42 20.0000000  0 10G23G 2G22G21G18G 6G15G 3G29G26
  22524456.777    15721235.19043  12241379.43842  22524458.029    22524458.422
        52.000          46.000
  24910803.158    -1800360.62843  -1366792.84542  24910804.254    24910809.094
        41.000          36.000
  23766482.432    10880867.48443   8478989.26242  23766482.950    23766487.165
        46.000          41.000
  22587926.194     3664031.04943   2861959.67042  22587927.219    22587926.805
        53.000          45.000
  20530094.024     6220373.31144   4851862.53042  20530095.316    20530092.372
        57.000          51.000
  21291543.820    14352428.13243  11179610.16442  21291545.476    21291545.741
        54.000          48.000
  20668936.266    -2981425.52643  -2307308.94342  20668934.390    20668939.711
        39.000          37.000
  24555621.359    -3306704.06643  -2531061.31442  24555623.383    24555624.341
        46.000          40.000
  23026353.053    12441836.59743   9693960.03042  23026355.488    23026355.326
        49.000          42.000
  22038835.162    11021677.03143   8588791.98342  22038837.345    22038836.111
        51.000          44.000
 02  7 11 16 42 40.0000000  0 10G23G 2G22G21G18G 6G15G 3G29G26
  22534075.942    15771787.93243  12280771.14342  22534077.782    22534077.689
        52.000          46.000
  24908632.690    -1811766.55843  -1375680.60942  24908633.348    24908638.750
        40.000          37.000
  23770597.140    10902483.86943   8495833.13842  23770595.541    23770600.732
        46.000          41.000
  22580216.231     3623516.67743   2830390.08842  22580218.051    22580217.598
        53.000          45.000
  20527084.403     6204558.63644   4839539.41742  20527085.919    20527083.232
        57.000          51.000
  21300674.771    14400409.76743  11216998.39842  21300675.792    21300677.107
        54.000          48.000
  20665857.438    -2997611.46943  -2319921.36842  20665856.514    20665857.458
        40.000          37.000
  24542903.704    -3373534.43243  -2583136.91242  24542905.951    24542907.145
        46.000          40.000
  23032974.228    12476631.42343   9721072.84842  23032976.098    23032976.633
        49.000          41.000
  22044052.199    11049087.33243   8610150.65242  22044054.511    22044053.019
        51.000          44.000
 02  7 11 16 43  0.0000000  0 10G23G 2G22G21G18G 6G15G 3G29G26
  22543706.154    15822391.66143  12320202.58742  22543706.943    22543707.192
        52.000          46.000
  24906497.632    -1822983.73343  -1384421.30642  24906499.020    24906504.006
        42.000          37.000
  23774745.063    10924287.77243   8512823.14442  23774744.538    23774750.119
        45.000          40.000
  22572529.747     3583121.82843   2798913.64642  22572531.391    22572530.933
        53.000          45.000
  20524110.596     6188929.74543   4827361.06742  20524111.846    20524109.239
        56.000          51.000
  21309840.801    14448575.86543  11254530.37242  21309842.010    21309843.144
        54.000          48.000
  20662798.246    -3013708.63343  -2332464.62142  20662795.870    20662791.785
        43.000          37.000
  24530197.676    -3440304.70943  -2635165.68542  24530198.956    24530201.819
        46.000          41.000
  23039635.949    12511635.50243   9748348.71442  23039636.700    23039636.992
        49.000          41.000
  22049319.744    11076768.58643   8631720.44042  22049321.695    22049319.578
        51.000          44.000
 02  7 11 16 43 20.0000000  0 10G23G 2G22G21G18G 6G15G 3G29G26
  22553345.425    15873049.03843  12359675.83042  22553347.074    22553346.800
        52.000          46.000
  24904401.103    -1834008.78443  -1393012.30042  24904402.702    24904404.941
        42.000          37.000
  23778931.176    10946281.65043   8529961.14842  23778930.053    23778934.765
        45.000          40.000
  22564865.308     3542849.70943   2767532.82942  22564866.930    22564867.088
        53.000          45.000
  20521172.372     6173489.69543   4815329.85942  20521173.814    20521171.118
        56.000          51.000
  21319042.529    14496929.15643  11292208.21642  21319043.725    21319045.031
        55.000          49.000
  20659752.648    -3029713.64243  -2344936.05542  20659751.531    20659746.538
        45.000          37.000
  24517504.092    -3507011.04043  -2687144.61642  24517506.303    24517508.145
        46.000          41.000
  23046336.955    12546851.37343   9775789.63442  23046336.952    23046339.122
        49.000          40.000
  22054639.538    11104723.55443   8653503.51942  22054641.961    22054641.138
        52.000          44.000
 02  7 11 16 43 40.0000000  0 10G23G 2G22G21G18G 6G15G 3G29G26
  22562995.448    15923758.60243  12399189.73942  22562996.574    22562996.775
        52.000          46.000
  24902340.465    -1844842.75543  -1401454.42542  24902340.968    24902344.013
        43.000          37.000
  23783151.108    10968464.11543   8547246.12642  23783151.030    23783154.546
        45.000          40.000
  22557225.097     3502699.36743   2736246.90442  22557226.205    22557227.360
        52.000          45.000
  20518268.992     6158237.38243   4803444.93242  20518270.756    20518269.143
        55.000          51.000
  21328278.909    14545468.22743  11330030.81942  21328280.326    21328281.591
        55.000          49.000
  20656723.565    -3045627.17143  -2357336.23542  20656726.501    20656719.697
        45.000          38.000
  24504822.898    -3573653.51943  -2739073.79842  24504824.848    24504827.130
        47.000          41.000
  23053078.898    12582277.92443   9803394.71642  23053081.613    23053076.379
        49.000          40.000
  22060011.223    11132950.82743   8675498.77842  22060013.268    22060012.904
        52.000          44.000
 02  7 11 16 44  0.0000000  0 10G23G 2G22G21G18G 6G15G 3G29G26
  22572654.663    15974517.29943  12438741.93042  22572655.578    22572655.645
        52.000          46.000
  24900311.675    -1855488.31243  -1409749.71442  24900314.551    24900318.880
        41.000          37.000
  23787408.386    10990831.84043   8564675.44742  23787407.817    23787410.551
        45.000          40.000
  22549606.833     3462668.54143   2705054.11842  22549607.933    22549610.539
        52.000          45.000
  20515402.186     6143170.21243   4791704.27442  20515403.213    20515402.011
        55.000          51.000
  21337550.322    14594190.13843  11367995.89742  21337551.715    21337553.198
        55.000          48.000
  20653712.301    -3061451.53343  -2369666.95042  20653714.190    20653707.993
        46.000          38.000
  24492153.139    -3640234.02843  -2790954.70742  24492154.744    24492156.557
        47.000          41.000
  23059859.970    12617911.92943   9831161.45642  23059861.232    23059860.949
        49.000          40.000
  22065433.593    11161447.48143   8697703.94842  22065436.211    22065435.465
        52.000          44.000
 02  7 11 16 44 20.0000000  0 10G23G 2G22G21G18G 6G15G 3G29G26
  22582323.650    16025326.02343  12478333.09942  22582325.127    22582324.540
        52.000          46.000
  24898324.201    -1865944.06843  -1417897.10642  24898325.245    24898329.677
        42.000          37.000
  23791700.856    11013385.86443   8582249.92842  23791699.808    23791702.882
        46.000          40.000
  22542011.909     3422758.68543   2673955.57242  22542012.427    22542014.479
        51.000          44.000
  20512570.353     6128289.45443   4780108.87142  20512571.783    20512570.199
        55.000          51.000
  21346856.978    14643095.80543  11406104.15442  21346858.775    21346859.670
        55.000          48.000
  20650717.658    -3077185.19943  -2381926.95842  20650719.627    20650716.294
        45.000          38.000
  24479495.541    -3706750.54543  -2842785.73742  24479497.695    24479498.011
        48.000          41.000
  23066680.222    12653754.37843   9859090.63142  23066682.157    23066678.457
        49.000          41.000
  22070907.841    11190214.50343   8720119.79242  22070909.110    22070909.763
        53.000          44.000
 02  7 11 16 44 40.0000000  0 10G23G 2G22G21G18G 6G15G 3G29G26
  22592001.500    16076184.95143  12517963.38542  22592003.079    22592003.489
        52.000          46.000
  24896368.430    -1876209.28943  -1425896.04642  24896371.166    24896374.132
        40.000          36.000
  23796029.126    11036126.07943   8599969.50642  23796027.108    23796030.802
        47.000          40.000
  22534440.244     3382970.47243   2642951.81842  22534440.615    22534443.619
        50.000          44.000
  20509774.421     6113595.56643   4768659.08842  20509775.288    20509773.903
        55.000          51.000
  21356198.876    14692185.48143  11444355.78342  21356200.290    21356201.152
        56.000          48.000
  20647739.305    -3092827.13843  -2394115.51342  20647740.652    20647735.354
        44.000          37.000
  24466849.689    -3773201.67543  -2894565.82142  24466852.984    24466853.953
        47.000          41.000
  23073540.389    12689805.52543   9887182.41442  23073543.007    23073539.581
        49.000          41.000
  22076432.822    11219252.13643   8742746.50942  22076435.605    22076435.392
        52.000          44.000
 02  7 11 16 45  0.0000000  0 11G23G 2G22G21G18G 6G17G15G 3G29G26
  22601689.317    16127091.62043  12557630.87842  22601689.815    22601690.789
        52.000          46.000
  24894450.231    -1886285.92543  -1433748.03642  24894450.485    24894457.163
        40.000          36.000
  23800390.336    11059050.19443   8617832.35842  23800390.477    23800391.566
        46.000          40.000
  22526891.550     3343301.86743   2612041.25742  22526892.498    22526895.286
        50.000          44.000
  20507013.471     6099086.64343   4757353.42942  20507014.565    20507013.122
        55.000          51.000
  21365575.446    14741456.82944  11482748.96942  21365576.729    21365576.896
        57.000          48.000
  20652989.802
        43.000
  20644780.624    -3108379.15043  -2406233.97442  20644781.311    20644774.384
        43.000          36.000
  24454216.096    -3839588.33843  -2946295.65342  24454219.254    24454220.893
        47.000          41.000
  23080439.927    12726062.99743   9915434.95542  23080441.248    23080439.793
        49.000          41.000
  22082009.736    11248558.25343   8765582.42242  22082012.201    22082012.236
        52.000          44.000
 02  7 11 16 45 20.0000000  0 11G23G 2G22G21G18G 6G17G15G 3G29G26
  22611386.443    16178051.29943  12597339.67342  22611387.757    22611387.988
        51.000          46.000
  24892569.975    -1896168.33353  -1441448.65052  24892569.092    24892578.132
        39.000          36.000
  23804789.026    11082163.14743   8635842.35442  23804787.569    23804790.724
        46.000          39.000
  22519367.779     3303758.97143   2581228.65842  22519367.478    22519369.374
        51.000          44.000
  20504289.188     6084768.18843   4746196.18642  20504290.317    20504287.997
        55.000          51.000
  21374986.863    14790915.11243  11521287.80442  21374988.303    21374988.230
        56.000          48.000
  20651903.743
        42.000
  20641840.235    -3123835.17543  -2418277.66842  20641842.399    20641832.937
        45.000          36.000
  24441596.786    -3905904.06343  -2997970.22942  24441597.669    24441601.693
        46.000          41.000
  23087380.397    12762532.01643   9943852.34542  23087380.019    23087380.203
        49.000          41.000
  22087638.649    11278137.93743   8788631.50042  22087640.821    22087640.903
        51.000          44.000
 02  7 11 16 45 40.0000000  0 11G23G 2G22G21G18G 6G17G15G 3G29G26
  22621092.092    16229056.20743  12637083.71842  22621092.963    22621093.861
        51.000          46.000
  24890724.739    -1905863.64143  -1449003.45942  24890727.319    24890733.053
        40.000          36.000
  23809223.296    11105457.20843   8653993.46642  23809220.369    23809224.015
        47.000          39.000
  22511866.539     3264334.66143   2550508.46642  22511866.947    22511867.749
        53.000          45.000
  20501599.227     6070632.82143   4735181.62042  20501600.433    20501598.187
        55.000          51.000
  21384432.537    14840552.56443  11559966.25342  21384434.311    21384432.763
        56.000          47.000
  20650832.892    -1529874.82853  -1190419.34652  20650832.280    20650832.653
        42.000          37.000
  20638915.481    -3139202.24443  -2430252.03242  20638918.048    20638909.814
        45.000          37.000
  24428989.660    -3972155.51443  -3049594.71542  24428991.902    24428994.372
        47.000          41.000
  23094358.299    12799204.82943   9972428.51442  23094359.793    23094358.517
        49.000          42.000
  22093318.121    11307983.57143   8811887.82342  22093319.839    22093319.668
        51.000          43.000
 02  7 11 16 46  0.0000000  0 11G23G 2G22G21G18G 6G17G15G 3G29G26
  22630806.353    16280107.98743  12676864.28842  22630807.861    22630808.676
        50.000          46.000
  24888913.084    -1915369.97743  -1456411.03742  24888916.465    24888920.537
        38.000          36.000
  23813690.035    11128933.87543   8672286.88342  23813690.550    23813690.127
        46.000          39.000
  22504387.486     3225030.68343   2519882.05042  22504388.017    22504388.252
        54.000          45.000
  20498944.473     6056682.63743   4724311.35042  20498945.556    20498943.738
        55.000          50.000
  21393912.455    14890370.78543  11598785.56542  21393914.141    21393913.152
        55.000          47.000
  20649775.781    -1535421.34643  -1194741.26342  20649776.029    20649776.213
        43.000          37.000
  20636008.238    -3154478.09343  -2442155.32342  20636011.436    20636005.004
        46.000          38.000
  24416395.431    -4038339.76043  -3101166.82542  24416394.939    24416398.205
        47.000          40.000
  23101375.637    12836083.10043  10001164.79042  23101377.248    23101378.317
        48.000          42.000
  22099048.970    11338096.85143   8835352.69842  22099050.924    22099049.082
        51.000          43.000
 02  7 11 16 46 20.0000000  0 11G23G 2G22G21G18G 6G17G15G 3G29G26
  22640530.459    16331207.06443  12716681.71742  22640531.362    22640531.719
        50.000          45.000
  24887143.424    -1924686.23743  -1463670.50442  24887144.886    24887148.484
        39.000          35.000
  23818191.536    11152593.53443   8690722.88242  23818193.055    23818194.661
        46.000          39.000
  22496930.607     3185848.44943   2489350.51842  22496932.156    22496932.765
        55.000          46.000
  20496324.871     6042918.47343   4713586.02842  20496325.981    20496324.600
        54.000          50.000
  21403426.781    14940370.39843  11637746.23142  21403428.323    21403427.720
        55.000          47.000
  20648735.802    -1540883.69943  -1198997.65242  20648737.691    20648736.916
        42.000          38.000
  20633118.164    -3169661.45343  -2453986.55742  20633120.246    20633117.458
        44.000          38.000
  24403814.163    -4104454.93943  -3152685.10842  24403814.102    24403816.503
        48.000          39.000
  23108432.941    12873167.42143  10030061.61342  23108433.830    23108432.435
        48.000          42.000
  22104830.299    11368478.35343   8859026.58442  22104831.684    22104830.617
        52.000          44.000
 02  7 11 16 46 40.0000000  0 11G23G 2G22G21G18G 6G17G15G 3G29G26
  22650264.321    16382357.56043  12756539.22242  22650264.639    22650266.051
        49.000          45.000
  24885407.510    -1933807.97643  -1470778.41642  24885408.744    24885413.499
        39.000          36.000
  23822729.266    11176440.17943   8709304.60142  23822726.826    23822732.997
        46.000          39.000
  22489498.195     3146792.73943   2458917.56542  22489500.271    22489500.664
        55.000          46.000
  20493741.910     6029344.75143   4703009.10142  20493743.128    20493741.356
        54.000          50.000
  21412977.460    14990555.57943  11676851.49542  21412978.309    21412977.921
        54.000          47.000
  20647713.321    -1546256.96743  -1203184.64242  20647713.768    20647714.607
        42.000          38.000
  20630249.540    -3184747.53943  -2465741.97942  20630250.222    20630248.168
        46.000          39.000
  24391247.237    -4170495.87143  -3204145.53842  24391247.773    24391248.448
        48.000          40.000
  23115529.127    12910461.73043  10059122.06242  23115531.073    23115531.778
        47.000          42.000
  22110664.278    11399132.19943   8882912.68642  22110665.676    22110665.169
        52.000          44.000
 02  7 11 16 47  0.0000000  0 11G23G 2G22G21G18G 6G17G15G 3G29G26
  22660005.569    16433548.88943  12796428.54942  22660006.613    22660006.942
        49.000          45.000
  24883705.894    -1942745.21143  -1477742.53442  24883706.679    24883711.593
        39.000          36.000
  23827301.654    11200463.18143   8728023.74642  23827302.032    23827305.919
        46.000          39.000
  22482088.255     3107853.35343   2428575.25242  22482090.238    22482090.061
        55.000          46.000
  20491193.026     6015951.31743   4692572.66242  20491194.651    20491192.440
        54.000          50.000
  21422560.036    15040915.83943  11716093.19642  21422562.271    21422561.684
        54.000          47.000
  20646706.195    -1551550.94543  -1207309.84742  20646707.145    20646707.899
        42.000          38.000
  20627394.171    -3199746.20843  -2477429.26042  20627395.070    20627395.325
        46.000          39.000
  24378692.822    -4236471.88043  -3255555.37342  24378696.334    24378692.980
        49.000          39.000
  23122663.291    12947955.47143  10088337.90342  23122665.618    23122666.788
        47.000          42.000
  22116547.387    11430047.95243   8907002.87542  22116549.064    22116547.142
        52.000          44.000
 02  7 11 16 47 20.0000000  0 11G23G 2G22G21G18G 6G17G15G 3G29G26
  22669755.394    16484785.60543  12836353.25942  22669756.427    22669758.015
        50.000          45.000
  24882044.794    -1951492.92643  -1484558.98142  24882044.168    24882049.490
        41.000          36.000
  23831907.563    11224666.95243   8746883.75242  23831908.404    23831910.131
        46.000          38.000
  22474701.389     3069035.40043   2398327.55742  22474702.543    22474703.383
        54.000          46.000
  20488679.916     6002743.03043   4682280.49742  20488681.322    20488679.204
        54.000          50.000
  21432177.678    15091455.70043  11755474.84142  21432179.205    21432179.182
        54.000          47.000
  20645714.685    -1556760.44943  -1211369.18942  20645715.146    20645715.188
        42.000          39.000
  20624556.743    -3214652.00343  -2489044.15742  20624558.337    20624559.102
        44.000          39.000
  24366151.255    -4302377.12943  -3306910.04842  24366151.851    24366154.606
        49.000          39.000
  23129837.908    12985653.35343  10117712.82242  23129839.471    23129840.857
        47.000          42.000
  22122481.638    11461230.15543   8931300.68842  22122483.552    22122482.349
        53.000          44.000
 02  7 11 16 47 40.0000000  0 11G23G 2G22G21G18G 6G17G15G 3G29G26
  22679514.252    16536068.90943  12876314.25242  22679515.322    22679515.284
        50.000          45.000
  24880414.986    -1960049.48843  -1491226.49442  24880419.059    24880420.253
        42.000          36.000
  23836547.478    11249052.51143   8765885.39742  23836547.493    23836550.546
        47.000          39.000
  22467337.037     3030340.56143   2368175.78542  22467338.852    22467339.463
        53.000          46.000
  20486202.294     5989721.43143   4672133.80142  20486203.504    20486201.162
        55.000          50.000
  21441828.869    15142176.38443  11794997.39842  21441830.885    21441831.703
        54.000          48.000
  20644740.938    -1561883.56543  -1215361.19642  20644741.444    20644739.644
        42.000          39.000
  20621739.903    -3229463.04243  -2500585.21242  20621740.393    20621740.534
        46.000          40.000
  24353624.036    -4368209.22143  -3358207.73442  24353624.991    24353625.560
        49.000          39.000
  23137051.153    13023556.62343  10147247.77342  23137052.245    23137054.106
        47.000          42.000
  22128465.353    11492680.05643   8955807.08242  22128467.579    22128467.356
        52.000          44.000
 02  7 11 16 48  0.0000000  0 11G23G 2G22G21G18G 6G17G15G 3G29G26
  22689282.200    16587398.91843  12916311.62342  22689283.859    22689283.955
        51.000          45.000
  24878824.464    -1968414.49143  -1497744.73442  24878826.719    24878828.307
        42.000          37.000
  23841222.513    11273620.00143   8785028.80642  23841222.864    23841227.091
        47.000          39.000
  22459997.494     2991769.53643   2338120.48142  22459998.387    22460000.702
        52.000          45.000
  20483760.055     5976886.84843   4662132.83542  20483761.263    20483758.657
        56.000          50.000
  21451515.469    15193077.97443  11834660.90142  21451517.257    21451518.084
        55.000          48.000
  20643781.858    -1566919.34543  -1219285.15142  20643781.696    20643780.901
        41.000          39.000
  20618938.366    -3244178.71443  -2512051.96142  20618939.908    20618940.052
        46.000          41.000
  24341110.882    -4433966.92343  -3409447.45542  24341111.756    24341109.952
        49.000          39.000
  23144303.837    13061665.20443  10176942.72242  23144305.078    23144306.041
        47.000          43.000
  22134501.462    11524397.85143   8980522.21442  22134503.588    22134503.661
        51.000          45.000
 02  7 11 16 48 20.0000000  0 11G23G 2G22G21G18G 6G17G15G 3G29G26
  22699057.776    16638768.92943  12956340.16042  22699059.453    22699059.451
        52.000          45.000
  24877267.266    -1976594.19943  -1504118.58842  24877269.498    24877274.193
        43.000          37.000
  23845931.152    11298362.27543   8804308.42642  23845929.967    23845936.277
        47.000          39.000
  22452679.584     2953316.19143   2308156.85542  22452681.013    22452682.486
        51.000          45.000
  20481352.182     5964233.03843   4652272.74042  20481353.482    20481350.254
        56.000          50.000
  21461236.094    15244153.75443  11874460.14342  21461237.511    21461237.782
        55.000          48.000
  20642838.014    -1571873.94343  -1223145.89142  20642838.372    20642840.393
        38.000          38.000
  20616154.694    -3258804.95843  -2523449.02342  20616155.601    20616156.222
        45.000          40.000
  24328610.500    -4499655.60043  -3460633.35642  24328612.573    24328612.224
        49.000          39.000
  23151593.412    13099972.36443  10206792.40042  23151595.801    23151595.026
        48.000          43.000
  22140586.539    11556376.71343   9005440.76842  22140588.631    22140588.884
        51.000          45.000
 02  7 11 16 48 40.0000000  0 11G23G 2G22G21G18G 6G17G15G 3G29G26
  22708841.849    16690184.69743  12996404.34442  22708843.467    22708844.005
        52.000          46.000
  24875748.659    -1984582.40143  -1510343.24642  24875751.030    24875752.371
        45.000          38.000
  23850674.215    11323285.10343   8823728.73142  23850672.865    23850676.552
        47.000          39.000
  22445386.003     2914986.88043   2278289.88742  22445386.470    22445387.319
        50.000          44.000
  20478979.474     5951766.20843   4642558.33742  20478981.296    20478977.929
        56.000          50.000
  21470989.677    15295409.51043  11914399.62042  21470991.188    21470991.333
        56.000          48.000
  20641911.268    -1576740.87253  -1226938.32252  20641913.500    20641915.688
        38.000          38.000
  20613389.497    -3273335.35643  -2534771.41942  20613390.753    20613391.219
        45.000          40.000
  24316124.371    -4565268.20343  -3511760.01742  24316126.903    24316127.728
        48.000          40.000
  23158922.738    13138483.91343  10236801.34442  23158924.132    23158923.535
        49.000          44.000
  22146722.680    11588622.40643   9030567.23242  22146725.288    22146725.668
        51.000          45.000
 02  7 11 16 49  0.0000000  0 11G23G 2G22G21G18G 6G17G15G 3G29G26
  22718634.403    16741642.79843  13036501.52242  22718636.774    22718635.971
        53.000          46.000
  24874262.294    -1992382.03443  -1516420.94242  24874266.356    24874268.660
        45.000          38.000
  23855449.709    11348385.09843   8843287.08342  23855449.221    23855454.828
        46.000          39.000
  22438115.918     2876778.56443   2248517.21942  22438116.148    22438117.100
        51.000          44.000
  20476641.965     5939483.18643   4632987.16642  20476643.733    20476640.464
        56.000          51.000
  21480777.483    15346841.82343  11954476.67142  21480778.810    21480778.214
        56.000          48.000
  20641006.445    -1581522.60243  -1230664.34442  20641005.289    20641004.276
        39.000          38.000
  20610642.782    -3287772.38943  -2546021.04842  20610643.632    20610643.558
        46.000          40.000
  24303653.141    -4630807.11143  -3562829.26042  24303655.188    24303653.933
        48.000          39.000
  23166289.241    13177196.53343  10266966.97142  23166291.686    23166291.043
        49.000          44.000
  22152909.470    11621131.72743   9055899.12042  22152912.041    22152911.367
        51.000          45.000
 02  7 11 16 49 20.0000000  0 11G23G 2G22G21G18G 6G17G15G 3G29G26
  22728435.020    16793145.05343  13076633.10642  22728436.634    22728436.725
        53.000          46.000
  24872816.153    -1999990.94843  -1522350.03742  24872817.186    24872820.079
        44.000          38.000
  23860260.876    11373663.86243   8862984.74742  23860259.640    23860265.687
        47.000          40.000
  22430868.890     2838693.88443   2218840.89842  22430869.676    22430869.831
        51.000          44.000
  20474339.927     5927386.09743   4623560.87842  20474341.356    20474338.691
        56.000          51.000
  21490597.747    15398452.49943  11994692.71442  21490599.645    21490599.920
        55.000          48.000
  20640117.254    -1586216.59843  -1234321.96042  20640114.155    20640110.377
        40.000          39.000
  20607913.691    -3302113.60443  -2557196.01342  20607914.937    20607914.287
        45.000          40.000
  24291196.203    -4696269.10243  -3613838.56342  24291195.195    24291200.334
        48.000          39.000
  23173694.306    13216111.80543  10297290.50342  23173696.368    23173695.618
        49.000          44.000
  22159146.007    11653906.42043   9081437.78942  22159147.936    22159148.779
        51.000          45.000
 02  7 11 16 49 40.0000000  0 11G23G 2G22G21G18G 6G17G15G 3G29G26
  22738243.766    16844690.51143  13116798.35142  22738245.010    22738245.312
        54.000          46.000
  24871403.481    -2007409.61243  -1528130.87642  24871404.289    24871408.862
        45.000          38.000
  23865105.744    11399120.09543   8882820.69742  23865105.128    23865108.431
        46.000          40.000
  22423644.849     2800732.11743   2189260.35842  22423645.189    22423646.369
        52.000          44.000
  20472073.116     5915474.40944   4614279.05342  20472074.429    20472072.410
        57.000          51.000
  21500452.147    15450240.51843  12035046.95442  21500454.097    21500454.760
        55.000          48.000
  20639237.173    -1590823.21543  -1237911.51342  20639237.578    20639235.812
        41.000          39.000
  20605201.778    -3316359.25743  -2568296.51142  20605202.349    20605203.964
        43.000          39.000
  24278752.988    -4761653.87443  -3664787.70642  24278752.946    24278755.344
        47.000          39.000
  23181137.851    13255228.78543  10327771.22342  23181139.810    23181139.586
        50.000          44.000
  22165432.887    11686945.41843   9107182.41942  22165434.428    22165435.631
        51.000          45.000
 02  7 11 16 50  0.0000000  0 11G23G 2G22G21G18G 6G17G15G 3G29G26
  22748059.733    16896274.37543  13156993.53142  22748060.673    22748061.183
        54.000          46.000
  24870027.747    -2014642.53643  -1533766.97842  24870026.805    24870031.929
        44.000          38.000
  23869981.962    11424749.10843   8902791.28642  23869982.564    23869986.652
        47.000          40.000
  22416443.412     2762888.93943   2159772.21742  22416443.984    22416445.307
        52.000          45.000
  20469841.398     5903743.51044   4605138.10742  20469842.445    20469839.582
        57.000          51.000
  21510340.263    15502201.21143  12075535.73642  21510341.775    21510342.247
        54.000          48.000
  20638377.612    -1595346.41443  -1241436.04442  20638377.655    20638372.378
        41.000          38.000
  20602507.087    -3330513.44243  -2579325.72342  20602506.888    20602511.108
        42.000          38.000
  24266325.464    -4826964.99443  -3715679.42942  24266327.673    24266328.649
        47.000          39.000
  23188618.991    13294542.59643  10358405.30642  23188620.946    23188619.972
        49.000          44.000
  22171769.848    11720244.02243   9133129.35042  22171771.581    22171771.965
        51.000          45.000
 02  7 11 16 50 20.0000000  0 11G23G 2G22G21G18G 6G17G15G 3G29G26
  22757884.801    16947902.49443  13197223.19042  22757886.000    22757885.461
        54.000          46.000
  24868688.041    -2021683.37443  -1539253.40642  24868688.314    24868692.710
        45.000          38.000
  23874892.831    11450556.42743   8922900.79342  23874893.009    23874897.043
        46.000          40.000
  22409265.889     2725170.95843   2130381.63542  22409267.175    22409268.107
        53.000          45.000
  20467644.539     5892199.47644   4596142.76942  20467645.380    20467643.083
        57.000          51.000
  21520261.937    15554340.41843  12116163.61842  21520263.879    21520263.725
        54.000          47.000
  20637531.949    -1599779.64943  -1244890.48642  20637535.138    20637529.934
        40.000          38.000
  20599831.121    -3344569.49343  -2590278.50542  20599831.829    20599836.527
        41.000          37.000
  24253912.110    -4892195.36343  -3766508.25542  24253912.246    24253915.803
        47.000          39.000
  23196138.147    13334059.24843  10389197.45442  23196140.327    23196140.631
        49.000          44.000
  22178157.135    11753808.04343   9159283.09742  22178159.689    22178158.957
        52.000          45.000
 02  7 11 16 50 40.0000000  0 11G23G 2G22G21G18G 6G17G15G 3G29G26
  22767716.006    16999567.18643  13237481.36042  22767717.417    22767717.012
        54.000          47.000
  24867383.233    -2028539.39943  -1544595.81142  24867383.789    24867388.411
        45.000          38.000
  23879837.446    11476534.28643   8943143.18542  23879837.855    23879840.523
        47.000          40.000
  22402110.229     2687571.31543   2101083.26642  22402111.381    22402112.099
        53.000          45.000
  20465481.604     5880835.23544   4587287.53142  20465483.133    20465480.671
        57.000          51.000
  21530216.336    15606650.42143  12156924.58842  21530217.998    21530217.779
        54.000          47.000
  20636701.139    -1604129.65243  -1248280.12742  20636703.760    20636701.311
        41.000          38.000
  20597176.016    -3358534.47743  -2601160.27042  20597173.528    20597179.341
        41.000          37.000
  24241512.972    -4957351.32843  -3817279.10842  24241514.782    24241519.477
        46.000          39.000
  23203694.902    13373770.96543  10420141.61142  23203697.638    23203697.179
        48.000          44.000
  22184593.053    11787629.84343   9185637.70742  22184594.728    22184595.171
        51.000          45.000
 02  7 11 16 51  0.0000000  0 11G23G 2G22G21G18G 6G17G15G 3G29G26
  22777555.212    17051272.50143  13277771.17042  22777556.655    22777556.778
        55.000          47.000
  24866113.832    -2035206.35743  -1549790.92742  24866116.049    24866120.597
        44.000          37.000
  23884813.462    11502686.55743   8963521.50442  23884813.995    23884815.147
        47.000          40.000
  22394978.444     2650094.16843   2071880.33042  22394980.511    22394981.531
        53.000          45.000
  20463354.155     5869654.99644   4578575.66742  20463355.091    20463352.728
        57.000          51.000
  21540204.312    15659135.27043  12197821.79642  21540205.638    21540205.676
        54.000          47.000
  20635889.682    -1608391.87843  -1251601.37842  20635892.650    20635890.373
        41.000          38.000
  20594534.539    -3372403.72143  -2611967.48042  20594535.543    20594537.058
        39.000          37.000
  24229129.746    -5022427.64743  -3867987.89742  24229131.642    24229132.595
        46.000          39.000
  23211290.050    13413681.81843  10451240.91942  23211291.930    23211292.079
        48.000          43.000
  22191078.864    11821713.36443   9212196.27142  22191080.736    22191080.094
        51.000          45.000
 02  7 11 16 51 20.0000000  0 11G23G 2G22G21G18G 6G17G15G 3G29G26
  22787402.168    17103018.04243  13318092.33042  22787404.058    22787403.937
        55.000          47.000
  24864881.118    -2041684.27443  -1554838.70642  24864880.946    24864884.314
        44.000          37.000
  23889823.261    11529012.78143   8984035.34842  23889822.844    23889824.943
        46.000          40.000
  22387870.769     2612739.85743   2042773.11242  22387872.418    22387872.614
        53.000          46.000
  20461261.209     5858658.68043   4570007.11942  20461262.533    20461260.056
        56.000          50.000
  21550223.940    15711794.45543  12238854.86442  21550225.765    21550226.815
        53.000          47.000
  20635097.284    -1612565.98643  -1254853.96442  20635096.444    20635096.196
        42.000          39.000
  20591918.871    -3386176.77043  -2622699.74842  20591915.971    20591916.552
        43.000          37.000
  24216761.159    -5087423.51843  -3918634.01442  24216762.881    24216765.104
        45.000          39.000
  23218922.989    13453791.30143  10482495.02642  23218923.576    23218924.313
        48.000          43.000
  22197614.865    11856058.35843   9238958.57642  22197616.561    22197617.356
        51.000          45.000
 02  7 11 16 51 40.0000000  0 11G23G 2G22G21G18G 6G17G15G 3G29G26
  22797257.260    17154804.51243  13358445.37542  22797258.656    22797258.219
        55.000          47.000
  24863684.087    -2047971.87843  -1559738.23142  24863684.859    24863686.493
        43.000          36.000
  23894867.027    11555513.46543   9004685.15142  23894866.614    23894867.148
        46.000          40.000
  22380786.160     2575509.30843   2013762.33242  22380787.197    22380787.972
        53.000          46.000
  20459203.833     5847847.38743   4561582.74642  20459204.968    20459202.911
        56.000          50.000
  21560278.390    15764628.79143  12280024.40542  21560278.651    21560280.653
        53.000          47.000
  20634319.816    -1616650.29743  -1258036.56442  20634320.719    20634319.758
        43.000          39.000
  20589313.977    -3399852.12343  -2633355.87742  20589313.739    20589312.431
        42.000          37.000
  24204408.476    -5152337.00843  -3969215.92342  24204409.088    24204414.489
        45.000          39.000
  23226592.542    13494099.91343  10513904.29542  23226595.639    23226593.027
        47.000          43.000
  22204199.635    11890665.31643   9265924.99742  22204201.769    22204201.436
        51.000          45.000
 02  7 11 16 52  0.0000000  0 11G23G 2G22G21G18G 6G17G15G 3G29G26
  22807118.713    17206627.86943  13398827.16342  22807120.480    22807120.020
        56.000          47.000
  24862524.295    -2054072.90843  -1564492.37042  24862523.038    24862521.635
        43.000          35.000
  23899943.032    11582184.29543   9025467.51642  23899942.469    23899943.268
        47.000          40.000
  22373724.239     2538399.35243   1984845.52742  22373726.138    22373726.213
        54.000          46.000
  20457180.924     5837217.36643   4553299.61542  20457182.533    20457179.990
        56.000          50.000
  21570364.801    15817634.05343  12321327.14742  21570366.557    21570367.960
        54.000          47.000
  20633558.739    -1620648.42543  -1261152.02842  20633560.015    20633558.508
        40.000          38.000
  20586731.563    -3413433.20243  -2643938.48642  20586728.571    20586730.572
        39.000          35.000
  24192070.371    -5217170.93743  -4019735.82642  24192071.981    24192074.607
        43.000          39.000
  23234298.935    13534603.78643  10545465.71442  23234301.488    23234302.111
        47.000          42.000
  22210834.035    11925530.25143   9293092.43842  22210836.275    22210836.426
        51.000          45.000
 02  7 11 16 52 20.0000000  0 11G23G 2G22G21G18G 6G17G15G 3G29G26
  22816987.743    17258488.94743  13439238.34142  22816989.079    22816988.357
        56.000          47.000
  24861398.840    -2059986.09643  -1569100.15742  24861399.776    24861400.029
        43.000          34.000
  23905050.224    11609025.95143   9046383.00342  23905049.949    23905050.603
        47.000          40.000
  22366685.816     2501411.06043   1956023.52142  22366687.209    22366688.072
        54.000          46.000
  20455193.409     5826769.69643   4545158.58042  20455194.429    20455192.031
        56.000          50.000
  21580485.379    15870811.14143  12362763.76342  21580486.380    21580486.857
        54.000          47.000
  20632813.369    -1624558.65643  -1264198.95642  20632814.894    20632813.441
        38.000          37.000
  20584162.710    -3426918.31043  -2654446.32942  20584162.970    20584160.265
        40.000          35.000
  24179749.741    -5281923.27243  -4070192.16942  24179751.141    24179752.644
        45.000          39.000
  23242044.951    13575303.54543  10577179.76442  23242045.753    23242046.570
        47.000          42.000
  22217518.076    11960653.90043   9320461.46642  22217519.735    22217520.381
        51.000          45.000
 02  7 11 16 52 40.0000000  0 10G23G 2G22G21G18G 6G15G 3G29G26
  22826863.229    17310384.15143  13479676.11042  22826864.998    22826864.193
        56.000          47.000
  24860308.219    -2065714.82343  -1573564.20942  24860308.813    24860312.895
        43.000          34.000
  23910189.324    11636034.63243   9067428.64342  23910188.178    23910191.138
        47.000          40.000
  22359669.127     2464541.32143   1927293.89642  22359670.215    22359671.633
        54.000          46.000
  20453239.751     5816501.08043   4537157.06542  20453240.615    20453238.284
        56.000          50.000
  21590637.013    15924156.32843  12404331.35642  21590638.520    21590638.009
        55.000          47.000
  20581613.641    -3440310.44443  -2664881.86042  20581614.978    20581614.169
        40.000          35.000
  24167442.714    -5346596.44043  -4120586.82742  24167444.443    24167445.741
        45.000          39.000
  23249826.806    13616195.52743  10609043.59842  23249828.874    23249828.457
        47.000          42.000
  22224250.525    11996032.60043   9348029.23542  22224252.100    22224252.067
        51.000          45.000
 02  7 11 16 53  0.0000000  0 11G23G 2G22G21G18G 6G17G15G 3G29G26
  22836746.263    17362318.75143  13520144.57442  22836747.459    22836747.018
        55.000          46.000
  24859252.593    -2071253.36043  -1577880.04942  24859254.122    24859256.498
        41.000          34.000
  23915362.180    11663215.44343   9088608.39542  23915361.619    23915363.807
        47.000          40.000
  22352676.672     2427796.10243   1898661.29042  22352678.049    22352679.100
        54.000          46.000
  20451320.481     5806416.99243   4529299.35842  20451321.608    20451318.835
        56.000          50.000
  21600820.736    15977674.90843  12446034.06542  21600822.855    21600822.512
        54.000          47.000
  20631375.986      -56698.26053    -42489.46652  20631376.612    20631378.568
        38.000          36.000
  20579084.442    -3453603.84943  -2675240.37342  20579084.483    20579084.457
        39.000          35.000
  24155151.354    -5411183.79843  -4170914.60142  24155152.244    24155154.008
        44.000          39.000
  23257644.889    13657285.06343  10641061.37242  23257647.352    23257646.350
        47.000          42.000
  22231032.951    12031671.57543   9375799.81042  22231034.794    22231033.998
        52.000          45.000
 02  7 11 16 53 20.0000000  0 10G23G 2G22G21G18G 6G15G 3G29G26
  22846635.544    17414287.87543  13560639.93242  22846636.241    22846636.451
        55.000          47.000
  24858235.529    -2076606.27343  -1582051.23742  24858235.393    24858237.000
        42.000          34.000
  23920565.803    11690563.43343   9109918.42042  23920565.236    23920568.907
        47.000          40.000
  22345706.539     2391171.06943   1870122.34242  22345707.912    22345709.174
        53.000          46.000
  20449435.505     5796512.80243   4521581.82642  20449436.902    20449434.136
        56.000          50.000
  21611035.846    16031361.98343  12487868.08542  21611037.507    21611039.358
        53.000          47.000
  20576574.389    -3466802.30843  -2685524.86342  20576575.306    20576573.694
        43.000          36.000
  24142876.773    -5475688.90043  -4221178.29142  24142877.649    24142879.177
        44.000          38.000
  23265500.577    13698566.97043  10673229.05642  23265502.489    23265503.140
        47.000          43.000
  22237863.328    12067565.88943   9403769.36942  22237864.781    22237864.175
        52.000          45.000
 02  7 11 16 53 40.0000000  0 10G23G 2G22G21G18G 6G15G 3G29G26
  22856532.862    17466298.41643  13601167.56442  22856533.715    22856532.851
        55.000          46.000
  24857253.555    -2081766.30643  -1586072.08442  24857257.704    24857260.182
        43.000          35.000
  23925803.179    11718085.14443   9131363.79242  23925803.002    23925805.573
        48.000          40.000
  22338761.582     2354673.68243   1841682.85742  22338762.929    22338763.291
        53.000          46.000
  20447586.519     5786795.87643   4514010.19942  20447587.858    20447585.214
        56.000          50.000
  21621284.959    16085224.44343  12529838.76142  21621286.351    21621288.882
        52.000          46.000
  20574081.564    -3479898.48943  -2695729.64742  20574083.494    20574082.330
        42.000          36.000
  24130618.837    -5540103.76543  -4271371.66842  24130619.524    24130621.374
        44.000          38.000
  23273395.298    13740048.29843  10705552.11742  23273396.566    23273396.530
        49.000          43.000
  22244743.734    12103722.43243   9431943.26142  22244746.079    22244745.323
        53.000          46.000
 02  7 11 16 54  0.0000000  0 11G23G 2G22G21G18G 6G17G15G 3G29G26
  22866436.033    17518341.19243  13641720.34042  22866436.919    22866436.898
        54.000          45.000
  24856309.101    -2086742.29543  -1589949.56242  24856308.875    24856313.268
        45.000          36.000
  23931072.197    11745771.30643   9152937.34142  23931069.855    23931074.921
        49.000          41.000
  22331839.121     2318294.86843   1813335.76542  22331840.340    22331840.500
        53.000          46.000
  20445771.778     5777257.23843   4506577.50042  20445772.694    20445769.913
        56.000          50.000
  21631566.449    16139252.89043  12571938.79842  21631566.695    21631570.016
        52.000          46.000
  20629344.961      -30524.32453    -23726.47852  20629346.154    20629347.742
        40.000          37.000
  20571607.096    -3492900.73143  -2705861.28242  20571609.500    20571607.022
        42.000          36.000
  24118376.836    -5604436.38343  -4321500.93742  24118380.226    24118380.974
        43.000          38.000
  23281325.049    13781719.70243  10738023.31442  23281327.080    23281326.385
        49.000          43.000
  22251671.943    12140131.88143   9460314.22442  22251674.006    22251674.236
        53.000          46.000
 02  7 11 16 54 20.0000000  0 11G23G 2G22G21G18G 6G17G15G 3G29G26
  22876346.391    17570421.17343  13682302.08642  22876347.362    22876347.537
        53.000          45.000
  24855397.555    -2091528.82443  -1593679.40642  24855399.531    24855402.943
        46.000          37.000
  23936372.826    11773626.61443   9174642.69042  23936373.211    23936374.737
        48.000          41.000
  22324939.819     2282040.12943   1785085.35642  22324941.359    22324942.502
        53.000          46.000
  20443991.360     5767902.20843   4499287.87942  20443992.532    20443989.889
        56.000          49.000
  21641881.135    16193452.30443  12614172.04642  21641881.840    21641884.161
        52.000          46.000
  20628703.611      -33899.29743    -26356.32142  20628703.078    20628702.760
        42.000          38.000
  20569154.821    -3505803.36743  -2715915.29242  20569155.998    20569152.852
        44.000          37.000
  24106151.966    -5668680.58043  -4371561.33542  24106151.944    24106154.193
        42.000          37.000
  23289292.126    13823586.08743  10770646.43942  23289293.370    23289294.478
        49.000          43.000
  22258650.089    12176799.13543   9488886.09042  22258651.611    22258651.437
        53.000          45.000
 02  7 11 16 54 40.0000000  0 11G23G 2G22G21G18G 6G17G15G 3G29G26
  22886262.711    17622532.11743  13722907.97242  22886263.942    22886263.604
        53.000          44.000
  24854521.771    -2096131.90843  -1597266.29942  24854523.088    24854529.141
        47.000          38.000
  23941704.762    11801644.79043   9196474.92442  23941703.978    23941707.817
        49.000          41.000
  22318063.596     2245903.80543   1756927.21842  22318064.806    22318066.196
        52.000          46.000
  20442244.533     5758724.83343   4492136.68442  20442245.963    20442243.094
        55.000          49.000
  21652226.652    16247816.39543  12656533.61342  21652227.630    21652229.086
        53.000          47.000
  20628079.321      -37187.94343    -28918.88642  20628078.676    20628077.291
        45.000          39.000
  20566715.882    -3518611.92943  -2725895.98542  20566717.023    20566716.492
        43.000          36.000
  24093942.977    -5732841.32843  -4421556.68742  24093943.178    24093946.379
        41.000          37.000
  23297295.817    13865641.07643  10803416.53442  23297296.964    23297296.604
        50.000          43.000
  22265675.156    12213718.00843   9517653.99742  22265677.254    22265677.063
        53.000          45.000
 02  7 11 16 55  0.0000000  0 11G23G 2G22G21G18G 6G17G15G 3G29G26
  22896185.374    17674677.53543  13763540.72142  22896187.349    22896186.813
        52.000          44.000
  24853681.574    -2100547.69943  -1600707.24542  24853683.107    24853687.922
        46.000          39.000
  23947067.477    11829829.02743   9218436.55942  23947066.051    23947071.270
        48.000          41.000
  22311211.000     2209889.87443   1728864.44242  22311211.596    22311211.965
        53.000          46.000
  20440533.046     5749728.78843   4485126.77842  20440534.588    20440531.396
        55.000          49.000
  21662604.288    16302348.65443  12699026.19642  21662605.824    21662605.797
        54.000          47.000
  20627468.172      -40386.19543    -31411.05542  20627471.123    20627468.702
        45.000          39.000
  20564293.137    -3531322.16943  -2735800.06442  20564294.983    20564295.911
        41.000          35.000
  24081748.534    -5796913.77443  -4471483.26142  24081748.738    24081751.861
        39.000          36.000
  23305334.844    13907888.25343  10836336.38942  23305335.986    23305336.353
        50.000          43.000
  22272749.152    12250891.70143   9546620.49642  22272751.020    22272751.305
        53.000          45.000
 02  7 11 16 55 20.0000000  0 11G23G 2G22G21G18G 6G17G15G 3G29G26
  22906114.817    17726857.41043  13804200.32942  22906114.857    22906116.573
        51.000          44.000
  24852877.359    -2104775.86843  -1604001.99042  24852878.575    24852883.158
        47.000          39.000
  23952463.416    11858179.02143   9240527.38042  23952463.387    23952465.025
        47.000          41.000
  22304381.063     2173998.89343   1700897.48042  22304381.875    22304382.137
        53.000          46.000
  20438855.916     5740914.30443   4478258.35542  20438857.211    20438854.135
        55.000          49.000
  21673013.379    16357048.96143  12741649.73142  21673014.821    21673015.540
        54.000          47.000
  20626878.028      -43493.19543    -33832.11842  20626881.119    20626876.079
        46.000          39.000
  20561896.215    -3543933.45343  -2745627.06542  20561897.225    20561896.768
        39.000          35.000
  24069571.839    -5860896.77943  -4521340.10342  24069574.499    24069577.139
        37.000          35.000
  23313410.904    13950327.26743  10869405.73242  23313412.081    23313411.760
        50.000          44.000
  22279871.058    12288320.24543   9575785.57442  22279873.720    22279872.581
        52.000          45.000
 02  7 11 16 55 40.0000000  0 11G23G 2G22G21G18G 6G17G15G 3G29G26
  22916048.706    17779062.54243  13844879.61442  22916050.288    22916050.588
        51.000          44.000
  24852107.507    -2108825.40443  -1607157.54242  24852108.880    24852112.176
        48.000          40.000
  23957887.506    11886685.43943   9262740.07542  23957885.478    23957890.088
        47.000          40.000
  22297572.607     2138221.94643   1673019.36242  22297574.346    22297573.892
        53.000          46.000
  20437211.138     5732272.32043   4471524.34542  20437212.625    20437209.735
        55.000          49.000
  21683452.400    16411907.90843  12784396.88042  21683454.057    21683455.126
        54.000          47.000
  20626303.737      -46517.54243    -36188.78042  20626305.651    20626298.605
        46.000          39.000
  20559514.675    -3556454.35843  -2755383.63142  20559517.423    20559510.303
        43.000          34.000
  24057413.376    -4349378.34753  -3343533.50152  24057414.232    24057417.100
        37.000          35.000
  23321520.984    13992948.83343  10902617.31642  23321523.048    23321522.868
        50.000          44.000
  22287040.142    12325994.15143   9605141.85042  22287041.879    22287042.347
        52.000          44.000
 02  7 11 16 56  0.0000000  0 11G23G 2G22G21G18G 6G17G15G 3G29G26
  22925991.780    17831311.35143  13885592.94242  22925992.400    22925993.622
        51.000          44.000
  24851373.565    -2112677.48743  -1610159.23542  24851375.228    24851379.663
        48.000          40.000
  23963343.952    11915366.39143   9285088.77742  23963343.236    23963347.103
        45.000          40.000
  22290790.225     2102578.20043   1645245.05242  22290791.899    22290790.847
        54.000          46.000
  20435603.349     5723821.75443   4464939.48642  20435604.796    20435601.522
        55.000          50.000
  21693925.752    16466943.94743  12827282.02242  21693927.070    21693928.654
        54.000          47.000
  20625748.904      -49440.10343    -38466.14942  20625751.465    20625744.196
        46.000          38.000
  20557153.743    -3568865.64343  -2765054.76542  20557155.483    20557146.252
        42.000          34.000
  24045272.341    -4413178.83153  -3393248.16652  24045274.631    24045276.874
        38.000          35.000
  23329670.164    14035771.40443  10935985.53642  23329671.465    23329672.314
        50.000          44.000
  22294259.780    12363931.92943   9634703.73542  22294261.578    22294261.560
        52.000          44.000
 02  7 11 16 56 20.0000000  0 10G23G 2G22G21G18G 6G17G15G29G26
  22935939.621    17883587.94843  13926327.91642  22935941.165    22935941.115
        51.000          44.000
  24850676.342    -2116347.74443  -1613019.24542  24850675.820    24850681.425
        48.000          40.000
  23968832.923    11944205.73543   9307560.91742  23968831.464    23968833.692
        45.000          39.000
  22284029.292     2067052.07043   1617562.40442  22284031.009    22284029.887
        54.000          46.000
  20434028.560     5715546.81043   4458491.47742  20434029.809    20434026.990
        55.000          50.000
  21704429.242    16522141.01443  12870292.64142  21704430.641    21704432.277
        54.000          47.000
  20625206.447      -52275.91843    -40675.91342  20625208.145    20625203.687
        45.000          37.000
  20554809.363    -3581182.60543  -2774652.36442  20554812.650    20554800.114
        42.000          33.000
  23337853.767    14078778.78343  10969497.75842  23337855.407    23337856.283
        50.000          44.000
  22301526.207    12402117.46143   9664458.67942  22301528.197    22301528.366
        52.000          44.000
 02  7 11 16 56 40.0000000  0 11G23G 2G22G21G18G 6G17G15G 3G29G26
  22945893.915    17935898.77843  13967089.56642  22945894.850    22945896.275
        50.000          44.000
  24850012.535    -2119829.31743  -1615732.22742  24850014.005    24850018.010
        47.000          40.000
  23974352.300    11973209.84443   9330161.43542  23974349.886    23974352.203
        45.000          39.000
  22277292.420     2031650.74543   1589977.00142  22277293.956    22277293.094
        54.000          46.000
  20432488.753     5707454.33243   4452185.64842  20432490.022    20432486.970
        55.000          50.000
  21714965.037    16577505.56643  12913433.77742  21714966.719    21714966.834
        53.000          47.000
  20624683.754      -55017.84743    -42812.49842  20624685.145    20624682.302
        44.000          37.000
  20552484.998    -3593397.88843  -2784170.80942  20552486.753    20552478.767
        41.000          33.000
  24021041.985    -4540512.88053  -3492469.46452  24021041.575    24021045.448
        37.000          34.000
  23346074.757    14121977.71543  11003159.24642  23346076.826    23346076.399
        51.000          44.000
  22308840.854    12440557.08243   9694411.60842  22308843.164    22308842.716
        51.000          44.000
 02  7 11 16 57  0.0000000  0 11G23G 2G22G21G18G 6G17G15G 3G29G26
  22955853.728    17988237.72443  14007873.11642  22955855.988    22955856.467
        50.000          43.000
  24849385.282    -2123128.15943  -1618302.82142  24849385.911    24849390.757
        47.000          40.000
  23979901.355    12002372.30143   9352885.34842  23979901.624    23979904.012
        46.000          39.000
  22270577.734     1996368.34443   1562484.26242  22270579.583    22270579.826
        54.000          46.000
  20430982.475     5699538.35743   4446017.35842  20430983.725    20430980.584
        55.000          50.000
  21725531.186    16633031.41743  12956700.59442  21725532.671    21725533.412
        53.000          47.000
  20624178.966      -57671.20643    -44880.06042  20624178.656    20624178.046
        44.000          38.000
  20550177.387    -3605516.98143  -2793614.29442  20550180.037    20550178.110
        40.000          32.000
  24008951.416    -4604043.74853  -3541974.00752  24008953.414    24008956.841
        39.000          35.000
  23354330.466    14165361.49243  11036964.77342  23354332.534    23354331.035
        51.000          44.000
  22316203.232    12479244.61543   9724557.72442  22316205.812    22316204.480
        52.000          44.000
 02  7 11 16 57 20.0000000  0  9G23G 2G22G21G18G 6G17G29G26
  22965817.998    18040599.80943  14048674.70542  22965820.443    22965817.680
        49.000          42.000
  24848791.310    -2126248.89543  -1620734.62442  24848791.757    24848797.143
        47.000          40.000
  23985480.407    12031687.99043   9375728.64842  23985481.036    23985482.063
        47.000          39.000
  22263886.157     1961200.09543   1535080.46742  22263886.886    22263887.837
        54.000          46.000
  20429508.259     5691794.19643   4439982.94542  20429509.688    20429506.956
        55.000          50.000
  21736127.087    16688713.51243  13000089.15742  21736128.871    21736129.256
        53.000          47.000
  20623691.647      -60240.25443    -46881.89342  20623691.852    20623690.110
        47.000          39.000
  23362620.563    14208925.34543  11070910.59542  23362622.059    23362621.885
        52.000          44.000
  22323612.572    12518174.92643   9754893.01342  22323613.782    22323612.973
        53.000          44.000
 02  7 11 16 57 40.0000000  0 10G23G 2G22G21G18G 6G17G 3G29G26
  22975788.944    18092998.76543  14089505.02242  22975790.325    22975790.871
        49.000          43.000
  24848235.551    -2129177.56543  -1623016.75042  24848235.414    24848238.413
        48.000          40.000
  23991091.192    12061170.29243   9398701.75542  23991092.420    23991092.669
        47.000          39.000
  22257217.620     1926160.49243   1507776.91042  22257218.535    22257220.107
        53.000          46.000
  20428070.181     5684235.74343   4434093.23542  20428071.479    20428068.425
        55.000          50.000
  21746755.202    16744565.35743  13043610.00742  21746756.706    21746757.756
        52.000          46.000
  20623221.400      -62710.64243    -48806.87742  20623222.631    20623221.187
        48.000          41.000
  23984822.098    -4730834.31853  -3640771.75452  23984822.700    23984827.669
        38.000          35.000
  23370947.598    14252682.77843  11105007.29542  23370948.991    23370949.684
        51.000          44.000
  22331069.171    12557361.59443   9785428.05342  22331070.538    22331070.480
        53.000          45.000
 02  7 11 16 58  0.0000000  0 10G23G 2G22G21G18G 6G17G 3G29G26
  22985765.788    18145427.88743  14130358.85242  22985767.489    22985767.351
        49.000          43.000
  24847710.993    -2131920.58543  -1625154.23742  24847713.061    24847717.368
        47.000          40.000
  23996732.134    12090812.32143   9421799.33542  23996730.252    23996734.020
        48.000          39.000
  22250572.905     1891243.31443   1480568.74142  22250574.308    22250576.032
        53.000          46.000
  20426665.953     5676856.67743   4428343.31442  20426667.181    20426664.757
        55.000          50.000
  21757414.830    16800580.26043  13087257.91642  21757415.624    21757416.976
        52.000          46.000
  20622768.393      -65088.27043    -50659.58942  20622771.141    20622769.160
        48.000          42.000
  23972787.033    -4794084.51743  -3690057.58542  23972788.108    23972792.010
        37.000          35.000
  23379309.850    14296626.94343  11139249.49642  23379312.041    23379311.388
        51.000          44.000
  22338573.159    12596797.76643   9816157.52542  22338575.078    22338574.705
        52.000          45.000
 02  7 11 16 58 20.0000000  0 10G23G 2G22G21G18G 6G17G 3G29G26
  22995748.492    18197885.34843  14171234.76042  22995750.420    22995750.619
        50.000          43.000
  24847224.322    -2134479.44243  -1627148.20542  24847225.320    24847232.532
        47.000          40.000
  24002403.263    12120612.00243   9445019.74242  24002402.698    24002405.727
        48.000          39.000
  22243951.721     1856447.09343   1453454.82442  22243952.396    22243954.614
        53.000          46.000
  20425295.078     5669655.17743   4422731.74742  20425296.658    20425294.406
        55.000          50.000
  21768104.815    16856756.28443  13131031.35642  21768106.793    21768107.196
        53.000          47.000
  20622334.538      -67374.32943    -52440.93742  20622335.959    20622334.845
        49.000          42.000
  23960770.023    -4857240.45953  -3739269.97852  23960769.125    23960773.497
        38.000          35.000
  23387707.294    14340755.80543  11173635.61442  23387709.322    23387708.540
        52.000          44.000
  22346123.706    12636481.38043   9847079.81242  22346125.365    22346126.946
        52.000          45.000
 02  7 11 16 58 40.0000000  0 10G23G 2G22G21G18G 6G17G 3G29G26
  23005737.209    18250371.93043  14212133.37042  23005738.796    23005738.239
        50.000          43.000
  24846772.919    -2136853.08743  -1628997.85242  24846773.374    24846779.167
        47.000          40.000
  24008104.339    12150569.76043   9468363.33942  24008104.017    24008105.991
        48.000          39.000
  22237353.549     1821773.03543   1426436.10642  22237354.290    22237356.730
        53.000          46.000
  20423958.393     5662632.46643   4417259.49742  20423959.780    20423958.327
        54.000          50.000
  21778826.176    16913094.06743  13174930.85942  21778828.275    21778828.140
        54.000          47.000
  20621917.216      -69567.26943    -54149.71242  20621919.007    20621917.548
        49.000          43.000
  23948769.280    -4920300.05643  -3788407.28942  23948769.349    23948771.646
        38.000          35.000
  23396140.519    14385069.98843  11208166.13642  23396142.732    23396140.697
        52.000          44.000
  22353722.723    12676413.20943   9878195.51042  22353725.169    22353725.535
        51.000          44.000
 02  7 11 16 59  0.0000000  0 10G23G 2G22G21G18G 6G17G 3G29G26
  23015729.764    18302883.24043  14253051.24442  23015731.333    23015731.259
        51.000          44.000
  24846356.619    -2139045.73043  -1630706.45642  24846357.281    24846360.051
        48.000          41.000
  24013834.498    12180680.93443   9491826.47742  24013833.815    24013834.977
        48.000          39.000
  22230778.108     1787216.97243   1399509.33542  22230779.128    22230779.204
        53.000          46.000
  20422655.128     5655784.35443   4411923.29842  20422656.496    20422655.172
        54.000          50.000
  21789576.350    16969589.01243  13218952.81742  21789578.440    21789579.288
        54.000          47.000
  20621515.605      -71670.87243    -55788.87542  20621517.215    20621516.951
        49.000          43.000
  23936787.318    -4983266.48843  -3837471.99242  23936787.483    23936791.340
        38.000          36.000
  23404607.606    14429565.03043  11242837.59142  23404609.612    23404609.403
        52.000          44.000
  22361367.810    12716588.56943   9909500.97642  22361369.202    22361371.350
        51.000          44.000
 02  7 11 16 59 20.0000000  0 10G23G 2G22G21G18G 6G17G 3G29G26
  23025727.860    18355423.78743  14293991.88742  23025729.068    23025729.286
        52.000          44.000
  24845974.678    -2141052.66743  -1632270.38442  24845976.151    24845978.842
        49.000          41.000
  24019595.110    12210949.88943   9515412.59742  24019593.625    24019596.475
        48.000          39.000
  22224225.833     1752783.90243   1372678.40742  22224226.386    22224226.879
        53.000          46.000
  20421386.332     5649115.49643   4406726.77042  20421387.365    20421386.458
        54.000          50.000
  21800358.191    17026245.53943  13263100.68042  21800359.798    21800360.340
        54.000          47.000
  20621133.007      -73679.85643    -57354.31742  20621134.330    20621134.787
        49.000          42.000
  23924823.200    -5046134.15653  -3886459.76952  23924822.636    23924828.392
        38.000          35.000
  23413109.481    14474245.36443  11277653.43242  23413110.953    23413110.985
        52.000          44.000
  22369060.591    12757011.83743   9940999.60442  22369061.531    22369062.959
        50.000          44.000
 02  7 11 16 59 40.0000000  0 10G23G 2G22G21G18G 6G17G 3G29G26
  23035732.040    18407993.42643  14334955.20042  23035733.529    23035732.870
        52.000          44.000
  24845629.012    -2142873.70643  -1633689.45042  24845630.052    24845632.613
        49.000          41.000
  24025384.908    12241376.05343   9539121.18042  24025381.836    24025383.976
        47.000          39.000
  22217696.507     1718474.48843   1345943.82642  22217697.765    22217698.477
        53.000          46.000
  20420151.425     5642626.00143   4401670.01342  20420152.637    20420151.488
        54.000          50.000
  21811170.214    17083063.50043  13307374.33442  21811171.280    21811171.851
        54.000          46.000
  20620769.277      -75593.49343    -58845.47042  20620771.163    20620770.036
        49.000          42.000
  23912881.941    -5108901.95753  -3935369.67952  23912879.363    23912884.848
        38.000          36.000
  23421646.761    14519110.60943  11312613.35942  23421647.971    23421648.188
        51.000          44.000
  22376799.473    12797682.72943   9972691.20542  22376801.878    22376803.364
        50.000          44.000
 02  7 11 17  0  0.0000000  0 10G23G 2G22G21G18G 6G17G 3G29G26
  23045740.754    18460586.37543  14375936.68142  23045743.267    23045740.922
        53.000          44.000
  24845316.485    -2144514.34943  -1634967.94942  24845317.805    24845320.531
        49.000          41.000
  24031202.299    12271953.53243   9562947.69142  24031200.351    24031209.148
        47.000          38.000
  22211190.341     1684283.27443   1319301.35642  22211191.314    22211191.700
        53.000          46.000
  20418950.129     5636310.19643   4396748.59842  20418951.079    20418949.456
        55.000          50.000
  21822012.006    17140036.84743  13351769.06442  21822013.296    21822012.885
        54.000          46.000
  20620422.156      -77416.95043    -60266.34842  20620424.108    20620422.482
        50.000          42.000
  23900954.851    -5171574.45243  -3984205.34542  23900954.771    23900957.761
        39.000          36.000
  23430218.505    14564154.87243  11347712.78442  23430220.075    23430220.933
        51.000          44.000
  22384584.461    12838595.28943  10004571.12542  22384586.001    22384586.984
        49.000          43.000
 02  7 11 17  0 20.0000000  0 10G23G 2G22G21G18G 6G17G 3G29G26
  23055753.912    18513207.92143  14416940.43442  23055755.554    23055754.877
        53.000          44.000
  24845039.118    -2145969.08543  -1636101.58242  24845041.775    24845042.583
        48.000          41.000
  24037049.729    12302687.31743   9586895.98042  24037050.564    24037053.750
        45.000          38.000
  22204708.189     1650215.73543   1292755.25542  22204708.584    22204709.321
        53.000          46.000
  20417782.417     5630173.80143   4391966.99242  20417783.600    20417781.633
        55.000          51.000
  21832884.587    17197170.80743  13396288.94742  21832886.470    21832885.250
        54.000          46.000
  20620093.195      -79144.27843    -61612.33642  20620094.932    20620093.889
        50.000          42.000
  23889048.102    -5234145.12743  -4032961.67542  23889047.119    23889049.289
        40.000          36.000
  23438825.414    14609383.29943  11382955.71642  23438827.632    23438826.772
        51.000          44.000
  22392417.141    12879754.67643  10036643.36642  22392419.843    22392420.170
        49.000          43.000
 02  7 11 17  0 40.0000000  0 10G23G 2G22G21G18G 6G17G 3G29G26
  23065772.287    18565854.43443  14457963.63942  23065774.637    23065772.569
        53.000          44.000
  24844796.930    -2147241.41243  -1637093.07242  24844798.807    24844800.615
        47.000          41.000
  24042926.925    12333573.45743   9610963.02042  24042924.984    24042932.187
        45.000          39.000
  22198247.791     1616268.66243   1266303.02342  22198248.437    22198248.934
        53.000          46.000
  20416647.961     5624213.23643   4387322.39742  20416649.072    20416647.353
        55.000          51.000
  21843786.807    17254461.57543  13440931.00342  21843788.298    21843787.367
        54.000          46.000
  20619782.560      -80778.39743    -62885.69442  20619782.794    20619782.639
        51.000          42.000
  23877160.588    -5296616.49143  -4081640.59442  23877162.856    23877164.040
        41.000          36.000
  23447466.383    14654791.95343  11418339.07642  23447467.953    23447467.437
        51.000          44.000
  22400294.993    12921156.89043  10068904.84142  22400295.943    22400297.688
        48.000          42.000
 02  7 11 17  1  0.0000000  0 10G23G 2G22G21G18G 6G17G 3G29G26
  23075795.543    18618526.27343  14499006.59042  23075797.081    23075797.006
        52.000          44.000
  24844589.825    -2148330.62943  -1637941.87742  24844589.923    24844596.355
        47.000          40.000
  24048834.414    12364612.08143   9635148.87742  24048834.712    24048838.419
        46.000          39.000
  22191810.278     1582443.07143   1239945.45542  22191811.628    22191812.402
        53.000          46.000
  20415547.466     5618428.93443   4382815.14742  20415548.503    20415546.369
        55.000          51.000
  21854718.591    17311909.37943  13485695.43042  21854720.653    21854719.612
        54.000          46.000
  20619489.784      -82318.14243    -64085.53842  20619490.568    20619486.811
        51.000          42.000
  23865293.498    -5358986.87043  -4130240.84242  23865292.875    23865292.728
        40.000          36.000
  23456142.456    14700381.19943  11453863.15342  23456144.525    23456143.179
        52.000          44.000
  22408220.413    12962802.24443  10101355.76842  22408220.483    22408223.416
        48.000          42.000
 02  7 11 17  1 20.0000000  0 10G23G 2G22G21G18G 6G17G 3G29G26
  23085823.036    18671222.88843  14540068.84342  23085824.123    23085824.345
        52.000          44.000
  24844418.276    -2149237.07543  -1638648.28842  24844417.260    24844421.693
        46.000          40.000
  24054768.610    12395802.45843   9659452.98242  24054770.195    24054773.954
        45.000          39.000
  22185397.781     1548738.89843   1213682.49142  22185398.114    22185399.197
        53.000          46.000
  20414480.674     5612820.67743   4378445.07842  20414481.821    20414479.028
        56.000          51.000
  21865680.401    17369513.63443  13530581.76842  21865681.216    21865680.937
        53.000          46.000
  20619214.553      -83763.36843    -65211.71742  20619217.114    20619212.323
        52.000          42.000
  23853442.268    -5421255.66543  -4178761.95842  23853443.112    23853445.430
        41.000          36.000
  23464851.732    14746150.27943  11489527.37242  23464853.857    23464853.442
        52.000          44.000
  22416192.121    13004690.02543  10133995.59442  22416192.372    22416191.623
        49.000          42.000
 02  7 11 17  1 40.0000000  0 10G23G 2G22G21G18G 6G17G 3G29G26
  23095855.678    18723944.85243  14581150.85042  23095856.894    23095856.822
        51.000          44.000
  24844280.730    -2149959.96843  -1639211.63742  24844281.016    24844285.948
        45.000          40.000
  24060734.001    12427144.77343   9683875.48642  24060732.564    24060738.311
        45.000          39.000
  22179007.079     1515156.97443   1187514.78742  22179007.443    22179008.405
        53.000          46.000
  20413446.961     5607389.34843   4374212.87942  20413448.010    20413445.527
        56.000          51.000
  21876671.588    17427274.69243  13575590.29242  21876672.515    21876673.554
        53.000          45.000
  20618958.288      -85112.78243    -66263.23942  20618959.697    20618957.514
        52.000          43.000
  23841613.651    -5483421.15443  -4227202.52342  23841616.311    23841615.360
        43.000          37.000
  23473595.363    14792099.62243  11525332.04142  23473597.802    23473596.791
        52.000          44.000
  22424209.397    13046820.55143  10166824.57642  22424210.667    22424210.746
        49.000          41.000
 02  7 11 17  2  0.0000000  0 10G23G 2G22G21G18G 6G17G 3G29G26
  23105892.203    18776688.17943  14622249.50642  23105893.864    23105892.218
        50.000          44.000
  24844175.360    -2150503.17843  -1639634.97642  24844176.878    24844180.947
        43.000          40.000
  24066727.381    12458634.69443   9708413.00042  24066726.639    24066730.653
        46.000          39.000
  22172638.366     1481693.70843   1161439.54642  22172639.426    22172640.267
        52.000          46.000
  20412446.602     5602130.91543   4370115.40042  20412447.719    20412445.036
        56.000          51.000
  21887692.060    17485188.39243  13620717.75542  21887693.181    21887694.480
        52.000          45.000
  20618718.418      -86369.75843    -67242.72442  20618720.808    20618720.025
        51.000          43.000
  23829803.542    -5545486.00043  -4275564.71242  23829804.708    23829805.429
        43.000          37.000
  23482371.928    14838225.00243  11561273.87742  23482374.268    23482374.674
        51.000          44.000
  22432272.406    13089189.51843  10199839.37242  22432274.065    22432274.224
        50.000          42.000
 02  7 11 17  2 20.0000000  0 10G23G 2G22G21G18G 6G17G 3G29G26
  23115934.151    18829458.77043  14663369.40942  23115935.367    23115936.969
        50.000          44.000
  24844106.896    -2150860.63143  -1639913.55542  24844107.028    24844113.946
        43.000          39.000
  24072747.468    12490277.91743   9733069.95642  24072746.541    24072751.174
        46.000          39.000
  22166294.505     1448355.42843   1135461.68942  22166295.312    22166296.390
        53.000          46.000
  20411479.122     5597051.54243   4366157.44242  20411480.875    20411478.632
        56.000          51.000
  21898742.013    17543260.44743  13665968.62842  21898743.366    21898744.501
        51.000          45.000
  20618498.311      -87527.53043    -68144.94042  20618499.696    20618500.832
        52.000          43.000
  23818011.453    -5607443.21443  -4323843.01642  23818013.413    23818014.403
        42.000          37.000
  23491184.168    14884532.06043  11597357.27842  23491186.414    23491186.283
        51.000          44.000
  22440381.500    13131802.63543  10233044.38442  22440382.879    22440380.302
        50.000          42.000
 02  7 11 17  2 40.0000000  0 10G23G 2G22G21G18G 6G17G 3G29G26
  23125980.031    18882251.41743  14704506.50042  23125982.294    23125982.229
        49.000          43.000
  24844075.180    -2151037.40343  -1640051.35542  24844076.328    24844080.454
        44.000          40.000
  24078797.804    12522068.82843   9757842.00642  24078797.236    24078801.823
        47.000          39.000
  22159973.059     1415137.31043   1109577.46842  22159973.583    22159974.858
        53.000          46.000
  20410545.698     5592146.26543   4362335.14942  20410547.125    20410545.230
        56.000          51.000
  21909822.551    17601485.48143  13711338.70442  21909822.977    21909824.749
        51.000          45.000
  20618296.452      -88590.72243    -68973.41942  20618298.184    20618296.661
        52.000          44.000
  23806241.513    -5669296.87243  -4372040.62042  23806242.991    23806245.400
        43.000          38.000
  23500029.689    14931015.55043  11633578.16442  23500032.070    23500032.253
        51.000          44.000
  22448535.145    13174654.49943  10266435.45442  22448537.497    22448537.464
        50.000          42.000
 02  7 11 17  3  0.0000000  0 10G23G 2G22G21G18G 6G17G 3G29G26
  23136029.235    18935063.83143  14745659.01542  23136029.909    23136030.535
        49.000          43.000
  24844075.020    -2151035.39843  -1640049.83442  24844076.598    24844081.575
        44.000          40.000
  24084875.103    12554004.91943   9782727.18142  24084874.901    24084876.713
        47.000          39.000
  22153674.869     1382037.60143   1083785.51942  22153675.438    22153676.188
        54.000          47.000
  20409645.394     5587413.03043   4358646.90942  20409646.808    20409644.538
        56.000          52.000
  21920930.777    17659861.04743  13756826.06742  21920931.652    21920933.067
        51.000          45.000
  20618111.958      -89560.86143    -69729.39442  20618112.875    20618112.366
        52.000          44.000
  23794490.037    -5731047.96743  -4420158.31242  23794491.227    23794494.403
        43.000          38.000
  23508908.897    14977672.99043  11669934.58442  23508910.021    23508910.772
        51.000          44.000
  22456734.542    13217742.69943  10300010.67542  22456737.322    22456736.151
        49.000          42.000
 02  7 11 17  3 20.0000000  0 10G23G 2G22G21G18G 6G17G 3G29G26
  23146082.854    18987901.33343  14786831.06842  23146084.807    23146086.471
        48.000          43.000
  24844110.370    -2150849.05143  -1639904.68642  24844113.356    24844115.412
        44.000          39.000
  24090980.252    12586091.23643   9807729.41042  24090980.458    24090982.346
        47.000          38.000
  22147399.072     1349061.65643   1058090.01242  22147400.652    22147401.272
        54.000          47.000
  20408778.657     5582857.17143   4355096.88342  20408779.796    20408777.550
        56.000          52.000
  21932069.274    17718392.38643  13802434.82242  21932069.557    21932072.435
        51.000          45.000
  20617945.833      -90432.01143    -70408.20742  20617946.344    20617946.244
        51.000          44.000
  23782759.562    -5792690.07343  -4468191.06042  23782760.878    23782765.356
        44.000          38.000
  23517821.719    15024509.39443  11706430.46842  23517823.304    23517823.480
        51.000          44.000
  22464980.469    13261072.26043  10333773.95942  22464981.746    22464981.449
        49.000          43.000
 02  7 11 17  3 40.0000000  0 10G23G 2G22G21G18G 6G17G 3G29G26
  23156141.581    19040758.53443  14828018.47442  23156142.038    23156144.855
        48.000          43.000
  24844180.262    -2150483.55643  -1639619.95242  24844182.220    24844186.314
        44.000          40.000
  24097114.013    12618322.06243   9832844.22442  24097113.573    24097114.626
        46.000          38.000
  22141147.234     1316204.60943   1032487.15542  22141148.518    22141148.310
        55.000          47.000
  20407944.305     5578473.57044   4351681.09042  20407945.471    20407943.354
        57.000          52.000
  21943236.252    17777073.96043  13848160.63842  21943236.869    21943238.954
        52.000          45.000
  20617797.925      -91208.64943    -71013.40842  20617799.182    20617799.239
        51.000          44.000
  23771049.582    -5854227.07043  -4516141.94642  23771050.430    23771052.888
        43.000          38.000
  23526767.089    15071519.32143  11743061.55542  23526768.296    23526769.025
        50.000          44.000
  22473269.620    13304637.59843  10367720.97042  22473269.754    22473271.644
        48.000          43.000
 02  7 11 17  4  0.0000000  0 10G23G 2G22G21G18G 6G17G 3G29G26
  23166205.169    19093639.61643  14869224.47742  23166206.351    23166207.643
        48.000          43.000
  24844284.919    -2149934.48743  -1639192.16042  24844287.449    24844291.670
        45.000          39.000
  24103276.208    12650701.31343   9858074.71842  24103276.096    24103277.985
        47.000          38.000
  22134918.447     1283471.43943   1006980.83042  22134919.710    22134920.685
        55.000          47.000
  20407143.823     5574266.64244   4348402.95942  20407145.169    20407142.596
        57.000          52.000
  21954432.606    17835909.74743  13894006.62542  21954434.773    21954435.183
        53.000          46.000
  20617668.900      -91886.04443    -71541.23942  20617670.541    20617670.901
        51.000          44.000
  23759359.922    -5915653.76043  -4564006.84842  23759362.153    23759364.862
        44.000          38.000
  23535746.401    15118706.72343  11779830.94242  23535748.382    23535748.385
        50.000          44.000
  22481604.348    13348442.59843  10401854.70542  22481606.690    22481609.010
        47.000          43.000
 02  7 11 17  4 20.0000000  0 10G23G 2G22G21G18G 6G17G 3G29G26
  23176272.043    19146538.41943  14910444.28442  23176273.508    23176274.519
        49.000          43.000
  24844422.454    -2149208.07543  -1638626.17942  24844424.321    24844429.549
        44.000          39.000
  24109465.053    12683222.33743   9883415.66742  24109463.104    24109464.343
        47.000          38.000
  22128711.167     1250856.08643    981566.29942  22128712.881    22128713.946
        55.000          47.000
  20406375.479     5570230.15444   4345257.64242  20406376.964    20406374.359
        57.000          52.000
  21965657.576    17894893.28043  13939967.72242  21965659.211    21965660.220
        54.000          46.000
  20617558.001      -92469.73443    -71996.07342  20617559.810    20617559.139
        51.000          44.000
  23747690.921    -5976975.27843  -4611789.79442  23747692.331    23747694.861
        44.000          37.000
  23544757.613    15166065.10643  11816733.54542  23544759.951    23544761.158
        49.000          43.000
  22489985.292    13392480.73343  10436170.11542  22489987.103    22489988.282
        47.000          43.000
 02  7 11 17  4 40.0000000  0 10G23G 2G22G21G18G 6G17G 3G29G26
  23186342.278    19199457.45743  14951679.85142  23186344.027    23186343.783
        50.000          44.000
  24844594.459    -2148301.54243  -1637919.86242  24844593.961    24844601.375
        43.000          39.000
  24115679.994    12715887.39043   9908868.83642  24115679.311    24115684.418
        47.000          39.000
  22122528.093     1218361.07143    956245.54742  22122529.005    22122530.192
        55.000          47.000
  20405640.457     5566366.79044   4342247.22842  20405641.623    20405639.030
        57.000          52.000
  21976909.843    17954026.84843  13986045.72742  21976911.945    21976912.899
        54.000          46.000
  20617465.446      -92956.49643    -72375.37142  20617466.809    20617466.535
        52.000          45.000
  23736041.473    -6038187.98443  -4659487.97642  23736042.619    23736045.662
        43.000          37.000
  23553802.697    15213596.82743  11853771.23342  23553805.138    23553805.563
        49.000          43.000
  22498408.962    13436754.31843  10470668.98242  22498411.734    22498413.677
        46.000          43.000
 02  7 11 17  5  0.0000000  0 10G23G 2G22G21G18G 6G17G 3G29G26
  23196416.892    19252397.45743  14992931.73742  23196418.334    23196418.120
        51.000          44.000
  24844800.965    -2147214.05743  -1637072.50642  24844802.801    24844809.735
        42.000          38.000
  24121923.331    12748696.74043   9934434.45542  24121921.971    24121928.164
        47.000          39.000
  22116367.258     1185987.81443    931019.68642  22116368.671    22116370.560
        54.000          47.000
  20404938.215     5562677.44244   4339372.40942  20404939.538    20404936.897
        57.000          52.000
  21988192.263    18013311.12743  14032241.16642  21988194.502    21988194.482
        54.000          46.000
  20617391.088      -93344.79343    -72677.94442  20617392.760    20617392.465
        52.000          46.000
  23724414.478    -6099289.76643  -4707099.72142  23724414.956    23724420.626
        40.000          37.000
  23562880.191    15261302.34143  11890944.34142  23562881.241    23562884.015
        48.000          43.000
  22506880.832    13481263.84243  10505351.70542  22506880.788    22506883.711
        47.000          43.000
 02  7 11 17  5 20.0000000  0 10G23G 2G22G21G18G 6G17G 3G29G26
  23206494.935    19305354.29443  15034196.74642  23206495.961    23206495.088
        52.000          44.000
  24845042.883    -2145949.62543  -1636087.28942  24845042.954    24845050.036
        43.000          38.000
  24128193.217    12781646.12443   9960109.21942  24128192.176    24128197.030
        47.000          39.000
  22110228.605     1153732.59843    905885.79142  22110229.904    22110231.798
        53.000          46.000
  20404268.542     5559158.33644   4336630.24542  20404270.014    20404267.276
        57.000          52.000
  21999501.457    18072741.72943  14078550.62842  21999503.214    21999503.885
        53.000          46.000
  20617334.987      -93638.20043    -72906.58342  20617336.979    20617337.159
        52.000          46.000
  23712807.700    -6160283.52443  -4754627.28442  23712809.292    23712813.784
        42.000          36.000
  23571990.856    15309177.32843  11928249.49942  23571992.677    23571994.020
        48.000          43.000
  22515395.816    13526004.83043  10540214.79242  22515396.803    22515396.718
        48.000          43.000
 02  7 11 17  5 40.0000000  0 10G23G 2G22G21G18G 6G17G 3G29G26
  23216576.302    19358333.79643  15075479.40642  23216577.510    23216577.294
        52.000          44.000
  24845318.573    -2144502.16443  -1634959.43642  24845319.781    24845325.669
        43.000          38.000
  24134491.658    12814741.02143   9985897.39042  24134490.712    24134495.595
        45.000          39.000
  22104114.287     1121601.38043    880848.52242  22104115.284    22104117.199
        53.000          45.000
  20403632.766     5555815.35744   4334025.32842  20403633.834    20403631.153
        57.000          52.000
  22010838.924    18132324.32943  14124978.53342  22010840.493    22010842.433
        53.000          46.000
  20617299.148      -93830.06443    -73056.11142  20617300.334    20617300.843
        53.000          47.000
  23701221.948    -6221162.41743  -4802065.34942  23701223.504    23701227.398
        42.000          36.000
  23581134.320    15357227.33243  11965691.04042  23581135.333    23581137.831
        47.000          42.000
  22523955.326    13570982.89343  10575262.61642  22523956.089    22523956.384
        49.000          43.000
 02  7 11 17  6  0.0000000  0 10G23G 2G22G21G18G 6G17G 3G29G26
  23226660.579    19411329.14243  15116774.43142  23226661.907    23226662.017
        52.000          44.000
  24845627.702    -2142878.17143  -1633694.05142  24845629.682    24845634.206
        43.000          38.000
  24140816.542    12847974.31543  10011793.37642  24140814.905    24140821.443
        45.000          39.000
  22098021.890     1089588.03543    855903.10242  22098022.555    22098024.300
        52.000          45.000
  20403029.033     5552641.80444   4331552.43542  20403030.127    20403027.244
        57.000          52.000
  22022204.663    18192051.98243  14171519.47842  22022207.083    22022207.377
        52.000          46.000
  20617281.264      -93926.35143    -73131.15842  20617282.154    20617281.540
        54.000          47.000
  23689659.632    -6281931.83143  -4849418.12142  23689658.638    23689663.074
        42.000          36.000
  23590309.847    15405445.53243  12003263.64142  23590311.679    23590313.699
        47.000          42.000
  22532557.575    13616191.07243  10610489.76742  22532559.190    22532559.197
        49.000          44.000
 02  7 11 17  6 20.0000000  0 10G23G 2G22G21G18G 6G17G 3G29G26
  23236748.595    19464342.14543  15158083.21242  23236750.498    23236751.245
        51.000          44.000
  24845970.491    -2141075.77443  -1632289.63142  24845971.129    24845978.104
        43.000          38.000
  24147165.427    12881347.42243  10037798.31242  24147165.392    24147171.189
        45.000          39.000
  22091953.401     1057694.51243    831051.04842  22091954.411    22091955.713
        52.000          45.000
  20402457.659     5549639.65344   4329213.09742  20402458.674    20402456.113
        57.000          52.000
  22033598.609    18251926.27443  14218174.67842  22033600.095    22033602.144
        52.000          46.000
  20617281.124      -93924.80543    -73129.97242  20617282.829    20617282.202
        54.000          47.000
  23678117.801    -6342588.94443  -4896683.38942  23678115.919    23678119.694
        43.000          36.000
  23599518.501    15453833.52843  12040968.55642  23599519.949    23599521.385
        48.000          42.000
  22541204.356    13661630.82343  10645897.35442  22541206.663    22541205.775
        49.000          44.000
 02  7 11 17  6 40.0000000  0 10G23G 2G22G21G18G 6G17G 3G29G26
  23246840.254    19517374.35343  15199406.96142  23246840.955    23246842.314
        51.000          44.000
  24846348.371    -2139093.33943  -1630744.92542  24846349.715    24846354.065
        44.000          37.000
  24153544.842    12914861.56043  10063913.15542  24153544.829    24153549.850
        45.000          39.000
  22085908.806     1025922.75943    806293.88942  22085908.770    22085909.666
        52.000          45.000
  20401918.883     5546810.53144   4327008.58142  20401920.565    20401917.921
        57.000          51.000
  22045020.138    18311948.52243  14264945.17242  22045021.695    22045023.095
        51.000          45.000
  20617300.743      -93823.03143    -73050.69542  20617302.247    20617301.633
        55.000          48.000
  23666597.363    -6403131.12943  -4943859.07842  23666598.068    23666600.385
        45.000          37.000
  23608759.361    15502392.57743  12078806.74742  23608760.457    23608762.383
        47.000          42.000
  22549895.473    13707303.48743  10681486.42842  22549898.213    22549896.554
        48.000          44.000
 02  7 11 17  7  0.0000000  0 11G23G 2G22G21G18G 6G17G15G 3G29G26
  23256934.479    19570421.38843  15240742.26942  23256934.978    23256937.182
        50.000          44.000
  24846758.036    -2136935.12543  -1629063.27242  24846759.728    24846764.570
        44.000          37.000
  24159949.714    12948512.00843  10090134.19242  24159949.982    24159952.650
        47.000          40.000
  22079884.840      994269.03343    781628.68242  22079885.769    22079885.419
        53.000          46.000
  20401411.936     5544150.18843   4324935.58142  20401413.862    20401411.635
        56.000          51.000
  22056468.648    18372114.11143  14311827.36542  22056469.626    22056471.760
        51.000          45.000
  20617338.274      -93624.77843    -72896.22342  20617339.562    20617339.042
        55.000          47.000
  20489963.236
        42.000
  23655097.365    -6463561.41643  -4990947.60442  23655098.627    23655101.253
        46.000          37.000
  23618031.292    15551117.98143  12116774.57842  23618032.327    23618034.283
        48.000          42.000
  22558630.606    13753204.23743  10717253.24642  22558632.895    22558631.864
        49.000          44.000
 02  7 11 17  7 20.0000000  0 11G23G 2G22G21G18G 6G17G15G 3G29G26
  23267032.658    19623487.57743  15282092.50842  23267032.664    23267035.535
        50.000          44.000
  24847204.998    -2134596.74043  -1627241.21742  24847204.819    24847208.562
        46.000          37.000
  24166378.906    12982302.71743  10116464.52742  24166381.083    24166383.073
        47.000          39.000
  22073885.301      962737.83243    757058.95942  22073885.140    22073885.986
        53.000          46.000
  20400938.841     5541663.23243   4322997.68942  20400940.172    20400938.278
        56.000          51.000
  22067945.821    18432427.10243  14358824.42542  22067946.736    22067949.304
        51.000          45.000
  20617395.385      -93325.19143    -72662.79942  20617396.510    20617395.879
        55.000          47.000
  20488256.178
        44.000
  23643620.815    -6523874.43843  -5037944.72742  23643621.001    23643624.882
        45.000          38.000
  23627336.165    15600013.77443  12154875.17542  23627337.478    23627339.414
        48.000          42.000
  22567409.050    13799337.09543  10753200.92042  22567410.841    22567411.150
        49.000          44.000
 02  7 11 17  7 40.0000000  0 11G23G 2G22G21G18G 6G17G15G 3G29G26
  23277134.433    19676573.92643  15323458.45542  23277134.847    23277136.985
        49.000          44.000
  24847684.080    -2132077.00743  -1625277.87142  24847685.584    24847685.637
        46.000          36.000
  24172834.997    13016234.38543  10142904.68242  24172835.425    24172840.547
        45.000          39.000
  22067907.539      931330.38243    732585.65942  22067908.246    22067909.469
        54.000          47.000
  20400498.524     5539350.62443   4321195.64742  20400499.912    20400498.175
        55.000          51.000
  22079452.114    18492888.34943  14405936.98942  22079453.220    22079453.898
        52.000          45.000
  20617472.121      -92922.27943    -72348.85942  20617473.171    20617472.412
        54.000          47.000
  20486578.004
        45.000
  23632166.718    -6584067.86543  -5084848.66442  23632166.658    23632168.961
        46.000          39.000
  23636673.595    15649080.82043  12193109.21542  23636675.231    23636676.222
        48.000          42.000
  22576231.661    13845702.91243  10789330.11142  22576233.829    22576233.577
        48.000          43.000
 02  7 11 17  8  0.0000000  0 11G23G 2G22G21G18G 6G17G15G 3G29G26
  23287238.476    19729671.16243  15364832.89342  23287240.325    23287241.173
        49.000          44.000
  24848196.476    -2129384.99443  -1623180.31042  24848197.880    24848195.747
        46.000          36.000
  24179316.003    13050297.49343  10169447.26742  24179316.384    24179322.051
        44.000          38.000
  22061952.586      900038.03343    708202.04642  22061953.718    22061955.108
        54.000          47.000
  20400090.183     5537203.42143   4319522.49342  20400091.228    20400089.396
        55.000          51.000
  22090984.256    18553488.52843  14453157.81442  22090985.568    22090985.375
        52.000          45.000
  20617567.328      -92424.71343    -71961.16542  20617568.381    20617566.657
        54.000          47.000
  20484917.063
        44.000
  23620732.784    -6644149.73443  -5131665.68742  23620734.237    23620736.641
        46.000          39.000
  23646040.467    15698309.75843  12231469.40142  23646041.732    23646044.672
        47.000          42.000
  22585097.064    13892292.06843  10825633.33342  22585097.481    22585099.708
        47.000          43.000
 02  7 11 17  8 20.0000000  0 11G23G 2G22G21G18G 6G17G15G 3G29G26
  23297346.264    19782785.96043  15406221.00142  23297347.033    23297349.559
        49.000          43.000
  24848742.809    -2126514.01543  -1620943.28742  24848742.902    24848739.358
        46.000          35.000
  24185826.098    13084498.14943  10196097.02142  24185824.362    24185827.061
        44.000          38.000
  22056021.713      868867.51643    683913.37942  22056023.032    22056023.035
        55.000          47.000
  20399714.706     5535228.22843   4317983.37942  20399715.552    20399713.564
        56.000          51.000
  22102544.744    18614233.85743  14500491.73042  22102545.653    22102544.773
        53.000          45.000
  20617681.541      -91825.06943    -71493.92042  20617682.529    20617681.268
        55.000          48.000
  20483277.994
        45.000
  23609322.114    -6704112.32143  -5178389.76142  23609323.418    23609327.618
        46.000          39.000
  23655441.203    15747706.84643  12269960.59542  23655444.038    23655444.660
        48.000          42.000
  22594006.463    13939110.97243  10862115.55842  22594007.092    22594008.540
        48.000          43.000
 02  7 11 17  8 40.0000000  0 11G23G 2G22G21G18G 6G17G15G 3G29G26
  23307455.674    19835910.88543  15447617.00142  23307456.026    23307457.056
        49.000          43.000
  24849322.067    -2123471.29943  -1618572.46242  24849323.079    24849317.049
        47.000          35.000
  24192357.595    13118828.63543  10222847.94642  24192355.130    24192362.783
        43.000          37.000
  22050112.200      837811.80743    659714.16242  22050113.170    22050112.873
        55.000          47.000
  20399370.380     5533417.90543   4316572.73042  20399371.603    20399369.393
        56.000          51.000
  22114130.450    18675116.71643  14547932.80842  22114132.158    22114131.524
        53.000          45.000
  20617813.234      -91130.30343    -70952.55342  20617814.738    20617813.849
        55.000          48.000
  20481655.981
        44.000
  23597933.505    -6763962.02043  -5225025.87042  23597934.067    23597936.149
        46.000          39.000
  23664871.270    15797264.32743  12308576.79442  23664874.020    23664875.481
        49.000          42.000
  22602957.370    13986151.79543  10898770.71342  22602959.385    22602960.717
        47.000          43.000
 02  7 11 17  9  0.0000000  0 11G23G 2G22G21G18G 6G17G15G 3G29G26
  23317569.064    19889056.25343  15489028.92942  23317569.736    23317569.560
        49.000          43.000
  24849935.773    -2120246.51443  -1616059.77042  24849939.110    24849934.282
        47.000          36.000
  24198916.330    13153298.91943  10249707.84142  24198915.494    24198920.913
        42.000          36.000
  22044225.715      806881.68843    635612.80342  22044227.100    22044227.008
        55.000          47.000
  20399059.421     5531782.80943   4315298.62542  20399060.447    20399058.044
        56.000          51.000
  22125743.619    18736147.18143  14595488.90342  22125744.938    22125745.094
        52.000          45.000
  20617965.663      -90329.20243    -70328.32342  20617967.190    20617966.587
        55.000          48.000
  20480056.645
        44.000
  23586567.000    -6823687.34843  -5271565.06542  23586567.979    23586572.006
        45.000          38.000
  23674334.157    15846992.50543  12347325.99242  23674335.765    23674338.365
        49.000          42.000
  22611953.264    14033424.51143  10935606.55642  22611954.485    22611955.858
        47.000          43.000
 02  7 11 17  9 20.0000000  0 11G23G 2G22G21G18G 6G17G15G 3G29G26
  23327684.305    19942212.66543  15530449.46442  23327684.667    23327684.068
        49.000          43.000
  24850582.401    -2116848.98643  -1613412.42642  24850584.220    24850583.384
        46.000          36.000
  24205500.136    13187899.21343  10276669.00542  24205499.039    24205503.779
        42.000          37.000
  22038361.545      776067.86243    611602.06642  22038363.127    22038363.370
        54.000          47.000
  20398779.488     5530313.54143   4314153.74142  20398780.954    20398778.399
        56.000          51.000
  22137383.297    18797315.61443  14643152.50942  22137384.126    22137385.459
        51.000          44.000
  20618136.244      -89430.63543    -69628.15542  20618138.019    20618137.763
        55.000          49.000
  20478477.463
        42.000
  23575224.225    -6883296.43143  -5318013.68842  23575224.558    23575226.625
        45.000          38.000
  23683827.553    15896881.53443  12386200.53042  23683829.313    23683832.545
        48.000          42.000
  22620991.754    14080919.44343  10972615.55142  22620992.850    22620994.378
        47.000          43.000
 02  7 11 17  9 40.0000000  0 11G23G 2G22G21G18G 6G17G15G 3G29G26
  23337801.779    19995381.25943  15571879.48942  23337803.773    23337803.570
        48.000          42.000
  24851261.936    -2113277.36143  -1610629.42442  24851263.503    24851263.846
        46.000          37.000
  24212111.649    13222630.26843  10303732.07442  24212109.454    24212116.531
        44.000          37.000
  22032520.332      745371.86543    587683.14842  22032521.255    22032522.276
        54.000          47.000
  20398531.683     5529011.39543   4313139.07842  20398533.111    20398530.739
        56.000          51.000
  22149048.695    18858622.97543  14690924.38442  22149050.669    22149053.305
        50.000          44.000
  20618326.762      -88432.68443    -68850.54442  20618328.292    20618327.660
        56.000          49.000
  20476918.671
        43.000
  23563903.451    -6942786.95243  -5364369.91442  23563903.709    23563907.501
        46.000          38.000
  23693352.324    15946932.29243  12425201.09142  23693354.645    23693354.255
        49.000          42.000
  22630072.726    14128637.39943  11009798.32542  22630073.645    22630075.330
        47.000          43.000
 02  7 11 17 10  0.0000000  0 11G23G 2G22G21G18G 6G17G15G 3G29G26
  23347921.838    20048566.02443  15613322.10842  23347922.172    23347922.037
        47.000          41.000
  24851975.320    -2109527.63643  -1607707.64942  24851974.931    24851977.579
        46.000          38.000
  24218746.533    13257495.80443  10330899.92642  24218744.333    24218751.726
        45.000          37.000
  22026702.122      714797.94843    563859.35042  22026703.076    22026704.165
        54.000          47.000
  20398316.748     5527880.53143   4312257.88642  20398317.904    20398315.617
        56.000          51.000
  22160741.668    18920073.04143  14738807.47742  22160742.429    22160746.096
        50.000          44.000
  20618536.403      -87330.75743    -67991.90942  20618537.790    20618536.992
        56.000          49.000
  20475381.112
        45.000
  23552606.099    -7002153.80043  -5410629.77342  23552606.262    23552610.176
        45.000          37.000
  23702908.304    15997148.65943  12464330.69542  23702909.497    23702912.175
        49.000          42.000
  22639195.964    14176582.08643  11047157.79842  22639197.488    22639198.723
        47.000          43.000
 02  7 11 17 10 20.0000000  0 11G23G 2G22G21G18G 6G17G15G 3G29G26
  23358044.490    20101764.11643  15654775.10242  23358044.964    23358046.998
        47.000          42.000
  24852723.347    -2105602.46443  -1604649.16342  24852724.187    24852728.175
        46.000          38.000
  24225405.547    13292492.59943  10358170.04542  24225404.315    24225408.644
        45.000          37.000
  22020906.715      684343.65643    540128.76142  22020907.487    22020908.384
        53.000          47.000
  20398133.902     5526918.18843   4311508.00742  20398135.024    20398132.437
        56.000          51.000
  22172462.378    18981662.79443  14786799.40642  22172463.522    22172467.095
        50.000          44.000
  20618766.237      -86126.86244    -67053.81642  20618767.405    20618766.418
        57.000          49.000
  20473863.970
        45.000
  23541331.799    -7061398.48143  -5456794.43042  23541333.011    23541334.700
        46.000          37.000
  23712495.088    16047527.44943  12503586.86642  23712497.556    23712497.022
        48.000          42.000
  22648362.193    14224750.22843  11084691.38742  22648363.905    22648364.823
        48.000          44.000
 02  7 11 17 10 40.0000000  0 11G23G 2G22G21G18G 6G17G15G 3G29G26
  23368170.601    20154974.87043  15696237.97642  23368171.858    23368174.043
        47.000          42.000
  24853503.383    -2101502.47143  -1601454.44442  24853505.903    24853509.638
        46.000          39.000
  24232090.454    13327619.58043  10385541.61742  24232088.843    24232094.074
        46.000          37.000
  22015134.453      654008.82243    516491.26442  22015134.963    22015136.443
        53.000          47.000
  20397982.585     5526123.73043   4310888.94842  20397983.898    20397981.360
        56.000          51.000
  22184209.999    19043391.19543  14834899.37642  22184210.783    22184214.300
        50.000          45.000
  20619014.291      -84821.23044    -66036.45242  20619015.668    20619014.349
        57.000          50.000
  20472369.228
        46.000
  23530081.438    -7120520.59343  -5502863.57542  23530083.438    23530087.098
        46.000          37.000
  23722112.394    16098067.69943  12542968.84842  23722113.727    23722114.788
        48.000          41.000
  22657570.886    14273140.83343  11122398.32742  22657572.615    22657573.406
        48.000          44.000
 02  7 11 17 11  0.0000000  0 11G23G 2G22G21G18G 6G17G15G 3G29G26
  23378298.651    20208194.84843  15737708.05142  23378298.702    23378300.867
        47.000          42.000
  24854316.365    -2097231.02443  -1598126.10942  24854317.397    24854319.921
        44.000          38.000
  24238799.604    13362872.79643  10413011.55542  24238798.836    24238801.397
        46.000          38.000
  22009384.461      623790.44543    492944.50942  22009385.241    22009385.731
        54.000          47.000
  20397862.303     5525493.94743   4310398.20342  20397863.693    20397861.307
        56.000          50.000
  22195982.736    19105254.55043  14883104.49542  22195983.980    22195986.790
        51.000          45.000
  20619281.341      -83416.42244    -64941.81142  20619282.996    20619281.780
        57.000          50.000
  20470892.788
        48.000
  23518854.901    -7179522.46743  -5548839.01042  23518853.620    23518858.946
        47.000          37.000
  23731759.901    16148765.60043  12582473.66742  23731761.147    23731764.342
        48.000          41.000
  22666821.019    14321750.16243  11160275.70842  22666823.134    22666823.433
        49.000          44.000
 02  7 11 17 11 20.0000000  0 11G23G 2G22G21G18G 6G17G15G 3G29G26
  23388428.957    20261425.48243  15779186.42042  23388430.256    23388429.418
        49.000          43.000
  24855161.052    -2092786.79943  -1594663.14542  24855164.225    24855167.079
        43.000          38.000
  24245531.985    13398253.34343  10440580.70242  24245531.761    24245534.776
        46.000          38.000
  22003656.203      593690.01743    469489.66242  22003656.637    22003658.035
        54.000          47.000
  20397773.856     5525030.23043   4310036.86442  20397775.221    20397773.089
        55.000          50.000
  22207780.263    19167254.01143  14931415.68542  22207781.665    22207785.531
        51.000          45.000
  20619567.934      -81910.41544    -63768.31942  20619569.275    20619568.405
        57.000          50.000
  20469436.861
        47.000
  23507649.477    -7238401.67943  -5594718.86842  23507651.880    23507652.860
        47.000          37.000
  23741437.898    16199622.34543  12622102.26842  23741438.619    23741440.087
        48.000          41.000
  22676112.815    14370579.20143  11198324.28042  22676114.659    22676115.685
        49.000          45.000
 02  7 11 17 11 40.0000000  0 11G23G 2G22G21G18G 6G17G15G 3G29G26
  23398561.203    20314670.38743  15820675.90942  23398562.042    23398562.353
        49.000          43.000
  24856039.667    -2088166.02643  -1591062.61142  24856040.334    24856046.571
        40.000          38.000
  24252289.510    13433764.46243  10468251.59542  24252289.262    24252294.356
        47.000          38.000
  21997951.465      563711.49543    446129.80942  21997952.637    21997953.339
        54.000          47.000
  20397718.377     5524736.24043   4309807.77642  20397719.342    20397717.121
        55.000          50.000
  22219605.182    19229393.01843  14979835.60742  22219607.081    22219609.284
        51.000          45.000
  20619874.459      -80298.87144    -62512.59242  20619876.023    20619875.185
        57.000          50.000
  20468002.920     -275992.79553   -168138.69152  20468005.127    20468002.393
        47.000          38.000
  23496470.973    -7297153.39843  -5640499.37742  23496473.054    23496473.658
        49.000          36.000
  23751146.731    16250641.40443  12661857.35542  23751146.948    23751146.128
        47.000          40.000
  22685446.733    14419631.24543  11236546.62142  22685449.370    22685449.521
        50.000          45.000
 02  7 11 17 12  0.0000000  0 11G23G 2G22G21G18G 6G17G15G 3G29G26
  23408695.298    20367925.49143  15862173.33942  23408697.370    23408697.497
        50.000          44.000
  24856949.942    -2083372.75443  -1587327.65142  24856950.004    24856960.763
        38.000          37.000
  24259070.104    13469401.71643  10496020.76642  24259070.047    24259075.127
        46.000          38.000
  21992269.669      533851.25743    422862.13542  21992270.693    21992271.092
        55.000          47.000
  20397693.849     5524608.02043   4309707.85542  20397695.096    20397693.212
        55.000          50.000
  22231455.851    19291667.27143  15028360.92042  22231457.336    22231459.209
        51.000          45.000
  20620200.588      -78585.10944    -61177.20942  20620201.989    20620201.344
        57.000          50.000
  20466589.897     -283420.18943   -173926.28542  20466590.794    20466588.836
        48.000          37.000
  23485313.231    -7355780.48143  -5686182.74242  23485315.445    23485314.138
        48.000          37.000
  23760884.968    16301818.38343  12701735.49442  23760884.248    23760887.370
        47.000          40.000
  22694822.036    14468901.92443  11274939.33542  22694824.464    22694825.421
        51.000          45.000
 02  7 11 17 12 20.0000000  0 11G23G 2G22G21G18G 6G17G15G 3G29G26
  23418832.773    20421194.05343  15903681.25742  23418834.358    23418833.707
        50.000          44.000
  24857891.306     -502983.73053   -355855.70252  24857893.829    24857908.484
        37.000          37.000
  24265877.401    13505167.82143  10523890.35542  24265877.035    24265882.261
        47.000          39.000
  21986610.597      504112.56943    399689.17342  21986611.874    21986611.835
        55.000          47.000
  20397701.694     5524648.96043   4309739.74942  20397703.073    20397700.950
        55.000          50.000
  22243333.310    19354079.66443  15076993.86342  22243334.081    22243335.881
        52.000          45.000
  20620546.759      -76765.50244    -59759.34742  20620548.104    20620547.480
        57.000          50.000
  20465198.278     -290734.87343   -179626.01142  20465197.886    20465195.582
        47.000          37.000
  23474182.117    -7414278.68443                                  23474185.368
        49.000
  23770655.005    16353156.16843  12741738.92842  23770655.365    23770656.775
        48.000          40.000
  22704241.377    14518394.03243  11313504.56742  22704242.906    22704244.121
        51.000          45.000
 02  7 11 17 12 40.0000000  0 10G23G22G21G18G 6G17G15G 3G29G26
  23428970.217    20474467.39043  15945192.89042  23428971.100    23428971.851
        50.000          44.000
  24272706.229    13541053.79543  10551853.34542  24272707.058    24272711.505
        47.000          39.000
  21980972.861      474487.13243    376604.45942  21980974.001    21980974.105
        54.000          47.000
  20397740.399     5524850.48643   4309896.77642  20397741.498    20397739.027
        55.000          50.000
  22255234.335    19416621.29243  15125727.51142  22255235.907    22255237.745
        51.000          45.000
  20620911.589      -74847.81144    -58265.04942  20620913.057    20620912.632
        57.000          50.000
  20463825.687     -297944.83643   -185244.16442  20463827.917    20463825.782
        47.000          38.000
  23463073.906    -7472655.46043                                  23463075.243
        49.000
  23780451.564    16404645.71543  12781860.58842  23780452.758    23780454.212
        47.000          39.000
  22713699.850    14568098.47243  11352235.27642  22713702.193    22713701.641
        51.000          45.000
 02  7 11 17 13  0.0000000  0 10G23G22G21G18G 6G17G15G 3G29G26
  23439110.530    20527757.01843  15986717.22242  23439111.724    23439112.507
        49.000          44.000
  24279560.046    13577070.80843  10579918.43942  24279560.717    24279566.760
        47.000          40.000
  21975359.350      444986.66843    353617.12242  21975360.618    21975360.722
        54.000          46.000
  20397811.234     5525224.01243   4310187.83542  20397812.783    20397809.918
        55.000          50.000
  22267163.017    19479303.41143  15174570.61842  22267164.843    22267165.203
        51.000          45.000
  20621297.786      -72819.94644    -56684.90942  20621298.787    20621299.184
        57.000          50.000
  20462474.781     -305037.66443   -190771.00742  20462475.885    20462477.542
        46.000          38.000
  23451990.140    -7530898.09943  -5822637.87542  23451990.116    23451989.177
        50.000          39.000
  23790281.773    16456298.40543  12822109.40142  23790282.738    23790285.327
        47.000          39.000
  22723201.143    14618026.53443  11391140.23042  22723202.829    22723202.858
        52.000          45.000
 02  7 11 17 13 20.0000000  0 11G23G 2G22G21G18G 6G17G15G 3G29G26
  23449251.316    20581049.54843  16028243.81342  23449252.896    23449253.560
        49.000          44.000
  24860930.563
        42.000
  24286437.070    13613205.05043  10608074.89542  24286437.256    24286442.162
        47.000          40.000
  21969766.839      415598.25443    330717.09642  21969767.955    21969768.507
        54.000          46.000
  20397912.342     5525756.31543   4310602.61742  20397913.940    20397911.324
        55.000          50.000
  22279114.886    19542112.30643  15223512.52142  22279116.144    22279116.800
        51.000          44.000
  20621702.175      -70694.54144    -55028.75842  20621703.208    20621703.331
        57.000          50.000
  20461144.423     -312026.31343   -196216.70842  20461143.895    20461145.513
        46.000          38.000
  23440930.445    -7589018.74743  -5867926.64842  23440933.129    23440931.007
        50.000          39.000
  23800139.574    16508100.57543  12862474.66842  23800138.860    23800141.179
        47.000          39.000
  22732741.574    14668164.49643  11430208.73642  22732743.919    22732743.459
        51.000          45.000
 02  7 11 17 13 40.0000000  0 11G23G 2G22G21G18G 6G17G15G 3G29G26
  23459394.516    20634351.51143  16069777.74542  23459395.469    23459397.076
        48.000          43.000
  24862006.485     -213640.54153   -168092.04952  24862007.621    24862014.169
        45.000          39.000
  24293337.045    13649462.69843  10636327.48942  24293337.444    24293341.092
        46.000          40.000
  21964196.798      386328.70043    307909.69042  21964198.114    21964198.007
        54.000          46.000
  20398044.977     5526454.12243   4311146.35542  20398046.274    20398043.831
        54.000          50.000
  22291091.449    19605054.39043  15272558.21942  22291092.869    22291095.820
        50.000          44.000
  20622126.761      -68464.39544    -53290.99142  20622127.586    20622127.412
        57.000          50.000
  20459835.649     -318903.46143   -201575.51942  20459836.553    20459837.316
        47.000          39.000
  23429894.389    -7647009.87143  -5913114.48342  23429894.591    23429896.086
        50.000          39.000
  23810027.130    16560058.53043  12902961.33342  23810027.858    23810027.599
        47.000          39.000
  22742324.028    14718518.49943  11469445.59142  22742326.039    22742325.755
        51.000          45.000
 02  7 11 17 14  0.0000000  0 11G23G 2G22G21G18G 6G17G15G 3G29G26
  23469538.905    20687659.78743  16111316.60742  23469539.598    23469541.369
        48.000          43.000
  24863113.539     -207819.00043   -163555.80242  24863115.154    24863121.280
        45.000          40.000
  24300259.281    13685840.26743  10664673.55342  24300258.282    24300265.052
        45.000          39.000
  21958649.371      357175.22843    285192.73742  21958650.630    21958649.998
        54.000          46.000
  20398208.905     5527314.36943   4311816.67042  20398209.927    20398207.654
        55.000          50.000
  22303092.390    19668126.19943  15321705.01142  22303094.408    22303097.791
        49.000          43.000
  20622570.469      -66131.73644    -51473.35042  20622571.610    20622570.962
        57.000          50.000
  20458548.080     -325671.59043   -206849.40542  20458549.096    20458551.211
        48.000          40.000
  23418883.640    -7704873.46243  -5958202.95842  23418885.511    23418883.926
        50.000          40.000
  23819943.296    16612168.85743  12943566.73942  23819942.747    23819946.673
        46.000          39.000
  22751946.423    14769085.07043  11508848.07842  22751948.177    22751948.309
        51.000          45.000
 02  7 11 17 14 20.0000000  0 11G23G 2G22G21G18G 6G17G15G 3G29G26
  23479685.206    20740978.27443  16152863.43042  23479685.805    23479688.643
        48.000          43.000
  24864255.098     -201824.59643   -158884.90542  24864255.914    24864260.705
        47.000          40.000
  24307204.623    13722341.18743  10693115.73042  24307203.592    24307207.405
        44.000          38.000
  21953124.436      328142.26243    262569.68442  21953125.685    21953125.396
        54.000          46.000
  20398404.100     5528341.03043   4312616.66042  20398405.437    20398403.202
        55.000          49.000
  22315121.132    19731331.24343  15370955.61342  22315121.477    22315124.279
        50.000          43.000
  20623035.078      -63692.36644    -49572.56242  20623035.798    20623035.013
        57.000          50.000
  20457282.712     -332326.22743   -212034.84942  20457282.395    20457284.308
        49.000          40.000
  23407897.859    -7762604.40143  -6003188.07342  23407898.640    23407899.803
        50.000          39.000
  23829889.407    16664434.98043  12984293.53542  23829889.715    23829890.440
        47.000          38.000
  22761610.170    14819867.54043  11548418.79642  22761611.688    22761611.922
        51.000          45.000
 02  7 11 17 14 40.0000000  0 11G23G 2G22G21G18G 6G17G15G 3G29G26
  23489833.014    20794307.00143  16194418.24442  23489834.641    23489836.176
        47.000          43.000
  24865428.039     -195657.38143   -154079.36742  24865429.604    24865434.204
        47.000          40.000
  24314172.381    13758964.93143  10721653.63642  24314172.417    24314177.353
        43.000          38.000
  21947622.661      299229.69243    240040.44542  21947623.222    21947623.863
        54.000          47.000
  20398631.070     5529533.98643   4313546.22442  20398632.748    20398630.460
        54.000          49.000
  22327173.675    19794669.30143  15420309.84542  22327175.746    22327177.669
        50.000          43.000
  20623519.404      -61145.43444    -47587.96342  20623520.669    20623519.797
        57.000          50.000
  20456037.549     -338866.72543   -217131.37942  20456039.147    20456039.307
        49.000          40.000
  23396937.269    -7820201.52443  -6048068.91542  23396938.395    23396938.499
        49.000          39.000
  23839864.593    16716856.67143  13025141.57642  23839865.531    23839869.048
        46.000          38.000
  22771314.735    14870865.54443  11588157.45142  22771316.504    22771316.771
        51.000          45.000
 02  7 11 17 15  0.0000000  0 11G23G 2G22G21G18G 6G17G15G 3G29G26
  23499982.723    20847642.40443  16235978.24342  23499983.402    23499986.652
        48.000          43.000
  24866633.482     -189320.83843   -149141.86742  24866634.530    24866640.393
        47.000          40.000
  24321164.824    13795707.61143  10750284.22842  24321164.559    24321169.880
        43.000          37.000
  21942142.549      270434.32243    217602.52442  21942143.345    21942143.728
        54.000          47.000
  20398889.128     5530889.80343   4314602.70342  20398890.229    20398888.391
        54.000          49.000
  22339250.892    19858136.53343  15469764.75042  22339251.608    22339255.364
        49.000          43.000
  20624024.265      -58493.93244    -45521.88542  20624025.078    20624024.254
        58.000          50.000
  20454815.184     -345295.95243   -222141.18042  20454815.630    20454814.957
        50.000          40.000
  23386001.399    -7877667.33143  -6092847.42142  23386004.465    23386005.091
        49.000          39.000
  23849869.292    16769430.08543  13066107.81542  23849868.079    23849871.590
        46.000          38.000
  22781060.026    14922075.22443  11628061.06842  22781061.398    22781061.788
        52.000          45.000
 02  7 11 17 15 20.0000000  0 11G23G 2G22G21G18G 6G17G15G 3G29G26
  23510132.519    20900982.36243  16277541.79142  23510133.443    23510135.054
        48.000          43.000
  24867871.753     -182817.04843   -144074.05842  24867872.705    24867877.681
        47.000          40.000
  24328179.480    13832566.76743  10779005.57442  24328179.487    24328182.652
        43.000          37.000
  21936684.122      241754.20443    195254.40942  21936685.360    21936685.774
        54.000          47.000
  20399178.150     5532406.56143   4315784.58842  20399179.386    20399176.905
        54.000          49.000
  22351352.402    19921730.66843  15519318.54142  22351353.869    22351358.748
        49.000          43.000
  20624548.536      -55739.33544    -43375.47442  20624549.791    20624548.330
        58.000          50.000
  20453612.105     -351615.32443   -227065.37342  20453613.227    20453611.379
        50.000          40.000
  23375090.683    -7935002.71543  -6137524.33242  23375094.459    23375094.550
        48.000          39.000
  23859902.870    16822152.73743  13107190.35042  23859903.521    23859902.644
        46.000          38.000
  22790844.966    14973494.00443  11668127.60042  22790846.599    22790846.636
        52.000          45.000
 02  7 11 17 15 40.0000000  0 11G23G 2G22G21G18G 6G17G15G 3G29G26
  23520284.742    20954332.22943  16319113.06442  23520285.824    23520288.398
        47.000          43.000
  24869142.986     -176140.81143   -138871.87542  24869142.997    24869148.129
        47.000          39.000
  24335217.174    13869547.17543  10807821.37442  24335216.181    24335220.490
        44.000          37.000
  21931250.136      213195.16843    173000.63442  21931250.740    21931251.579
        54.000          47.000
  20399498.700     5534089.46643   4317095.92942  20399499.813    20399497.212
        54.000          49.000
  22363478.164    19985456.49143  15568974.93842  22363480.303    22363483.137
        48.000          43.000
  20625093.761      -52875.48444    -41143.91842  20625094.483    20625093.229
        58.000          50.000
  20452430.811     -357818.95243   -231899.36942  20452433.071    20452431.808
        50.000          40.000
  23364205.910    -7992201.26243  -6182094.58842  23364204.479    23364208.967
        48.000          39.000
  23869964.403    16875029.69243  13148393.11042  23869965.318    23869967.238
        46.000          38.000
  22800670.339    15025126.86743  11708360.95342  22800671.553    22800670.618
        52.000          45.000
 02  7 11 17 16  0.0000000  0 11G23G 2G22G21G18G 6G17G15G 3G29G26
  23530437.537    21007685.85143  16360687.25042  23530438.392    23530439.947
        48.000          42.000
  24870444.155     -169298.07743   -133539.95942  24870443.664    24870450.417
        46.000          39.000
  24342277.432    13906642.35643  10836726.62742  24342275.832    24342277.965
        46.000          38.000
  21925837.420      184751.23443    150836.56142  21925838.438    21925839.420
        55.000          48.000
  20399848.959     5535932.49343   4318532.06342  20399850.595    20399847.529
        54.000          49.000
  22375629.495    20049307.67143  15618729.02042  22375630.552    22375635.204
        49.000          43.000
  20625658.268      -49907.89844    -38831.53242  20625659.234    20625658.227
        58.000          50.000
  20451271.020     -363912.19743   -236647.37942  20451273.567    20451272.834
        50.000          41.000
  23353346.160    -8049268.00143  -6226562.12842  23353347.130    23353348.653
        47.000          38.000
  23880055.431    16928054.57843  13189711.13542  23880058.554    23880057.104
        47.000          38.000
  22810534.619    15076967.23443  11748756.00342  22810536.845    22810536.481
        52.000          45.000
 02  7 11 17 16 20.0000000  0 11G23G 2G22G21G18G 6G17G15G 3G29G26
  23540591.852    21061045.53943  16402266.16242  23540592.957    23540594.218
        47.000          42.000
  24871778.264     -162286.67543   -128076.57342  24871780.221    24871785.413
        46.000          38.000
  24349359.373    13943854.07843  10865722.66842  24349357.946    24349360.480
        46.000          38.000
  21920447.391      156425.02743    128764.22742  21920448.530    21920448.897
        55.000          48.000
  20400230.653     5537938.00843   4320094.79642  20400231.922    20400229.715
        54.000          49.000
  22387805.003    20113286.10643  15668582.27842  22387805.837    22387808.819
        50.000          43.000
  20626243.181      -46833.75044    -36436.11242  20626244.146    20626243.492
        58.000          50.000
  20450134.536     -369892.34643   -241307.25442  20450134.664    20450134.104
        51.000          41.000
  23342512.409    -8106199.54043  -6270924.33342  23342513.153    23342513.816
        47.000          39.000
  23890174.801    16981229.16443  13231145.84042  23890177.432    23890172.869
        47.000          38.000
  22820439.502    15129016.96143  11789314.19342  22820440.760    22820440.426
        52.000          44.000
 02  7 11 17 16 40.0000000  0 11G23G 2G22G21G18G 6G17G15G 3G29G26
  23550747.107    21114409.56343  16443848.45042  23550747.296    23550749.538
        48.000          43.000
  24873144.400     -155108.46543   -122483.26142  24873143.532    24873147.332
        45.000          38.000
  24356461.482    13981180.30743  10894807.92342  24356461.714    24356465.181
        47.000          38.000
  21915079.247      128214.97743    106782.40742  21915080.764    21915080.600
        56.000          48.000
  20400643.021     5540104.24443   4321782.75442  20400644.419    20400642.146
        54.000          49.000
  22400004.426    20177389.86243  15718533.17342  22400006.144    22400008.313
        51.000          44.000
  20626848.135      -43653.98844    -33958.39042  20626848.863    20626848.385
        57.000          51.000
  20449017.643     -375760.39043   -245879.77442  20449017.943    20449018.146
        51.000          41.000
  23331703.768    -8162996.48943  -6315181.64842  23331705.005    23331705.118
        47.000          39.000
  23900321.679    17034551.57843  13272695.73042  23900323.907    23900317.852
        48.000          38.000
  22830384.221    15181273.86643  11830033.80442  22830386.302    22830384.023
        52.000          44.000
 02  7 11 17 17  0.0000000  0 11G23G 2G22G21G18G 6G17G15G 3G29G26
  23560903.069    21167779.94243  16485435.69242  23560904.146    23560905.308
        49.000          43.000
  24874542.667     -147761.33243   -116758.31242  24874545.213    24874543.498
        46.000          37.000
  24363587.968    14018622.55143  10923983.61042  24363587.793    24363589.530
        47.000          38.000
  21909733.207      100123.41743     84892.91342  21909734.494    21909735.340
        56.000          48.000
  20401086.574     5542433.23743   4323597.54242  20401088.059    20401085.604
        54.000          49.000
  22412227.202    20241620.59443  15768583.00442  22412229.046    22412230.826
        51.000          45.000
  20627474.183      -40366.01344    -31396.34742  20627474.707    20627474.312
        57.000          51.000
  20447922.837     -381513.59943   -250362.82642  20447925.137    20447923.352
        51.000          41.000
  23320922.252    -8219655.86743  -6359331.75842  23320923.220    23320926.655
        45.000          38.000
  23910497.135    17088023.47943  13314362.07342  23910498.054    23910500.311
        48.000          39.000
  22840367.517    15233739.55243  11870916.12042  22840369.617    22840369.031
        52.000          44.000
 02  7 11 17 17 20.0000000  0 11G23G 2G22G21G18G 6G17G15G 3G29G26
  23571060.246    21221152.87043  16527024.92142  23571061.527    23571061.997
        50.000          44.000
  24875973.531     -140249.12443   -110904.73542  24875971.798    24875969.397
        47.000          37.000
  24370733.607    14056176.48043  10953246.32042  24370731.706    24370739.057
        47.000          38.000
  21904409.413       72146.80443     63092.98342  21904410.881    21904412.019
        56.000          48.000
  20401559.513     5544921.12543   4325536.15242  20401561.467    20401558.972
        54.000          49.000
  22424474.649    20305974.29543  15818728.65342  22424476.736    22424477.023
        53.000          45.000
  20628120.104      -36973.09744    -28752.53242  20628120.508    20628120.260
        57.000          51.000
  20446849.492     -387155.31443   -254758.98942  20446851.075    20446849.961
        51.000          41.000
  23310167.426    -8276180.10943  -6403376.61542  23310168.364    23310167.714
        45.000          38.000
  23920700.133    17141640.64043  13356141.59742  23920702.879    23920699.497
        47.000          38.000
  22850390.528    15286409.75343  11911957.78442  22850392.171    22850392.358
        52.000          44.000
 02  7 11 17 17 40.0000000  0 11G23G 2G22G21G18G 6G17G15G 3G29G26
  23581217.426    21274530.14943  16568617.54242  23581217.990    23581218.933
        51.000          44.000
  24877434.008     -132569.96743   -104921.07042  24877434.042    24877435.782
        46.000          36.000
  24377900.277    14093843.47743  10982597.14142  24377900.537    24377904.926
        46.000          38.000
  21899108.335       44287.33743     41384.32942  21899109.750    21899109.931
        56.000          48.000
  20402063.416     5547569.92643   4327600.14042  20402065.143    20402063.478
        53.000          49.000
  22436744.359    20370452.45443  15868971.28842  22436746.040    22436747.627
        52.000          46.000
  20628786.137      -33472.61844    -26024.90142  20628786.341    20628786.046
        57.000          51.000
  20445797.514     -392682.96943   -259066.28642  20445797.398    20445797.679
        51.000          41.000
  23299435.848    -8332566.32143  -6447313.87942  23299437.147    23299437.612
        44.000          38.000
  23930931.304    17195404.45743  13398035.43242  23930935.803    23930929.735
        47.000          38.000
  22860452.172    15339285.93743  11953159.95942  22860454.149    22860454.368
        52.000          45.000
 02  7 11 17 18  0.0000000  0 11G23G 2G22G21G18G 6G17G15G 3G29G26
  23591376.015    21327913.71843  16610215.07142  23591377.374    23591378.343
        51.000          44.000
  24878928.207     -124721.95443    -98805.86342  24878929.763    24878927.473
        45.000          37.000
  24385089.009    14131625.16543  11012037.31142  24385090.455    24385094.360
        45.000          38.000
  21893829.101       16546.85943     19768.39842  21893830.395    21893830.629
        55.000          48.000
  20402598.303     5550381.46743   4329790.93242  20402600.121    20402598.295
        53.000          49.000
  22449037.611    20435056.56943  15919312.07042  22449039.407    22449041.386
        53.000          46.000
  20629473.157      -29862.08143    -23211.50842  20629473.506    20629473.357
        56.000          50.000
  20444767.375     -398094.01243   -263282.68242  20444768.630    20444768.008
        50.000          41.000
  23288734.767    -8388811.42043  -6491141.18642  23288735.904    23288735.159
        44.000          38.000
  23941189.791    17249316.68643  13440044.90842  23941193.133    23941191.976
        46.000          38.000
  22870553.925    15392369.48343  11994523.71042  22870555.575    22870555.445
        52.000          45.000
 02  7 11 17 18 20.0000000  0 10G23G22G21G18G 6G17G15G 3G29G26
  23601536.262    21381307.22343  16651820.32942  23601538.847    23601538.500
        51.000          45.000
  24392302.212    14169524.46843  11041569.13442  24392302.312    24392305.110
        46.000          38.000
  21888573.956      -11070.44543     -1751.54642  21888574.875    21888575.693
        55.000          48.000
  20403165.640     5553359.52043   4332111.47842  20403166.686    20403164.782
        53.000          49.000
  22461355.999    20499789.92043  15969753.56042  22461357.876    22461359.174
        52.000          45.000
  20630181.777      -26137.08443    -20308.92542  20630182.289    20630182.120
        56.000          50.000
  20443760.126     -403384.32843   -267405.00042  20443762.236    20443760.795
        50.000          41.000
  23278058.014    -8444910.72943  -6534854.89942  23278060.741    23278061.464
        42.000          37.000
  23951478.048    17303380.54143  13482172.52142  23951480.507    23951481.020
        45.000          38.000
  22880695.451    15445663.66043  12036051.60442  22880697.606    22880697.311
        52.000          45.000
 02  7 11 17 18 40.0000000  0 10G23G22G21G18G 6G17G15G 3G29G26
  23611695.869    21434695.81743  16693421.77642  23611696.990    23611698.390
        52.000          45.000
  24399533.687    14207526.29843  11071180.82542  24399534.603    24399536.626
        46.000          38.000
  21883339.727      -38579.19343    -23186.90842  21883340.298    21883340.581
        55.000          47.000
  20403761.191     5556489.25843   4334550.22642  20403762.112    20403759.831
        53.000          48.000
  22473695.625    20564637.32443  16020283.93642  22473696.609    22473699.840
        51.000          45.000
  20630909.706      -22311.92443    -17328.29642  20630909.963    20630909.932
        55.000          50.000
  20442773.416     -408567.97543   -271444.18942  20442774.088    20442774.504
        49.000          42.000
  23267408.276    -8500878.07743  -6578465.74642  23267409.881    23267408.413
        43.000          37.000
  23961790.912    17357580.93543  13524406.54942  23961791.278    23961792.332
        44.000          37.000
  22890874.064    15499153.13443  12077731.65642  22890876.047    22890876.370
        52.000          45.000
 02  7 11 17 19  0.0000000  0 10G23G22G21G18G 6G17G15G 3G29G26
  23621855.975    21488088.33943  16735026.28242  23621857.537    23621859.359
        51.000          45.000
  24406785.435    14245638.97743  11100878.92042  24406786.194    24406790.851
        46.000          39.000
  21878126.102      -65970.50443    -44530.76342  21878127.705    21878128.888
        54.000          47.000
  20404386.646     5559779.48343   4337114.02542  20404388.121    20404385.686
        53.000          48.000
  22486058.900    20629607.34643  16070909.83742  22486059.656    22486063.015
        50.000          44.000
  20631658.714      -18377.01143    -14262.14342  20631658.675    20631658.771
        55.000          49.000
  20441808.844     -413635.45643   -275392.88542  20441809.636    20441810.109
        48.000          42.000
  23256785.424    -8556703.40543  -6621965.98042  23256786.856    23256788.941
        44.000          37.000
  23972131.150    17411926.33943  13566753.57442  23972135.855    23972138.386
        42.000          37.000
  22901091.886    15552846.39743  12119570.51542  22901093.852    22901093.413
        53.000          45.000
 02  7 11 17 19 20.0000000  0 10G23G22G21G18G 6G17G15G 3G29G26
  23632017.242    21541485.59743  16776634.46642  23632018.446    23632020.438
        51.000          45.000
  24414059.685    14283863.05943  11130663.81442  24414058.255    24414064.781
        45.000          39.000
  21872936.323      -93243.20943    -65782.20342  21872936.566    21872938.707
        53.000          47.000
  20405044.027     5563231.19143   4339803.66842  20405045.155    20405042.277
        53.000          48.000
  22498444.967    20694700.48843  16121631.68042  22498447.277    22498449.385
        50.000          43.000
  20632428.388      -14330.94743    -11109.38442  20632429.020    20632428.623
        55.000          49.000
  20440867.569     -418585.33243   -279249.92342  20440867.879    20440868.298
        48.000          42.000
  23246189.100    -8612384.97543  -6665354.17742  23246191.326    23246190.253
        43.000          37.000
  23982501.687    17466417.21443  13609213.92742  23982503.439    23982505.142
        43.000          37.000
  22911347.448    15606743.79943  12161568.44342  22911349.773    22911349.984
        52.000          45.000
 02  7 11 17 19 40.0000000  0 10G23G22G21G18G 6G17G15G 3G29G26
  23642178.515    21594881.59843  16818241.67742  23642179.921    23642181.328
        52.000          45.000
  24421352.433    14322191.84843  11160530.29142  24421352.728    24421356.528
        45.000          39.000
  21867768.072     -120403.22143    -86945.83042  21867768.662    21867770.033
        53.000          46.000
  20405730.259     5566838.15543   4342614.28042  20405731.761    20405728.627
        53.000          48.000
  22510854.036    20759910.39043  16172444.51142  22510854.836    22510857.358
        50.000          43.000
  20633219.324      -10179.09743     -7874.18942  20633219.311    20633218.201
        55.000          49.000
  20439946.575     -423422.91443   -283019.46742  20439946.918    20439947.954
        49.000          43.000
  23235619.117    -8667927.64243  -6708634.14242  23235618.856    23235621.632
        43.000          37.000
  23992898.063    17521047.07043  13651782.60242  23992901.049    23992902.753
        43.000          37.000
  22921641.877    15660838.81343  12203720.34542  22921643.948    22921643.612
        52.000          45.000
 02  7 11 17 20  0.0000000  0 10G23G22G21G18G 6G17G15G 3G29G26
  23652340.772    21648282.10443  16859852.39842  23652341.949    23652343.044
        52.000          45.000
  24428667.262    14360630.72643  11190482.57042  24428667.147    24428671.388
        44.000          38.000
  21862622.520     -147444.37143   -108016.84242  21862622.364    21862624.746
        52.000          46.000
  20406446.891     5570606.31943   4345550.50742  20406448.487    20406446.239
        53.000          48.000
  22523286.294    20825242.47143  16223352.53842  22523288.206    22523289.897
        50.000          43.000
  20634030.907       -5915.06243     -4551.57942  20634031.003    20634030.168
        55.000          49.000
  20439048.885     -428141.84443   -286696.55242  20439050.483    20439048.962
        49.000          43.000
  23225078.162    -8723324.56443  -6751800.50242  23225079.297    23225078.799
        43.000          37.000
  24003319.706    17575821.45843  13694463.91542  24003322.816    24003324.638
        41.000          37.000
  22931974.238    15715136.71943  12246030.34442  22931976.284    22931976.212
        52.000          45.000
 02  7 11 17 20 20.0000000  0 11G23G22G21G18G 6G17G15G14G 3G29G26
  23662501.911    21701681.75343  16901462.44442  23662503.334    23662504.321
        52.000          45.000
  24436001.746    14399173.76743  11220516.04842  24436001.383    24436007.643
        43.000          38.000
  21857498.667     -174371.89243   -128999.31242  21857498.640    21857500.977
        53.000          47.000
  20407194.070     5574530.11643   4348608.01042  20407195.583    20407192.938
        53.000          48.000
  22535741.960    20890690.96943  16274351.27042  22535743.750    22535745.242
        50.000          43.000
  20634862.630       -1543.47143     -1145.15642  20634863.134    20634861.952
        55.000          49.000
  20438172.705     -432746.97243   -290284.96042  20438173.927    20438173.354
        49.000          43.000
  24625274.957
        44.000
  23214562.741    -8778579.97243  -6794856.65142  23214564.885    23214565.180
        42.000          37.000
  24013770.805    17630734.60243  13737253.32042  24013772.512    24013772.288
        41.000          36.000
  22942344.976    15769631.55843  12288493.80542  22942346.319    22942346.875
        52.000          45.000
 02  7 11 17 20 40.0000000  0 11G23G22G21G18G 6G17G15G14G 3G29G26
  23672663.423    21755079.78443  16943071.22942  23672665.106    23672665.778
        52.000          44.000
  24443356.539    14437819.78343  11250629.73442  24443354.966    24443361.101
        43.000          38.000
  21852396.665     -201186.14743   -149893.53042  21852396.661    21852397.704
        54.000          47.000
  20407970.152     5578608.85143   4351786.23542  20407971.480    20407969.026
        54.000          47.000
  22548217.367    20956254.84343  16325439.89742  22548219.877    22548223.591
        50.000          43.000
  20635714.884        2935.37843      2344.85242  20635715.418    20635714.520
        54.000          49.000
  20437319.990     -437238.43643   -293784.80242  20437320.367    20437319.586
        51.000          44.000
  24610809.591     -400645.68753   -305816.62252  24610810.802    24610811.453
        46.000          37.000
  23204073.792    -8833693.65743  -6837802.32342  23204074.998    23204076.155
        43.000          36.000
  24024245.635    17685785.39843  13780149.97742  24024247.450    24024250.918
        41.000          36.000
  22952752.435    15824322.37143  12331109.96542  22952754.222    22952753.750
        52.000          45.000
 02  7 11 17 21  0.0000000  0 11G23G22G21G18G 6G17G15G14G 3G29G26
  23682825.218    21808481.34843  16984682.76442  23682827.587    23682827.719
        51.000          44.000
  24450731.326    14476573.50943  11280827.38242  24450730.844    24450736.799
        44.000          38.000
  21847316.660     -227881.88343   -170695.37842  21847316.942    21847316.931
        54.000          47.000
  20408776.952     5582847.67643   4355089.22442  20408778.076    20408775.995
        54.000          48.000
  22560716.698    21021938.93443  16376622.20542  22560718.274    22560721.022
        49.000          43.000
  20636588.602        7527.45343      5923.08642  20636588.872    20636587.902
        54.000          49.000
  20436487.207     -441610.32043   -297191.46642  20436489.558    20436488.347
        52.000          45.000
  24596344.573     -476656.09943   -365045.39142  24596347.718    24596343.301
        47.000          37.000
  23193614.879    -8888659.09143  -6880632.51142  23193615.988    23193617.385
        43.000          37.000
  24034747.434    17740978.58143  13823157.60142  24034748.408    24034754.168
        41.000          36.000
  22963197.881    15879213.71443  12373882.39242  22963200.032    22963200.317
        52.000          45.000
 02  7 11 17 21 20.0000000  0 11G23G22G21G18G 6G17G15G14G 3G29G26
  23692987.843    21861881.17543  17026292.92642  23692987.548    23692989.363
        51.000          43.000
  24458125.864    14515429.14043  11311104.37542  24458126.192    24458129.829
        45.000          38.000
  21842257.668     -254464.21643   -191408.85742  21842258.788    21842258.557
        54.000          47.000
  20409613.283     5587241.30443   4358512.82842  20409614.793    20409612.480
        54.000          48.000
  22573237.645    21087737.59843  16427893.80642  22573240.085    22573243.694
        49.000          43.000
  20637483.601       12227.86743      9585.73642  20637483.280    20637482.627
        54.000          49.000
  20435677.149     -445867.32643   -300508.60642  20435678.704    20435677.566
        53.000          45.000
  24581880.147     -552663.33143   -424271.65342  24581880.594    24581876.901
        47.000          37.000
  23183179.525    -8943480.64343  -6923350.56442  23183182.063    23183187.548
        42.000          36.000
  24045277.677    17796308.70943  13866271.93142  24045277.883    24045281.932
        41.000          36.000
  22973680.113    15934299.88643  12416806.64142  22973681.907    22973682.665
        51.000          45.000
 02  7 11 17 21 40.0000000  0 11G23G22G21G18G 6G17G15G14G 3G29G26
  23703149.375    21915284.30143  17067905.67542  23703150.389    23703151.319
        51.000          43.000
  24465540.416    14554391.38343  11341464.43642  24465540.533    24465544.612
        45.000          38.000
  21837221.746     -280927.69143   -212029.72042  21837223.177    21837222.944
        55.000          47.000
  20410480.090     5591794.82543   4362061.02142  20410481.207    20410478.364
        54.000          47.000
  22585780.813    21153655.55243  16479258.36442  22585782.216    22585785.337
        48.000          42.000
  20638399.108       17042.53943     13337.41742  20638399.687    20638398.776
        54.000          49.000
  20434889.573     -450003.90843   -303731.91742  20434891.664    20434890.066
        53.000          45.000
  24567417.493     -628661.44743   -483490.80542  24567421.390    24567416.271
        47.000          37.000
  23172778.000    -8998152.09643  -6965951.64342  23172779.149    23172780.706
        41.000          36.000
  24055833.324    17851780.26943  13909496.47542  24055835.829    24055841.738
        40.000          36.000
  22984200.576    15989585.45643  12459886.26242  22984202.144    22984203.380
        50.000          45.000
 02  7 11 17 22  0.0000000  0 11G23G22G21G18G 6G17G15G14G 3G29G26
  23713311.353    21968686.05443  17109517.34942  23713312.815    23713313.410
        50.000          42.000
  24472974.249    14593454.92343  11371903.43942  24472975.009    24472976.259
        45.000          38.000
  21832207.570     -307276.96143   -232561.59242  21832209.450    21832208.426
        56.000          47.000
  20411375.906     5596503.49243   4365730.11642  20411376.929    20411374.690
        54.000          47.000
  22598346.837    21219687.66043  16530711.87842  22598348.377    22598351.055
        49.000          43.000
  20639336.267       21967.31943     17174.90342  20639336.462    20639336.423
        54.000          49.000
  20434123.936     -454024.20943   -306864.62142  20434125.949    20434125.756
        53.000          45.000
  24552955.117     -704654.07443   -542705.70542  24552958.820    24552955.238
        47.000          37.000
  23162401.316    -9052677.07743  -7008438.63942  23162402.171    23162407.544
        40.000          36.000
  24066415.187    17907388.38243  13952827.40542  24066417.051    24066421.530
        39.000          36.000
  22994757.886    16045065.15743  12503117.14142  22994759.787    22994760.850
        50.000          44.000
 02  7 11 17 22 20.0000000  0 11G23G22G21G18G 6G17G15G14G 3G29G26
  23723472.543    22022087.00543  17151128.40142  23723474.119    23723474.063
        49.000          42.000
  24480427.303    14632619.85843  11402421.45842  24480427.443    24480429.767
        46.000          38.000
  21827215.368     -333511.21143   -253003.82742  21827216.811    21827215.876
        56.000          47.000
  20412301.609     5601367.91943   4369520.57442  20412302.972    20412301.179
        54.000          47.000
  22610934.852    21285834.21443  16582254.55042  22610935.937    22610938.081
        50.000          43.000
  20640294.985       27003.35943     21099.08442  20640294.888    20640294.526
        54.000          49.000
  20433381.083     -457926.84543   -309905.65542  20433382.509    20433382.638
        53.000          45.000
  24538495.167     -780639.51643   -601915.02042  24538496.560    24538500.277
        45.000          37.000
  23152055.460    -9107054.03843  -7050810.25642  23152056.194    23152057.857
        42.000          36.000
  24077023.232    17963133.05843  13996264.74942  24077024.830    24077030.646
        39.000          36.000
  23005352.239    16100739.16643  12546499.43242  23005353.790    23005355.495
        50.000          44.000
 02  7 11 17 22 40.0000000  0 11G23G22G21G18G 6G17G15G14G 3G29G26
  23733634.166    22075485.69643  17192737.70442  23733635.600    23733637.908
        48.000          42.000
  24487898.099    14671884.26943  11433016.95942  24487899.111    24487899.615
        45.000          37.000
  21822245.151     -359631.62344   -273357.35342  21822246.399    21822245.405
        57.000          48.000
  20413256.249     5606386.75943   4373431.34542  20413257.904    20413255.775
        53.000          47.000
  22623544.105    21352093.41543  16633884.99442  22623545.244    22623546.578
        50.000          43.000
  20641273.702       32150.07043     25109.51342  20641274.112    20641274.156
        54.000          49.000
  20432660.600     -461712.64243   -312855.65742  20432661.373    20432660.916
        52.000          44.000
  24524035.208     -856618.03043   -661118.98642  24524037.593    24524042.841
        44.000          37.000
  23141733.272    -9161283.20043  -7093066.71442  23141734.372    23141737.058
        40.000          35.000
  24087655.953    18019012.76543  14039807.32642  24087656.124    24087662.426
        39.000          36.000
  23015983.540    16156605.54743  12590031.63342  23015985.018    23015986.212
        49.000          44.000
 02  7 11 17 23  0.0000000  0 11G23G22G21G18G 6G17G15G14G 3G29G26
  23743795.277    22128884.80543  17234347.33242  23743796.638    23743796.437
        49.000          41.000
  24495388.190    14711250.61343  11463691.93242  24495387.804    24495394.668
        44.000          37.000
  21817296.008     -385635.75143   -293620.27742  21817297.919    21817296.855
        56.000          48.000
  20414241.184     5611562.58443   4377464.44042  20414242.533    20414240.687
        52.000          47.000
  22636174.822    21418467.51543  16685604.97542  22636176.043    22636178.050
        50.000          43.000
  20642275.062       37410.54943     29208.58242  20642275.087    20642275.515
        54.000          49.000
  20431963.255     -465378.36343   -315712.08742  20431963.971    20431963.386
        52.000          44.000
  24509578.735     -932585.77343   -720314.59142  24509580.467    24509586.956
        43.000          37.000
  23131446.092    -9215360.93343  -7135205.16742  23131446.382    23131445.096
        40.000          35.000
  24098318.520    18075029.45543  14083456.64842  24098319.699    24098322.045
        40.000          36.000
  23026651.603    16212666.50643  12633715.45642  23026653.103    23026654.457
        50.000          44.000
 02  7 11 17 23 20.0000000  0 11G23G22G21G18G 6G17G15G14G 3G29G26
  23753956.389    22182277.99843  17275952.35142  23753958.934    23753959.657
        49.000          41.000
  24502898.648    14750711.76243  11494440.78942  24502898.498    24502904.242
        44.000          38.000
  21812368.703     -411529.26643   -313797.00042  21812370.657    21812369.509
        56.000          48.000
  20415254.354     5616889.00143   4381614.88942  20415255.456    20415254.218
        51.000          46.000
  22648826.766    21484949.82043  16737409.26542  22648827.441    22648828.045
        50.000          43.000
  20643296.826       42779.07243     33391.84842  20643297.122    20643297.526
        54.000          49.000
  20431288.519     -468929.81543   -318479.46642  20431289.003    20431286.142
        53.000          44.000
  24495125.275    -1008548.08243   -779505.97242  24495127.078    24495134.053
        43.000          37.000
  23121185.136    -9269292.52943  -7177229.73342  23121182.162    23121182.953
        41.000          35.000
  24109003.095    18131176.57043  14127207.60842  24109005.275    24109006.678
        41.000          35.000
  23037355.299    16268915.07543  12677545.45942  23037358.074    23037357.644
        49.000          43.000
 02  7 11 17 23 40.0000000  0 10G23G22G21G18G 6G17G15G14G 3G26
  23764116.644    22235669.32843  17317555.91642  23764117.650    23764119.732
        50.000          42.000
  24510427.857    14790271.26943  11525266.26242  24510426.547    24510432.650
        45.000          38.000
  21807462.864     -437307.91243   -333884.21942  21807464.890    21807463.849
        56.000          48.000
  20416297.410     5622369.96743   4385885.75042  20416298.920    20416298.067
        52.000          46.000
  22661498.682    21551544.07043  16789300.79142  22661500.560    22661500.512
        50.000          43.000
  20644339.687       48260.29843     37662.92942  20644340.376    20644339.828
        55.000          49.000
  20430634.431     -472362.23643   -321154.08042  20430636.383    20430633.590
        54.000          45.000
  24480672.561    -1084499.86343   -838689.12842  24480675.616    24480680.254
        45.000          38.000
  23110951.586    -9323072.85843  -7219136.45242  23110950.328    23110946.692
        41.000          35.000
  23048095.259    16325354.86343  12721524.46342  23048097.316    23048097.243
        49.000          43.000
 02  7 11 17 24  0.0000000  0 11G23G22G21G18G 6G17G15G14G 3G29G26
  23774277.457    22289061.37043  17359160.02042  23774278.996    23774278.724
        51.000          43.000
  24517974.119    14829931.25043  11556170.04342  24517972.753    24517979.977
        44.000          38.000
  21802579.331     -462969.01243   -353879.84342  21802580.840    21802580.497
        56.000          47.000
  20417369.785     5628008.22543   4390279.19542  20417371.650    20417369.054
        51.000          45.000
  22674193.346    21618252.44343  16841281.23842  22674194.564    22674195.700
        49.000          43.000
  20645404.733       53857.57543     42024.42842  20645405.603    20645404.543
        55.000          48.000
  20430004.293     -475672.51143   -323733.52042  20430005.156    20430003.625
        54.000          45.000
  24466222.046    -1160437.24643   -897861.04942  24466223.730    24466229.446
        46.000          39.000
  23100747.453    -9376698.07743  -7260922.29142  23100747.009    23100745.577
        42.000          36.000
  24130446.746     8791355.32053   6849424.71752  24130448.321    24130455.063
        36.000          34.000
  23058871.297    16381987.99143  12765654.12742  23058874.042    23058874.181
        48.000          43.000
 02  7 11 17 24 20.0000000  0 11G23G22G21G18G 6G17G15G14G 3G29G26
  23784436.944    22342448.24843  17400760.11342  23784438.727    23784440.434
        51.000          43.000
  24525538.082    14869685.44343  11587147.26242  24525537.211    24525544.887
        43.000          38.000
  21797717.989     -488518.32143   -373788.36142  21797719.327    21797718.922
        55.000          47.000
  20418471.752     5633797.70143   4394790.47442  20418471.919    20418470.689
        50.000          44.000
  22686907.518    21685068.68743  16893345.74742  22686909.160    22686911.771
        48.000          43.000
  20646490.717       59565.50743     46472.14842  20646491.480    20646490.400
        54.000          48.000
  20429396.530     -478865.93643   -326221.91642  20429398.130    20429396.999
        54.000          46.000
  24451774.696    -1236365.23843   -957025.64442  24451776.621    24451779.947
        47.000          40.000
  23090569.019    -9430173.24143  -7302591.22142  23090568.034    23090569.152
        42.000          36.000
  24141208.619     8847902.87253   6893487.67652  24141205.535    24141212.883
        36.000          34.000
  23069684.280    16438808.00743  12809929.40742  23069687.167    23069687.135
        49.000          43.000
 02  7 11 17 24 40.0000000  0 11G23G22G21G18G 6G17G15G14G 3G29G26
  23794595.707    22395834.52043  17442359.72742  23794596.667    23794597.672
        51.000          43.000
  24533121.083    14909537.82343  11618200.95842  24533120.807    24533129.930
        42.000          37.000
  21792878.104     -513951.15743   -393606.12242  21792878.983    21792878.772
        55.000          47.000
  20419602.547     5639742.91943   4399423.11642  20419603.563    20419602.036
        51.000          44.000
  22699641.663    21751996.87843  16945497.49942  22699643.271    22699647.470
        48.000          42.000
  20647599.002       65389.38543     51010.21242  20647600.002    20647598.789
        55.000          48.000
  20428812.141     -481937.26543   -328615.17742  20428813.640    20428813.147
        54.000          46.000
  24437327.940    -1312278.08743  -1016178.42442  24437330.434    24437334.994
        47.000          40.000
  23080422.991    -9483492.73743  -7344138.81942  23080424.787    23080422.016
        43.000          36.000
  24151996.320     8904584.49253   6937655.13252  24151999.121    24151996.610
        37.000          34.000
  23080533.471    16495819.06743  12854353.55342  23080536.118    23080535.995
        49.000          43.000
 02  7 11 17 25  0.0000000  0 11G23G22G21G18G 6G17G15G14G 3G29G26
  23804753.812    22449215.05343  17483954.87042  23804755.442    23804756.056
        51.000          43.000
  24540722.746    14949482.67743  11649326.74542  24540720.418    24540730.751
        41.000          37.000
  21788060.334     -539272.46243   -413336.98542  21788060.875    21788060.356
        55.000          47.000
  20420763.284     5645838.64043   4404173.02442  20420763.809    20420761.139
        50.000          43.000
  22712399.415    21819031.54843  16997732.22542  22712400.612    22712403.667
        48.000          43.000
  20648728.072       71324.49643     55634.96042  20648728.878    20648727.841
        54.000          48.000
  20428250.848     -484891.06243   -330916.84542  20428252.176    20428250.518
        54.000          46.000
  24422884.189    -1388179.80043  -1075322.52742  24422887.209    24422888.731
        46.000          39.000
  23070305.857    -9536660.56743  -7385568.26642  23070306.437    23070306.349
        44.000          37.000
  24162805.529     8961394.74853   6981922.88952  24162808.801    24162808.505
        37.000          34.000
  23091417.488    16553015.33843  12898922.02442  23091419.439    23091419.726
        49.000          43.000
 02  7 11 17 25 20.0000000  0 11G23G22G21G18G 6G17G15G14G 3G29G26
  23814911.165    22502593.46043  17525548.36242  23814910.652    23814914.746
        50.000          43.000
  24548343.005    14989523.21243  11680527.08242  24548343.303    24548348.875
        42.000          37.000
  21783263.883     -564478.42843   -432977.97742  21783264.082    21783264.813
        55.000          48.000
  20421953.071     5652088.56643   4409043.11142  20421954.654    20421951.633
        50.000          43.000
  22725176.220    21886175.90543  17050052.40042  22725176.677    22725180.678
        49.000          43.000
  20649879.731       77375.26443     60349.82942  20649880.330    20649879.901
        54.000          48.000
  20427711.332     -487723.08643   -333123.61842  20427712.963    20427712.635
        54.000          47.000
  24408441.323    -1464065.74443  -1134454.33442  24408443.229    24408445.867
        44.000          38.000
  23060217.848    -9589672.03343  -7426875.86442  23060220.320    23060219.982
        44.000          37.000
  24173641.067     9018336.84952   7026293.31152  24173642.235    24173646.024
        33.000          33.000
  23102337.799    16610399.91243  12943637.22142  23102340.218    23102338.477
        49.000          43.000
 02  7 11 17 25 40.0000000  0 10G23G22G21G18G 6G17G15G14G 3G26
  23825067.783    22555965.45643  17567136.86042  23825068.199    23825070.201
        50.000          43.000
  24555980.440    15029654.53243  11711798.16542  24555978.318    24555982.730
        43.000          37.000
  21778488.358     -589573.07843   -452532.23042  21778489.222    21778488.813
        54.000          48.000
  20423171.440     5658488.32843   4414029.94642  20423171.612    20423168.134
        51.000          43.000
  22737974.565    21953425.23443  17102454.37542  22737974.425    22737978.249
        50.000          43.000
  20651052.628       83537.81143     65151.80642  20651052.987    20651052.874
        55.000          48.000
  20427194.952     -490436.98743   -335238.33842  20427196.143    20427196.270
        54.000          47.000
  24394001.275    -1539939.06843  -1193576.29842  24394000.894    24394006.476
        42.000          37.000
  23050158.279    -9642530.33243  -7468064.12842  23050160.275    23050161.004
        45.000          38.000
  23113292.429    16667968.17743  12988495.55842  23113293.313    23113295.769
        49.000          43.000
 02  7 11 17 26  0.0000000  0 10G23G22G21G18G 6G17G15G14G 3G26
  23835223.921    22609337.21943  17608725.18142  23835225.210    23835225.042
        49.000          43.000
  24563633.955    15069882.46243  11743144.50742  24563636.222    24563639.967
        44.000          38.000
  21773734.991     -614549.98843   -471994.75342  21773736.398    21773735.700
        54.000          48.000
  20424418.519     5665044.00143   4419138.27942  20424419.425    20424417.506
        51.000          43.000
  22750793.656    22020785.40243  17154942.71942  22750794.755    22750797.042
        50.000          44.000
  20652247.963       89819.08843     70046.30242  20652248.830    20652248.092
        55.000          48.000
  20426702.696     -493026.12443   -337255.84442  20426703.254    20426703.694
        54.000          47.000
  24379566.307    -1615792.46443  -1252682.74042  24379568.825    24379573.034
        41.000          36.000
  23040129.877    -9695228.51643  -7509127.60342  23040132.962    23040133.608
        45.000          38.000
  23124283.093    16725725.57743  13033501.26142  23124284.504    23124285.992
        49.000          43.000
 02  7 11 17 26 20.0000000  0 10G23G22G21G18G 6G17G15G14G 3G26
  23845378.410    22662701.91643  17650308.00942  23845379.567    23845380.795
        48.000          42.000
  24571308.238    15110199.55643  11774560.32242  24571308.628    24571312.450
        46.000          38.000
  21769003.798     -639415.93643   -491370.80842  21769004.638    21769004.661
        54.000          48.000
  20425694.460     5671748.86643   4424362.85442  20425696.726    20425692.856
        51.000          44.000
  22763631.875    22088249.05843  17207511.69442  22763633.133    22763635.420
        50.000          44.000
  20653464.641       96212.63643     75028.27742  20653465.334    20653465.002
        56.000          49.000
  20426232.668     -495496.64943   -339180.92042  20426233.843    20426233.652
        54.000          47.000
  24365134.780    -1691631.70243  -1311778.15142  24365135.592    24365143.248
        42.000          36.000
  23030131.021    -9747772.11643  -7550070.65142  23030132.481    23030134.189
        45.000          38.000
  23135309.161    16783664.88543  13078648.71242  23135311.236    23135311.913
        48.000          42.000
 02  7 11 17 26 40.0000000  0 10G23G22G21G18G 6G17G15G14G 3G26
  23855531.930    22716060.67843  17691886.19242  23855533.499    23855535.287
        48.000          42.000
  24578997.963    15150606.44843  11806046.11542  24578997.795    24579000.647
        47.000          39.000
  21764293.199     -664169.72543   -510659.46242  21764293.992    21764294.043
        54.000          48.000
  20426999.496     5678603.88643   4429704.43342  20427000.534    20426998.294
        50.000          44.000
  22776488.710    22155817.03443  17260161.96042  22776491.369    22776493.936
        49.000          44.000
  20654702.761      102720.58943     80099.39042  20654703.855    20654703.169
        56.000          49.000
  20425784.844     -497846.80243   -341012.20142  20425786.047    20425785.927
        53.000          46.000
  24350707.399    -1767454.38343  -1370860.68842  24350708.336    24350714.918
        42.000          37.000
  23020162.764    -9800158.96343  -7590891.55342  23020164.120    23020164.209
        46.000          38.000
  23146369.666    16841786.65643  13123938.35342  23146370.277    23146371.606
        48.000          43.000
 02  7 11 17 27  0.0000000  0 10G23G22G21G18G 6G17G15G14G 3G26
  23865684.189    22769414.14143  17733460.26642  23865685.117    23865688.439
        47.000          41.000
  24586705.458    15191103.28043  11837601.99242  24586704.425    24586707.264
        47.000          39.000
  21759604.477     -688810.23543   -529859.83642  21759605.179    21759605.355
        55.000          48.000
  20428331.599     5685609.56343   4435163.41442  20428333.151    20428331.095
        50.000          44.000
  22789366.010    22223489.49543  17312893.64542  22789368.795    22789372.463
        48.000          43.000
  20655963.248      109343.89343     85260.38842  20655964.444    20655963.714
        56.000          48.000
  20425360.913     -500075.37143   -342748.75542  20425361.405    20425360.372
        53.000          46.000
  24336281.965    -1843259.03843  -1429929.18242  24336283.361    24336290.642
        43.000          38.000
  23010222.985    -9852387.59843  -7631589.17142  23010224.402    23010226.117
        45.000          38.000
  23157464.653    16900090.96143  13169370.22242  23157467.524    23157467.866
        49.000          42.000
 02  7 11 17 27 20.0000000  0 10G23G22G21G18G 6G17G15G14G 3G26
  23875835.501    22822761.10043  17775029.24942  23875836.457    23875839.499
        47.000          41.000
  24594426.946    15231688.25443  11869226.55442  24594427.849    24594431.790
        47.000          40.000
  21754936.466     -713338.88043   -548973.05342  21754937.702    21754937.445
        55.000          48.000
  20429694.590     5692764.68343   4440738.83342  20429695.484    20429693.038
        49.000          44.000
  22802263.197    22291264.76943  17365705.46742  22802263.233    22802269.788
        47.000          43.000
  20657245.408      116082.01143     90510.85642  20657246.115    20657245.560
        55.000          48.000
  20424959.110     -502183.11843   -344391.15842  20424960.623    20424959.676
        53.000          46.000
  24321863.584    -1919045.72043  -1488983.67642  24321862.929    24321867.770
        44.000          38.000
  23000314.942    -9904458.03643  -7672163.50842  23000316.165    23000317.756
        46.000          38.000
  23168594.589    16958576.10743  13214943.01442  23168596.134    23168597.461
        49.000          43.000
 02  7 11 17 27 40.0000000  0 10G23G22G21G18G 6G17G15G14G 3G26
  23885987.270    22876103.11043  17816594.37742  23885988.407    23885990.064
        47.000          41.000
  24602167.293    15272362.48043  11900920.67342  24602168.349    24602173.249
        47.000          39.000
  21750290.652     -737753.57343   -567997.47942  21750291.498    21750291.448
        55.000          48.000
  20431084.952     5700070.86043   4446431.95742  20431086.737    20431083.530
        49.000          44.000
  22815177.455    22359144.25143  17418598.52042  22815176.695    22815186.184
        45.000          42.000
  20658550.324      122937.17643     95852.53242  20658551.005    20658550.425
        55.000          48.000
  20424582.396     -504167.70443   -345937.59142  20424582.810    20424581.238
        54.000          46.000
  24307445.052    -1994811.56843  -1548021.93942  24307445.829    24307450.202
        44.000          38.000
  22990436.583    -9956367.69343  -7712612.56842  22990436.925    22990438.109
        47.000          38.000
  23179758.450    17017243.10143  13260657.49142  23179758.695    23179760.151
        49.000          42.000
 02  7 11 17 28  0.0000000  0 10G23G22G21G18G 6G17G15G14G 3G26
  23896137.260    22929441.52543  17858156.70142  23896139.051    23896139.947
        48.000          41.000
  24609925.323    15313126.74543  11932684.93942  24609923.849    24609931.005
        47.000          39.000
  21745666.041     -762053.12643   -586932.17142  21745667.081    21745667.355
        55.000          48.000
  20432503.528     5707529.35543   4452243.78442  20432506.253    20432503.226
        48.000          44.000
  22828113.309    22427128.71143  17471573.38142  22828115.082    22828123.844
        45.000          42.000
  20659877.400      129911.17143    101286.80342  20659878.068    20659877.124
        55.000          48.000
  20424228.925     -506027.33343   -347386.66142  20424229.214    20424227.660
        54.000          46.000
  24293030.809    -2070554.36643  -1607042.24442  24293031.983    24293038.399
        43.000          38.000
  22980590.733   -10008114.25543  -7752934.54642  22980590.351    22980591.399
        47.000          38.000
  23190957.026    17076092.76543  13306514.32342  23190960.561    23190958.605
        50.000          43.000
 02  7 11 17 28 20.0000000  0 10G23G22G21G18G 6G17G15G14G 3G26
  23906285.117    22982768.31043  17899709.95142  23906286.682    23906288.536
        48.000          41.000
  24617697.658    15353972.53943  11964512.72842  24617697.084    24617702.745
        47.000          39.000
  21741062.553     -786245.30243   -605783.19442  21741063.443    21741063.433
        55.000          48.000
  20433949.676     5715131.97643   4458167.89242  20433952.273    20433949.731
        47.000          43.000
  22841071.664    22495209.74243  17524623.47042  22841073.420    22841079.509
        47.000          43.000
  20661225.879      136996.80443    106808.06142  20661226.605    20661225.226
        55.000          48.000
  20423896.542     -507769.36243   -348744.08642  20423898.086    20423896.385
        54.000          47.000
  24278620.343    -2146281.03343  -1666049.96942  24278621.988    24278626.286
        41.000          37.000
  22970771.349   -10059704.64743  -7793134.84042  22970773.563    22970775.134
        46.000          38.000
  23202189.356    17135116.38343  13352506.72442  23202191.370    23202191.075
        50.000          43.000
